GFSGBSN_850_spd_000.txt.gz
Wind_Speed
14 15 17 18 18 15 16 17 15 13 12 11 9 7 5 7 9 9 10 8 9 11 13 12 13 15 15 13 15 6 3 4 3 16 20 21 21 23 20 24 21 21 17 17 16 14 13
15 16 18 17 15 16 15 16 18 16 13 13 11 8 7 6 8 9 10 10 10 10 12 12 12 16 15 16 12 18 16 9 4 7 19 23 17 26 19 25 26 17 22 17 16 16 13
15 15 17 17 17 15 16 13 18 16 14 14 14 12 11 9 9 9 10 12 11 11 10 11 12 13 14 20 9 8 18 23 27 10 19 24 29 17 21 20 25 24 14 15 18 17 14
16 15 17 17 16 16 17 16 15 15 15 14 15 15 12 11 11 10 9 10 12 11 11 10 13 13 10 14 22 18 10 6 17 22 13 20 23 26 20 17 21 21 16 17 18 15 15
16 18 18 19 16 16 16 17 16 15 18 16 16 16 15 13 14 14 14 11 13 14 12 11 11 10 8 10 22 22 23 16 6 16 18 11 20 15 18 16 11 17 16 22 17 14 12
18 19 20 20 18 17 16 17 17 16 18 18 17 16 13 13 14 14 13 14 13 14 14 12 12 6 14 10 13 18 22 19 12 13 11 15 16 12 12 12 20 13 19 11 17 11 11
20 18 18 18 18 17 16 16 17 16 17 17 18 16 15 15 17 15 14 15 9 7 23 12 12 8 3 16 7 13 12 17 13 13 12 23 13 22 32 18 17 18 19 15 13 6 5
20 19 15 18 17 15 14 16 15 14 15 16 17 16 15 14 17 17 13 21 18 7 5 27 10 25 5 8 7 14 13 19 15 16 17 15 23 24 14 20 17 19 16 16 12 6 6
18 19 16 19 18 16 15 15 15 15 13 14 15 15 13 14 17 20 20 23 26 19 3 10 29 20 15 15 8 14 22 26 14 16 17 22 17 20 18 21 23 17 17 15 9 5 7
22 21 20 18 19 19 16 15 14 14 12 13 14 13 12 13 14 15 16 27 19 23 2 6 10 13 21 11 10 20 24 23 9 20 17 19 23 22 15 20 22 18 11 9 8 1 5
24 23 23 20 20 19 17 15 14 14 11 11 13 13 13 13 6 6 8 12 23 16 4 10 9 7 14 21 6 22 23 23 14 11 6 14 13 18 22 24 26 11 12 9 3 5 6
22 25 24 21 19 21 18 16 14 13 12 11 12 12 12 14 15 14 7 8 15 2 7 8 8 13 15 23 11 14 15 17 9 9 17 13 7 19 14 24 19 16 14 9 4 2 7
25 24 25 22 19 21 18 17 15 14 12 11 13 12 15 14 10 10 18 20 3 5 3 6 5 8 16 12 18 10 17 21 7 7 7 9 15 3 17 16 3 16 15 3 6 5 6
24 25 22 22 21 20 18 18 17 14 13 13 14 13 14 16 16 10 33 3 7 4 6 4 7 15 10 15 13 13 15 18 18 13 11 7 5 12 12 20 9 16 15 4 5 6 5
18 22 24 23 19 18 18 18 16 14 13 13 13 13 17 18 18 23 18 4 4 4 8 7 14 10 9 17 8 14 16 19 13 18 4 9 3 10 13 5 11 4 6 1 3 2 3
30 21 22 23 20 19 18 18 16 16 12 12 13 10 13 9 22 32 3 4 4 6 5 18 8 11 12 18 7 15 16 16 11 17 8 11 3 8 9 8 4 10 11 5 2 5 5
29 18 22 22 20 18 17 17 15 15 11 11 11 4 5 13 29 13 3 5 5 13 17 16 8 10 11 16 7 17 16 8 20 15 13 5 6 3 13 7 13 12 7 5 3 3 3
33 23 20 20 19 18 15 15 14 13 11 10 6 3 11 28 6 5 4 5 4 7 27 14 10 7 13 15 9 8 16 7 28 12 9 8 3 7 4 3 8 11 11 12 7 5 2
25 28 14 20 18 17 15 14 14 13 12 8 5 4 15 33 4 8 5 7 8 13 19 14 10 8 6 13 8 16 13 18 24 15 10 11 7 8 5 1 3 6 10 16 9 1 10
22 27 20 20 17 17 14 13 13 14 14 12 5 3 8 19 12 3 8 7 7 21 17 11 8 9 15 11 12 15 14 8 21 26 27 3 5 12 12 9 12 14 18 17 17 10 8
21 26 29 12 18 17 14 12 13 15 15 13 8 5 6 6 9 14 6 7 12 10 9 3 6 11 14 9 10 9 13 6 16 24 19 5 4 9 2 4 16 18 19 19 20 19 12
26 25 27 11 18 18 14 13 13 17 16 19 6 4 5 4 10 13 13 12 15 3 8 4 3 14 16 11 13 14 13 11 10 16 20 11 3 3 3 4 10 13 19 22 22 20 22
28 27 25 10 19 20 15 14 14 18 20 15 10 11 3 4 4 6 5 10 17 16 7 7 12 13 17 11 18 21 22 16 10 16 21 12 5 4 3 4 5 8 17 19 18 20 21
26 27 27 20 20 21 18 15 15 20 23 21 8 5 4 5 6 4 4 6 8 18 4 4 13 16 9 6 14 15 9 6 14 8 19 13 5 1 3 2 5 1 4 14 21 16 19
28 27 19 26 11 24 19 16 15 21 21 23 21 8 4 4 4 3 6 4 4 6 3 3 1 7 23 8 9 9 4 3 4 6 6 11 3 3 4 7 5 4 5 7 11 12 14
28 31 22 23 9 20 18 15 14 20 20 20 20 16 7 3 2 1 4 8 3 3 3 3 11 14 5 1 4 4 5 6 5 2 4 5 7 4 1 4 4 3 3 6 5 6 10
30 32 31 25 9 21 16 13 13 20 20 20 14 16 9 4 3 5 3 8 6 3 4 5 4 2 2 2 2 3 3 3 10 12 8 4 5 11 9 2 7 2 6 6 5 1 11
30 31 29 23 19 17 19 13 13 20 20 19 16 15 16 5 5 6 4 5 7 6 4 8 6 1 2 1 2 2 2 4 4 8 12 12 9 5 4 3 8 8 5 6 4 13 17
32 32 30 23 18 19 20 13 14 20 20 18 15 13 15 8 3 4 4 6 11 9 10 14 2 5 7 2 1 4 3 2 4 5 1 6 3 5 7 4 2 2 1 3 11 21 14

GFSGBSN_850_spd_003.txt.gz
Wind_Speed
23 17 17 20 21 23 18 20 18 15 14 15 14 11 9 8 9 9 9 9 9 9 11 9 9 12 12 16 23 6 2 6 3 11 19 20 21 20 21 24 27 24 24 26 25 20 17
21 20 19 19 20 22 18 18 18 17 16 16 15 13 11 8 10 10 10 9 8 7 8 11 10 12 13 16 16 19 13 11 7 5 14 20 15 22 18 25 23 16 31 28 20 25 22
22 24 19 19 20 21 21 19 16 18 18 16 16 15 14 12 12 10 10 9 9 9 8 10 10 11 16 19 9 13 18 20 16 15 12 15 21 16 16 18 31 31 17 21 25 22 19
22 24 17 19 20 21 21 20 19 17 16 16 14 15 14 14 12 13 11 8 8 10 10 10 10 10 14 13 22 14 8 5 10 18 19 15 18 25 25 14 14 23 19 16 20 24 24
23 22 20 20 22 21 21 21 20 19 18 17 15 15 15 15 13 13 13 12 10 10 11 10 9 11 11 13 21 23 22 17 9 10 16 16 16 23 18 11 8 15 18 25 20 22 19
23 20 22 22 24 23 22 21 21 21 20 18 18 16 15 14 13 14 13 10 12 10 12 10 11 6 17 11 13 16 19 19 21 14 14 21 13 13 15 15 15 19 24 19 24 19 15
23 22 23 23 23 22 20 20 20 20 20 19 18 17 15 14 14 15 14 13 9 7 24 14 10 15 3 16 8 9 16 16 18 21 18 25 12 19 27 22 22 21 20 24 17 21 19
27 25 24 23 22 21 19 16 17 18 18 18 18 16 15 14 14 16 17 14 13 4 5 29 21 19 11 6 7 14 16 16 21 21 20 18 19 27 29 22 26 19 20 26 11 16 10
28 24 24 23 23 23 20 20 16 16 17 17 17 14 14 12 14 18 23 22 22 18 5 8 33 27 25 11 15 16 21 25 19 22 22 24 23 26 25 23 24 28 23 21 14 13 11
29 26 26 24 25 23 23 22 16 15 17 16 14 12 12 13 12 17 21 14 22 16 3 6 9 11 21 13 10 26 26 23 13 21 23 20 21 22 29 22 22 26 20 16 12 12 9
24 26 28 25 26 25 23 22 17 15 15 14 12 10 12 13 6 8 7 4 11 9 6 11 9 8 15 17 7 22 26 24 20 18 7 13 12 20 24 25 18 17 27 17 15 9 3
26 16 27 25 26 27 24 22 19 15 14 14 11 8 11 14 17 13 12 10 18 2 7 8 7 12 13 23 20 6 29 22 20 13 18 21 8 20 18 20 18 3 12 10 11 6 7
30 23 24 25 24 26 25 23 20 15 14 14 15 11 9 12 9 17 13 17 3 6 3 5 4 9 18 16 21 13 16 19 11 6 9 12 21 11 10 12 20 18 16 6 6 7 7
27 27 31 13 22 25 27 23 20 17 15 16 13 16 11 13 13 11 26 2 8 3 6 4 4 6 9 12 21 16 9 14 23 10 8 10 8 13 10 14 9 19 20 8 9 10 12
26 29 32 20 23 24 27 23 19 17 16 17 12 15 15 15 17 19 13 5 5 3 5 6 8 5 5 14 10 17 14 13 20 18 3 7 8 4 15 13 13 10 21 2 6 7 9
29 21 31 29 14 22 24 21 18 16 17 19 14 16 22 17 22 31 4 9 6 5 6 9 8 11 11 18 13 15 12 14 19 16 16 5 5 6 10 13 3 7 10 5 2 7 6
26 19 31 27 21 21 22 21 16 16 16 18 16 4 5 15 27 15 6 7 6 9 13 14 13 13 13 17 16 18 9 6 20 15 17 8 4 5 4 7 11 3 7 5 4 2 3
26 24 26 34 20 18 21 20 15 16 15 19 9 4 13 25 6 4 7 5 4 7 21 15 7 11 11 17 16 16 15 10 21 12 8 9 5 2 4 3 20 14 10 14 6 5 4
31 28 21 32 32 9 21 19 13 17 23 20 7 5 15 34 5 7 8 6 8 6 13 12 11 10 11 14 12 12 11 16 15 19 9 13 5 4 4 9 4 6 10 15 12 3 11
31 30 22 25 30 10 17 17 12 19 21 19 5 4 7 20 13 4 8 5 6 16 16 15 9 10 10 14 15 15 9 11 12 21 24 3 8 3 5 7 11 12 15 14 13 9 9
30 30 28 24 25 8 12 16 12 18 21 23 9 6 7 5 9 14 6 4 8 6 18 22 7 16 16 13 17 5 15 11 13 16 12 3 5 7 2 3 13 11 16 16 17 16 10
32 29 28 25 27 19 15 16 12 17 22 27 7 5 5 4 14 15 16 10 13 11 11 9 11 18 17 11 14 11 16 12 9 14 14 9 4 3 3 2 7 12 16 19 21 20 18
33 30 28 25 22 27 10 22 14 15 25 16 17 7 2 6 9 9 7 12 15 18 9 13 12 6 15 15 12 6 19 16 5 12 14 7 5 3 3 6 5 9 17 18 18 20 19
32 31 30 30 21 21 6 23 16 15 25 25 13 9 7 9 11 11 6 10 15 15 11 10 10 3 8 6 4 3 12 14 6 9 18 14 10 4 3 6 6 2 4 14 19 18 19
33 31 30 30 28 23 16 17 19 13 18 26 25 8 5 7 10 10 6 7 0 11 19 3 8 14 14 11 9 6 2 3 3 6 14 11 7 3 3 4 8 6 2 4 13 15 17
31 31 30 30 30 22 19 15 21 15 16 25 27 24 6 4 2 1 3 4 3 2 3 2 7 10 9 4 4 5 4 4 4 2 7 8 9 5 1 3 5 4 2 1 4 8 1
32 31 31 30 30 24 17 11 20 15 17 24 19 21 8 6 11 3 4 4 4 3 4 5 8 5 4 2 7 6 4 10 7 9 5 4 3 4 3 3 6 4 6 5 5 3 4
30 30 32 30 32 25 21 18 21 14 20 23 23 19 15 7 9 5 5 3 4 4 5 8 7 2 3 5 3 2 3 7 6 14 9 7 7 4 4 5 8 10 6 4 3 7 9
29 29 30 29 30 26 19 12 22 14 21 23 21 18 20 9 5 8 9 9 14 6 5 13 1 7 5 1 2 2 2 3 6 7 6 9 8 8 9 5 5 8 3 1 7 12 13

GFSGBSN_850_spd_006.txt.gz
Wind_Speed
22 19 21 21 21 18 20 20 19 19 17 14 15 14 13 10 9 8 8 8 6 7 10 11 10 9 12 12 18 5 1 6 6 4 17 16 18 17 16 11 21 23 19 28 27 27 28
24 20 20 23 23 21 20 20 19 17 16 16 16 15 14 12 9 8 9 8 8 8 7 10 11 9 12 16 11 16 12 9 4 3 10 17 17 18 22 21 19 13 27 26 27 26 23
27 25 22 23 23 22 20 20 19 17 15 17 18 16 16 14 12 9 8 8 9 10 8 9 12 12 13 18 6 13 17 17 14 10 10 11 19 19 10 15 17 25 16 16 25 26 17
30 28 24 23 21 22 21 22 20 18 17 16 16 16 15 15 13 11 8 9 9 9 10 11 9 8 10 12 19 12 9 11 21 16 16 16 11 16 23 13 13 7 11 14 19 16 24
32 31 26 22 22 22 22 23 22 19 17 16 16 16 15 13 14 12 10 10 11 9 12 11 8 9 9 11 21 22 19 13 9 9 9 15 15 16 13 11 7 10 13 22 15 18 16
28 33 27 22 22 24 23 23 23 22 19 17 15 15 17 14 13 13 12 10 9 11 11 7 10 5 16 14 11 15 21 22 18 15 12 11 11 10 11 12 17 12 12 13 18 17 18
28 30 29 25 25 25 25 23 22 21 19 18 14 15 17 15 13 13 13 10 8 4 17 13 9 12 2 9 7 12 16 17 17 16 14 16 8 18 21 21 18 18 19 16 16 16 18
30 29 30 27 26 26 24 23 20 18 17 17 14 14 16 14 12 14 13 9 9 4 8 30 27 21 24 6 9 15 14 17 20 16 15 14 19 25 17 18 18 20 20 19 16 17 21
27 26 24 30 25 26 26 24 21 19 16 15 15 13 15 12 13 16 18 17 16 14 7 8 31 31 22 16 18 15 22 24 14 18 19 19 23 16 19 18 20 21 23 19 17 18 8
30 29 28 19 24 26 26 26 24 21 18 15 14 12 12 12 12 15 16 9 17 14 4 5 7 9 27 10 8 25 19 23 13 20 17 15 21 20 19 22 20 21 23 20 18 20 7
32 31 32 22 23 28 27 27 25 22 20 17 14 11 12 13 5 11 9 7 3 4 5 8 6 5 7 14 3 11 33 27 18 17 11 10 14 20 23 23 20 22 13 17 22 11 4
34 30 32 29 19 31 27 26 26 22 21 18 15 13 12 14 15 9 9 3 7 2 8 5 6 8 8 12 8 9 27 26 21 17 17 15 16 15 15 20 20 21 13 14 17 8 7
35 34 32 27 27 17 16 24 25 23 20 18 17 16 15 12 14 18 9 16 2 6 2 5 4 7 13 11 11 8 18 20 9 7 10 6 19 10 3 5 20 20 11 9 7 7 4
34 36 30 26 23 14 11 28 25 24 21 19 18 21 17 17 12 14 20 2 6 6 6 3 4 8 8 7 7 15 9 16 18 12 2 10 9 17 12 8 11 21 16 3 4 3 5
36 33 30 24 24 10 29 26 25 23 23 19 17 24 22 22 19 19 17 5 5 4 4 5 5 6 5 5 6 14 14 7 11 18 8 5 8 10 12 14 10 5 11 19 6 8 4
36 34 32 24 25 31 32 16 24 25 23 20 26 26 27 23 26 23 6 11 6 6 7 5 9 11 8 11 8 12 12 7 16 17 12 2 5 6 8 12 16 9 11 12 7 6 6
37 35 32 30 25 24 33 16 21 27 22 22 26 10 12 26 29 16 7 7 7 16 9 8 11 10 11 9 14 12 9 12 13 15 14 6 6 3 2 10 16 7 6 9 3 2 6
37 39 34 34 23 29 28 12 22 18 21 23 18 3 21 28 6 4 7 5 4 9 20 10 13 19 12 12 15 10 13 7 18 14 10 11 4 3 8 3 12 5 10 17 2 2 2
36 39 35 33 23 23 22 20 27 25 28 32 16 6 25 35 5 6 6 6 7 3 8 8 8 11 7 7 7 14 14 13 19 11 16 11 5 1 5 8 4 6 5 3 5 3 3
34 37 38 35 31 23 28 26 19 30 29 28 10 5 8 18 8 6 10 7 6 16 18 16 14 16 7 8 11 1 10 6 13 16 15 2 4 7 4 6 10 5 4 5 5 1 2
33 35 38 36 33 27 28 22 10 28 29 33 9 5 9 5 9 10 5 4 7 5 15 18 8 11 9 7 7 11 12 6 7 13 11 5 5 9 6 18 15 12 11 8 5 4 2
34 32 36 35 32 33 24 18 16 29 27 26 11 4 10 2 15 16 15 7 9 6 4 6 12 9 17 10 8 11 10 7 6 6 8 6 5 10 9 6 10 9 12 12 9 5 6
33 30 34 35 32 31 24 21 3 25 30 9 12 11 2 4 7 7 6 9 10 12 11 21 13 14 11 13 9 15 18 16 8 6 8 5 3 6 4 3 6 3 8 11 8 8 7
32 29 32 32 32 34 25 23 20 20 24 22 14 9 5 3 6 8 12 14 17 14 16 8 21 14 4 4 5 9 14 12 5 2 7 7 2 2 2 2 1 2 2 3 11 7 9
30 27 32 32 32 32 30 20 23 10 23 24 20 11 5 2 5 10 13 2 1 5 11 13 8 6 10 9 2 5 2 4 4 5 6 8 3 1 2 3 5 4 2 1 5 6 6
29 27 30 31 34 33 34 22 20 14 17 20 25 22 5 2 2 6 5 3 5 3 3 8 9 6 7 2 2 4 3 3 3 2 5 3 6 3 4 1 2 2 1 6 4 2 6
27 25 27 29 29 30 31 25 22 8 21 20 18 24 13 3 11 11 2 2 5 2 1 4 6 3 10 3 4 3 4 7 6 6 5 4 3 4 2 2 5 3 4 2 4 3 5
26 25 28 30 28 29 29 23 17 4 19 18 22 18 19 6 7 7 3 4 5 4 2 6 6 3 2 4 2 2 3 6 5 7 7 5 7 4 3 2 6 9 4 3 3 3 4
25 24 27 29 27 27 27 20 19 6 19 19 21 19 17 9 5 8 10 12 15 16 2 17 4 10 7 3 2 2 2 3 4 4 7 6 5 5 7 5 1 7 5 9 7 11 14

GFSGBSN_850_spd_009.txt.gz
Wind_Speed
26 25 22 20 18 23 21 18 18 18 16 16 14 12 11 10 9 7 5 5 5 5 5 6 5 5 7 12 17 4 4 7 7 2 19 17 10 9 5 5 8 12 15 22 28 30 32
27 27 27 22 20 22 24 21 17 17 17 16 14 13 12 12 10 7 6 5 5 5 5 4 5 6 10 14 13 19 17 11 4 2 1 16 10 12 13 9 13 12 15 24 31 24 25
21 26 28 27 23 22 24 22 20 18 18 15 13 15 13 12 12 9 7 5 6 5 5 5 5 8 14 24 7 7 12 14 12 10 7 9 12 15 5 4 9 11 13 16 21 27 16
26 25 25 29 26 23 22 23 21 20 18 17 14 13 12 11 12 10 8 8 6 7 6 6 5 7 11 14 20 12 14 15 19 17 13 9 10 12 7 8 8 4 6 13 9 10 13
30 25 27 22 26 25 23 23 21 21 20 18 16 12 11 11 11 11 9 9 8 9 7 7 6 7 11 10 18 24 15 17 9 9 6 10 14 9 6 4 4 3 10 7 7 8 6
30 29 27 28 28 25 24 24 23 22 22 19 17 14 11 11 9 12 11 10 8 7 9 7 9 4 14 9 11 17 22 18 13 10 7 10 9 5 3 4 13 11 6 13 9 5 11
32 31 28 25 27 29 25 27 25 24 23 21 18 16 13 14 11 14 12 8 7 4 14 11 10 8 3 2 4 8 13 21 19 13 5 11 7 12 12 12 10 9 15 14 12 10 12
33 33 32 27 21 22 28 28 27 24 22 18 17 16 14 14 12 14 13 8 8 3 6 20 29 20 18 6 6 13 11 15 17 14 6 6 18 11 11 13 12 15 15 21 15 16 9
35 33 32 31 33 24 22 28 27 24 22 19 19 17 14 14 14 17 18 14 14 10 4 8 27 24 31 21 17 15 19 22 9 10 11 17 3 14 13 14 14 17 18 18 16 14 14
33 35 34 34 29 31 23 20 27 26 24 21 19 17 15 15 16 18 19 13 11 7 3 4 4 6 11 12 6 27 26 19 8 16 13 13 15 16 11 18 14 18 15 14 17 11 11
37 36 35 33 33 30 28 23 27 26 25 23 20 19 16 17 8 21 10 13 9 5 4 6 5 3 0 10 8 11 28 25 17 11 10 8 7 14 18 23 13 16 11 13 13 15 15
37 38 35 34 35 29 27 26 24 27 23 25 23 20 18 21 16 15 14 16 12 3 7 6 5 5 4 8 6 3 5 23 6 13 13 15 7 3 13 12 15 3 5 11 9 9 13
37 39 37 35 33 31 23 23 24 30 25 27 25 23 25 26 24 20 19 16 3 4 1 5 4 6 9 8 8 7 4 13 5 6 6 5 12 3 2 3 5 4 4 4 7 6 11
37 38 37 35 33 26 21 23 11 24 26 27 29 28 25 22 21 25 21 3 6 4 5 3 3 6 6 6 8 10 2 8 15 5 2 6 5 13 9 13 7 10 14 6 7 7 6
36 38 37 38 37 35 26 15 10 24 23 26 25 32 32 28 20 26 20 3 6 5 3 5 3 4 4 6 7 7 10 6 8 15 7 5 8 2 12 12 14 7 12 21 5 5 3
36 38 39 38 37 38 21 21 16 15 23 27 35 36 35 32 27 32 3 5 5 2 6 4 8 9 7 6 8 8 9 9 8 16 16 3 6 5 13 14 13 11 11 11 5 5 7
34 37 38 41 42 30 23 16 20 13 23 30 37 18 28 36 36 19 3 7 5 9 9 6 6 4 7 6 8 6 7 6 15 12 19 7 6 4 3 12 16 11 8 7 4 9 2
35 34 36 39 41 34 22 18 24 22 13 33 25 5 26 38 7 4 4 5 4 5 8 14 8 9 7 10 7 5 12 6 10 6 14 10 3 6 16 10 16 16 14 11 8 8 9
34 34 36 37 40 38 34 24 29 12 14 30 20 8 34 42 6 4 4 7 8 7 8 6 8 12 9 9 4 10 8 11 18 8 10 8 4 4 5 6 5 20 14 9 8 5 13
33 33 35 36 39 39 37 34 30 9 23 28 9 4 10 17 4 9 8 8 7 9 14 11 4 7 10 9 11 5 12 5 24 19 20 13 5 7 3 3 7 9 18 16 12 7 3
32 32 34 33 37 37 36 30 24 13 30 27 7 3 9 6 7 5 11 4 7 5 12 8 6 15 7 5 5 6 5 3 13 25 9 6 6 5 16 16 11 12 15 16 19 18 7
30 32 33 31 34 36 37 33 25 15 16 20 11 5 10 8 15 14 8 7 8 6 6 3 7 8 11 6 6 5 7 4 5 10 8 8 5 10 2 11 13 14 21 17 7 1 7
29 29 31 30 33 35 34 34 21 14 19 6 10 13 11 8 8 8 8 13 13 10 9 14 11 5 11 10 12 8 10 9 7 8 8 6 3 5 4 8 10 0 9 5 3 1 4
28 29 29 27 31 33 34 38 24 16 21 7 18 15 4 3 4 8 5 13 15 15 11 7 11 11 8 6 3 5 7 4 3 5 4 5 1 3 3 5 1 3 0 5 7 4 4
26 28 29 27 29 32 31 35 19 21 13 10 19 12 7 2 7 8 8 5 1 5 8 11 16 10 20 9 2 2 1 4 4 3 3 3 3 1 1 2 4 3 3 3 5 4 2
25 26 28 26 29 31 30 32 20 20 13 11 20 17 7 4 5 6 1 1 2 1 3 4 11 4 7 2 3 5 3 2 3 4 1 4 2 2 3 1 1 3 3 3 1 1 2
25 26 26 25 27 30 28 28 23 17 9 10 16 17 8 5 7 6 3 3 2 3 3 2 5 3 4 3 0 3 4 7 6 5 4 4 2 5 2 2 6 4 2 3 3 4 4
25 24 25 25 26 28 27 26 23 16 8 7 19 14 15 6 6 5 7 6 4 4 3 2 4 2 2 4 4 2 3 5 4 4 5 5 4 3 2 1 6 5 2 4 4 2 11
26 25 24 25 26 27 25 26 21 13 12 5 16 13 14 5 4 9 9 9 9 7 6 10 3 5 6 3 3 3 2 3 5 4 3 4 6 6 7 5 1 3 2 8 9 15 16

GFSGBSN_850_spd_012.txt.gz
Wind_Speed
24 22 16 24 23 21 20 21 22 20 18 18 19 16 13 12 11 8 7 5 4 3 4 4 5 6 10 11 14 4 6 6 7 14 19 18 12 6 5 5 8 6 6 17 21 23 26
27 24 20 18 24 23 22 22 23 23 19 19 18 17 14 12 13 10 8 6 5 4 3 3 5 8 12 6 10 20 10 6 3 5 7 19 11 13 7 7 7 9 12 13 18 22 21
26 27 26 21 25 21 23 23 23 22 22 20 18 17 15 15 14 13 10 7 5 4 4 4 5 8 13 20 8 13 21 16 12 8 8 9 19 9 2 4 12 8 9 9 9 10 7
27 27 27 24 22 24 21 22 24 24 22 22 20 18 16 14 13 14 11 9 8 7 5 6 5 7 9 5 14 17 13 14 19 17 15 11 9 8 7 9 6 3 3 4 4 9 7
31 30 30 30 25 24 24 24 24 24 25 23 22 19 17 14 13 14 12 11 8 7 6 6 6 6 10 6 11 14 19 14 11 16 20 17 11 7 2 3 4 4 6 6 4 7 4
31 32 33 32 30 25 25 20 24 26 27 24 23 21 18 14 13 13 14 12 9 7 8 7 7 3 11 7 5 4 23 16 8 8 7 9 5 2 3 5 15 12 7 6 6 4 8
31 33 31 33 32 31 31 25 20 28 28 26 25 23 20 17 15 14 17 11 6 6 15 10 11 5 2 2 4 4 18 19 12 10 5 2 4 13 11 14 8 6 8 11 4 6 11
31 31 32 32 33 33 30 30 25 22 31 27 25 24 21 19 17 15 18 14 9 4 4 21 23 18 17 4 1 7 13 14 13 12 4 4 12 11 8 10 10 14 16 14 9 10 12
34 31 33 34 34 32 32 31 29 25 29 28 24 22 22 18 17 18 23 23 11 3 2 6 20 15 20 18 11 12 19 14 6 16 16 17 7 17 13 13 11 16 16 10 12 12 18
34 33 33 36 35 33 31 28 28 28 15 27 25 25 23 21 20 22 24 20 12 3 2 4 4 3 7 12 5 22 20 14 6 15 13 14 18 14 11 15 12 17 7 13 13 8 8
35 34 33 36 35 33 30 31 28 29 17 26 28 27 27 25 16 26 22 16 11 3 2 4 4 5 5 10 5 4 23 22 13 9 7 8 7 16 20 17 13 8 8 10 10 9 7
35 35 33 34 35 33 31 28 22 22 25 23 28 29 28 27 19 16 16 20 14 4 6 6 5 6 5 6 3 4 4 17 1 15 16 10 3 5 7 11 17 2 6 5 5 4 10
36 37 34 37 39 36 33 31 29 22 22 30 16 33 31 28 28 22 25 25 3 4 2 6 4 5 5 7 6 8 8 7 6 6 8 4 16 5 3 3 5 11 6 3 4 6 9
35 36 33 36 40 40 35 30 23 18 19 30 24 35 33 33 28 31 34 3 3 5 5 3 4 7 7 7 7 8 4 8 14 6 2 7 4 15 10 17 6 14 15 4 6 3 6
34 35 34 34 37 41 43 30 24 17 17 22 29 34 40 36 32 36 24 3 7 5 6 9 6 6 6 8 4 3 9 8 10 15 8 6 5 2 4 6 15 5 11 19 6 6 4
34 33 33 33 35 40 43 35 20 14 11 20 24 40 40 40 35 37 8 5 5 2 6 4 8 8 7 7 8 7 7 7 6 18 13 5 3 7 5 6 12 10 7 6 7 5 6
32 33 32 33 35 37 42 34 20 12 10 20 30 19 33 39 41 24 5 5 3 5 8 7 7 6 7 6 7 6 6 5 13 11 19 5 3 2 2 7 12 11 13 6 8 7 3
32 32 32 33 35 35 37 31 27 19 17 12 12 3 39 41 6 5 4 5 7 5 11 4 4 8 8 9 7 6 9 7 17 8 10 11 5 7 16 5 13 17 18 17 8 8 9
30 31 31 33 34 35 39 34 31 23 14 18 20 8 42 45 5 8 4 7 4 6 9 6 9 10 12 6 3 9 7 9 11 7 8 9 5 4 4 6 11 13 20 17 11 3 10
29 28 30 32 32 32 37 39 37 19 21 7 9 4 12 23 3 7 12 7 6 7 11 8 5 14 6 7 8 4 7 7 23 12 16 14 5 7 9 1 3 10 24 20 20 11 8
29 27 28 30 30 29 36 36 40 20 22 9 7 2 9 7 7 10 11 5 12 8 8 12 4 12 7 4 6 9 13 2 9 17 13 8 6 10 20 24 15 13 21 23 16 8 13
29 26 26 28 29 28 31 33 38 23 11 7 10 5 9 11 17 8 13 10 11 8 6 5 8 10 15 12 5 3 5 5 5 11 11 5 4 5 6 18 16 16 21 18 14 8 6
29 26 26 28 28 29 30 30 35 18 26 6 5 12 15 13 10 8 5 9 11 8 12 13 12 10 5 14 17 14 16 9 10 11 11 6 3 3 4 9 9 8 20 17 6 10 14
31 25 24 25 25 27 28 29 33 21 18 18 13 16 6 6 9 10 9 12 15 15 12 8 18 8 3 10 7 7 2 4 3 8 10 5 4 2 2 1 2 2 20 23 22 18 21
29 26 26 24 25 25 27 29 30 22 20 20 9 10 4 3 5 8 8 2 6 15 15 12 14 17 8 10 3 2 4 3 3 3 5 5 2 3 3 2 4 2 6 9 13 9 5
28 25 26 26 26 23 26 27 29 20 21 14 16 14 7 4 6 7 5 4 2 2 0 3 7 18 14 4 3 5 3 4 2 1 3 2 2 0 3 2 2 3 1 1 0 3 4
26 25 23 24 25 23 24 24 25 24 20 14 9 16 10 5 9 11 3 4 5 2 2 2 3 5 10 5 5 2 4 2 4 4 3 3 2 3 2 2 7 5 1 1 3 5 1
26 26 24 23 23 23 25 26 25 24 16 16 8 12 8 4 7 10 11 8 5 4 2 2 3 3 3 4 3 3 4 6 3 3 4 5 4 3 3 2 5 1 1 2 3 1 2
26 25 23 24 22 25 23 25 24 24 16 12 3 7 8 4 3 11 15 14 15 10 5 9 2 3 7 3 3 2 1 2 4 3 1 4 5 4 7 5 1 2 2 3 2 5 8

GFSGBSN_850_spd_015.txt.gz
Wind_Speed
22 22 25 23 18 19 16 22 21 21 22 21 20 20 19 17 15 14 11 9 8 7 6 6 8 11 13 11 14 3 4 3 8 21 20 13 7 2 3 3 6 5 3 10 16 19 22
26 27 26 26 26 23 18 19 23 22 22 24 21 21 20 17 16 14 13 11 9 7 6 5 7 10 11 4 10 12 9 9 7 12 15 16 7 11 6 5 4 4 7 10 10 15 17
27 27 28 29 28 25 24 20 22 21 23 22 23 22 21 15 17 15 14 11 9 7 6 6 7 10 11 18 7 14 18 12 8 5 5 6 15 7 2 4 10 6 6 6 7 8 7
26 27 29 28 28 29 26 21 18 16 23 23 26 23 22 19 17 15 15 13 10 8 6 6 6 7 8 3 16 14 16 19 15 13 8 6 5 8 7 9 4 3 2 2 3 10 8
29 29 29 30 28 29 29 27 25 21 16 25 26 26 23 21 17 15 14 12 11 8 7 6 6 7 9 6 9 19 17 11 12 15 13 10 7 6 4 3 6 5 7 4 5 7 5
30 33 31 30 32 31 30 29 29 25 22 16 26 27 24 23 18 14 15 13 11 9 8 7 7 5 10 4 4 7 22 16 7 9 8 8 7 4 3 6 9 4 4 3 5 4 3
31 32 33 31 32 33 32 31 30 29 24 21 27 28 26 24 20 15 19 16 5 5 17 11 8 6 2 4 5 4 13 18 11 5 5 3 5 9 12 10 7 5 5 5 4 7 6
31 31 32 32 32 35 34 32 29 30 28 23 24 28 27 25 23 22 22 19 9 3 4 29 14 21 7 6 2 6 13 13 8 6 5 1 11 7 5 6 9 11 13 16 7 9 9
30 30 33 32 32 33 33 31 30 29 27 30 19 32 29 28 25 25 26 26 8 4 2 7 23 21 18 16 8 10 16 13 5 8 7 12 4 9 10 10 10 10 12 10 13 9 13
30 31 34 34 33 34 36 31 29 27 28 25 24 24 31 30 29 29 25 22 18 3 3 5 6 5 11 11 6 25 20 10 5 11 11 12 16 15 10 13 10 19 9 13 12 5 6
31 32 35 35 32 35 35 37 27 29 26 18 24 14 31 39 28 31 25 19 15 5 2 3 4 5 7 11 4 5 21 17 12 9 6 6 5 13 19 15 12 10 7 10 10 7 7
34 33 34 35 32 33 37 37 34 30 24 26 28 16 26 39 29 26 23 22 15 5 6 6 5 6 5 5 1 3 8 16 3 8 14 10 5 6 7 11 16 1 9 7 7 8 14
34 35 32 33 32 32 38 39 42 30 26 20 18 20 29 37 34 27 29 30 4 4 1 6 6 6 5 6 5 6 5 10 5 6 8 4 15 3 4 5 9 12 5 3 4 7 8
31 32 33 32 31 33 34 41 44 26 17 12 16 25 14 41 32 36 43 4 4 5 5 2 5 5 5 8 5 9 6 10 13 6 2 8 6 14 8 8 6 16 15 5 6 4 4
31 30 31 32 31 32 35 39 42 31 12 10 18 15 18 34 33 45 32 3 8 6 6 10 7 5 7 7 4 7 11 11 8 16 10 3 5 3 7 15 6 5 11 19 8 8 4
33 30 29 31 31 30 32 36 37 28 12 9 5 10 16 39 39 45 9 5 4 3 6 6 7 9 7 8 9 8 6 4 7 11 10 5 4 6 8 5 10 17 7 4 6 5 7
33 31 28 29 31 30 31 34 39 32 23 13 7 3 17 36 46 27 5 5 4 6 8 6 6 7 7 5 8 7 5 5 9 9 16 6 5 2 3 11 14 7 13 7 4 5 4
31 31 27 29 30 29 29 32 36 35 24 7 8 2 33 47 8 5 5 6 6 5 4 2 2 8 8 8 7 6 9 7 15 10 11 11 4 6 14 3 14 13 14 17 4 5 7
31 30 27 26 29 29 27 31 33 37 18 20 10 7 43 43 5 6 5 3 4 4 6 5 7 9 10 8 4 8 5 8 18 13 12 9 4 5 3 6 12 8 11 17 16 3 9
31 30 26 25 27 29 28 29 31 37 21 15 9 2 13 23 6 11 7 6 6 8 5 10 4 10 7 7 7 3 5 4 18 12 14 13 5 8 9 3 3 7 16 21 19 10 14
30 29 26 23 25 26 27 30 31 35 22 4 6 4 8 7 4 12 8 7 10 6 8 11 5 9 6 6 6 9 8 10 4 11 10 8 7 10 17 18 14 6 15 22 24 24 15
30 29 26 23 21 25 25 26 28 33 17 3 6 5 8 12 12 12 13 8 12 11 7 6 9 7 14 8 7 4 4 4 4 5 9 4 4 3 15 23 26 15 17 19 23 20 22
28 27 25 24 23 25 25 26 28 32 22 7 9 4 8 15 13 9 8 8 13 7 11 13 10 11 10 13 23 29 17 14 7 9 10 5 3 3 5 3 7 6 21 23 22 19 17
29 26 24 22 23 23 21 24 25 27 13 19 15 7 4 6 11 14 9 10 6 8 7 6 14 8 2 7 10 11 16 13 8 10 11 7 4 4 3 3 1 5 5 15 18 13 11
28 26 25 22 23 22 23 25 26 27 17 20 9 4 2 4 9 11 11 5 11 18 16 14 13 17 10 6 2 4 1 3 6 7 13 8 3 4 3 3 3 6 8 9 9 10 14
27 25 25 23 23 20 22 24 24 27 21 21 2 9 6 4 7 9 11 6 3 3 1 6 7 15 10 2 3 4 4 3 4 4 5 4 5 2 3 3 4 2 7 16 10 4 20
27 25 23 23 22 21 21 22 24 26 22 21 10 4 1 4 4 14 3 5 6 3 1 1 1 3 16 6 4 4 3 0 3 3 2 2 2 2 2 2 6 3 2 14 6 5 4
26 24 22 22 21 22 21 21 22 24 21 23 7 15 4 3 8 12 10 9 6 6 3 4 2 4 3 5 4 3 4 5 2 2 4 5 3 3 2 1 3 2 1 4 2 1 4
25 24 21 21 22 22 21 21 21 22 21 18 9 10 9 3 4 13 13 15 15 9 7 9 3 2 4 2 2 2 3 2 3 2 1 3 4 3 6 5 3 4 2 3 3 2 3

GFSGBSN_850_spd_018.txt.gz
Wind_Speed
25 25 26 26 26 27 26 26 20 19 19 22 22 25 23 19 19 16 14 11 9 7 6 6 8 9 12 11 14 2 3 5 10 24 18 10 7 5 4 3 0 4 3 6 8 12 15
27 26 27 28 29 26 27 29 28 28 17 17 24 23 23 21 19 16 14 12 10 8 7 6 8 8 12 5 11 17 6 4 6 19 19 15 6 7 3 4 4 2 3 7 8 10 11
27 29 30 28 28 29 29 29 26 24 23 18 19 22 25 23 20 16 14 13 10 7 7 7 7 9 12 20 8 9 14 11 11 11 9 11 11 5 2 3 5 4 4 6 8 10 7
27 29 31 32 32 28 32 30 30 27 26 19 20 23 25 22 20 15 14 15 10 9 7 7 7 7 9 7 14 11 20 14 11 10 5 2 3 8 4 5 4 3 2 3 5 4 7
28 30 32 33 32 31 31 33 31 31 27 26 21 18 25 24 23 19 14 12 12 10 8 7 7 7 8 7 9 15 13 13 19 12 9 3 4 4 4 2 3 5 5 5 6 3 4
29 30 31 32 33 33 34 33 31 30 29 28 25 23 26 26 24 21 12 13 12 11 11 7 10 6 9 3 3 7 17 10 8 11 8 7 6 3 3 4 6 4 4 4 5 3 5
26 29 30 35 35 35 33 32 31 31 28 25 25 27 22 27 25 24 20 18 9 5 17 10 8 4 1 5 5 4 9 17 8 7 5 3 4 8 10 8 6 2 3 7 4 8 9
28 30 31 31 31 35 33 34 34 32 27 25 26 25 19 29 28 29 26 23 17 3 3 30 14 13 5 6 3 4 9 12 7 5 4 1 10 7 3 5 7 8 10 13 9 10 11
31 34 33 33 34 35 34 33 34 34 28 25 26 20 23 32 23 34 32 28 17 7 0 5 27 17 15 9 4 10 15 9 4 6 7 11 3 7 9 5 5 6 10 7 11 7 12
32 33 34 34 34 36 33 33 33 35 30 29 28 22 26 29 25 38 32 26 18 7 4 4 5 6 17 12 6 21 19 10 3 10 11 9 12 9 5 5 8 14 7 12 11 5 6
32 33 34 34 34 34 32 32 35 35 33 30 24 22 27 16 17 45 35 31 20 7 2 3 5 6 10 17 4 2 18 12 8 8 6 5 5 6 15 18 7 6 6 9 10 7 8
32 32 32 32 35 34 33 33 36 36 46 29 21 21 30 21 23 44 36 32 22 5 6 6 4 6 8 8 3 4 11 10 2 9 12 12 5 4 5 6 12 1 6 6 5 8 10
34 33 33 31 32 33 33 34 34 44 38 22 16 14 22 14 23 41 37 33 5 4 1 6 5 6 6 6 5 5 5 10 6 4 5 2 12 3 2 4 6 10 3 3 5 6 8
36 34 33 32 30 32 32 32 31 41 37 17 9 9 16 24 34 43 49 5 4 6 5 5 6 8 6 8 4 7 4 8 10 4 1 4 5 12 12 13 7 12 11 5 4 4 4
34 35 34 32 29 30 32 31 32 39 37 18 9 7 4 15 46 48 33 3 7 6 6 10 12 6 6 5 4 7 9 8 8 14 7 5 6 1 8 5 7 5 11 14 7 7 4
34 34 33 32 28 28 30 29 33 36 39 18 10 4 7 12 46 38 10 7 4 3 6 6 5 5 6 8 8 8 6 4 7 11 7 2 5 4 3 5 11 9 3 3 5 4 5
33 34 33 31 28 28 29 27 31 34 39 18 6 5 4 19 40 20 5 4 4 6 8 4 4 4 3 5 7 6 4 4 7 5 15 4 4 2 4 8 9 6 8 7 1 4 4
34 32 32 30 27 26 29 26 30 31 35 23 1 1 7 39 7 4 4 5 5 5 2 2 3 2 7 8 7 4 7 6 10 10 10 10 3 6 12 4 13 13 11 19 8 6 5
34 33 31 29 27 25 26 27 30 31 28 21 4 1 8 46 4 4 4 4 3 4 4 3 3 4 4 6 4 8 5 6 14 11 11 10 5 4 5 2 8 9 16 19 19 1 13
35 32 30 29 28 26 25 25 28 32 26 14 3 3 8 22 2 7 9 5 3 4 4 2 2 4 4 7 6 2 4 4 19 13 13 16 4 9 11 11 3 6 12 13 14 10 18
33 31 30 28 26 27 27 24 30 34 27 4 2 2 4 4 2 9 8 7 6 4 3 6 4 7 5 5 5 7 8 9 5 13 9 7 8 11 21 23 16 13 14 18 21 20 11
31 31 28 27 25 26 27 23 29 33 26 3 1 3 6 7 11 10 7 6 13 6 7 4 8 6 9 5 7 4 5 6 4 3 8 5 8 6 19 19 20 19 17 18 22 23 26
30 29 27 27 25 25 24 23 25 29 24 8 13 10 6 13 8 9 8 4 7 7 6 7 12 11 9 11 20 23 16 14 7 4 9 4 3 3 10 6 7 5 20 19 19 20 17
29 28 26 26 25 25 22 21 24 25 23 15 18 11 2 4 9 11 8 11 6 10 6 2 14 4 4 6 8 9 18 18 13 13 17 6 3 3 6 5 3 5 6 18 17 12 19
29 27 25 25 24 24 25 23 23 26 25 21 16 7 1 3 8 11 8 8 9 6 4 11 13 12 9 4 3 3 3 3 7 11 12 14 4 4 3 6 5 4 3 3 9 11 14
30 27 25 23 23 22 25 21 22 25 24 20 0 6 4 3 7 13 9 6 3 3 1 5 8 10 14 2 2 3 3 2 3 4 2 4 4 4 3 4 4 3 2 6 4 4 13
27 26 25 22 21 21 23 20 20 23 24 20 4 2 3 1 12 15 6 9 8 4 2 1 3 3 11 3 2 3 3 2 3 2 3 3 3 6 3 3 6 3 3 10 3 4 8
27 23 23 22 22 21 22 21 20 21 25 19 2 2 1 2 11 10 9 9 7 6 3 3 2 3 2 4 4 3 2 4 2 3 4 5 4 3 1 2 3 2 4 2 3 6 4
26 24 22 22 21 23 22 22 19 19 22 20 10 2 5 2 2 10 12 10 12 6 10 9 1 3 4 3 4 2 3 2 3 3 2 3 5 3 6 5 3 2 5 7 7 4 4

GFSGBSN_850_spd_021.txt.gz
Wind_Speed
25 26 27 27 28 25 28 28 27 26 23 24 15 19 21 21 22 17 17 15 10 9 7 6 6 7 11 10 11 5 2 5 10 22 17 11 7 6 3 2 3 3 2 5 6 8 10
26 26 28 28 27 28 27 27 28 29 28 22 23 18 23 20 20 20 14 16 11 10 8 7 6 7 9 6 10 17 7 3 7 20 19 13 7 7 3 2 3 3 3 7 10 13 12
26 27 28 28 28 29 28 29 30 30 28 28 22 22 16 22 21 21 14 14 11 11 8 8 7 8 10 16 8 5 14 6 8 14 18 16 11 9 7 1 4 5 5 7 9 11 8
26 27 28 28 30 30 29 31 31 29 27 28 26 22 19 22 21 21 17 10 11 12 9 7 6 7 7 5 11 13 15 12 11 12 9 8 8 6 3 1 2 2 3 3 3 1 7
26 26 29 29 29 30 31 32 32 31 28 28 25 24 22 17 22 21 19 13 12 13 10 9 7 7 6 4 8 10 15 16 13 11 8 7 8 5 4 2 2 3 4 5 5 4 3
25 27 30 29 32 31 32 34 32 31 31 27 26 24 21 23 20 22 24 16 15 14 11 7 8 4 8 2 5 8 14 13 13 12 8 7 5 4 4 5 5 4 4 4 5 1 4
28 31 30 30 31 32 31 35 33 30 30 29 24 23 23 24 19 22 30 25 13 6 16 10 7 2 2 7 8 6 18 14 11 11 5 4 5 9 12 8 7 1 3 6 3 6 10
30 30 31 33 32 32 32 33 32 30 31 30 25 25 23 23 21 13 39 34 31 12 7 30 13 14 4 7 6 8 16 12 8 4 6 3 9 11 1 8 9 12 13 15 10 5 7
29 30 32 34 32 33 33 33 31 31 30 31 27 30 27 21 23 25 39 35 30 21 5 4 28 12 14 8 2 12 20 10 4 6 6 5 2 4 10 6 9 10 11 12 16 7 12
30 32 32 34 34 31 32 34 33 32 34 34 32 31 24 16 22 23 37 31 27 18 4 4 5 7 17 10 4 14 19 9 2 10 7 10 13 3 4 6 8 15 8 13 13 7 7
31 32 33 33 33 31 30 32 33 33 32 35 42 27 18 16 17 14 31 30 26 16 2 3 5 7 10 11 8 6 20 9 7 6 5 4 5 5 12 11 9 7 5 7 8 9 12
30 32 33 34 33 32 30 31 34 33 34 44 30 17 13 14 20 21 39 35 27 5 6 6 6 7 8 10 5 5 8 6 3 4 7 7 5 5 8 7 14 4 3 8 4 7 9
32 33 33 33 32 31 29 32 33 32 36 35 30 12 11 15 20 18 45 30 4 4 2 7 6 7 9 7 6 5 7 9 5 4 6 4 15 6 4 4 2 11 3 3 4 6 7
33 32 32 33 31 30 28 31 32 31 35 35 29 13 11 10 25 22 44 5 4 5 4 6 6 9 5 7 5 7 7 6 11 3 1 4 5 11 10 15 6 16 10 5 5 5 4
33 33 34 32 31 30 29 30 30 33 35 37 25 6 5 2 20 35 27 3 6 5 7 10 11 5 4 4 3 6 7 4 8 12 6 3 4 2 4 4 8 5 10 9 7 11 8
30 33 34 32 31 29 28 31 27 33 36 36 20 3 4 1 10 35 4 5 2 3 13 9 5 4 9 10 6 8 7 4 6 9 7 3 4 4 0 5 9 6 3 4 5 4 8
32 34 33 32 30 30 29 27 28 33 38 34 6 2 8 10 24 11 1 3 5 6 12 4 4 5 5 6 8 7 4 4 4 4 10 5 5 2 5 11 12 7 6 6 2 5 4
34 33 32 31 30 28 30 30 27 32 38 31 11 2 8 23 3 0 2 6 4 4 3 3 3 5 5 6 5 5 6 5 10 9 9 9 4 5 11 9 16 18 16 19 9 12 5
32 31 31 30 29 29 29 31 24 32 33 30 12 3 10 26 4 2 2 4 4 3 2 2 3 2 4 5 4 6 4 5 17 9 10 9 4 4 6 1 7 10 17 22 12 8 11
31 31 30 29 30 28 28 29 25 32 36 17 3 1 5 6 0 5 5 3 4 4 3 3 3 4 3 3 4 3 4 3 17 11 11 15 5 7 10 14 5 8 15 17 18 8 15
30 30 29 28 29 28 28 28 25 30 34 4 1 2 4 2 1 4 4 4 5 3 3 3 2 2 4 4 5 5 6 2 5 12 8 8 6 10 19 24 23 23 24 17 21 24 12
31 30 28 27 28 28 29 26 23 26 35 11 7 3 3 4 9 6 5 4 6 3 4 2 3 6 5 4 6 4 4 5 6 4 7 4 5 5 23 21 19 21 22 21 21 21 22
30 30 29 26 26 25 27 26 24 24 33 10 16 10 2 12 5 6 5 6 8 5 6 2 7 4 7 9 11 16 15 8 5 4 10 5 2 3 17 12 17 8 7 11 14 19 15
29 28 27 26 26 24 24 26 23 20 27 21 18 12 4 3 6 7 9 4 5 8 2 1 6 5 2 4 8 14 14 16 13 12 14 7 3 3 9 9 4 3 7 8 15 13 17
28 26 25 25 25 24 24 27 24 22 26 23 21 7 4 2 5 10 7 7 3 3 4 5 3 5 9 5 3 3 3 3 7 9 12 14 7 4 4 6 7 3 8 2 4 6 18
27 26 23 23 23 23 24 25 24 20 25 25 11 3 5 1 8 11 6 9 4 5 2 4 11 10 11 2 2 2 3 4 3 1 6 5 9 2 3 4 4 4 4 2 4 3 7
25 25 23 21 22 21 22 23 24 17 22 26 11 12 4 3 3 18 9 6 6 5 2 2 1 3 9 3 2 3 4 2 3 1 3 4 3 6 6 3 7 4 6 4 4 5 5
23 23 22 20 20 21 20 22 23 15 20 24 16 7 8 6 4 6 13 9 9 9 3 4 2 2 2 2 2 3 4 4 1 4 4 6 4 3 2 2 6 2 1 1 3 8 6
23 22 21 21 20 20 18 20 19 15 16 21 22 9 0 3 2 9 9 10 14 13 13 13 2 3 6 3 3 2 3 2 3 3 1 3 5 3 7 5 4 4 7 10 10 12 5

GFSGBSN_850_spd_024.txt.gz
Wind_Speed
21 23 23 25 24 25 25 26 26 28 28 26 25 23 19 15 20 20 22 15 14 14 12 9 7 8 14 10 11 5 4 6 13 21 17 14 11 8 8 5 7 12 9 8 10 10 13
21 22 24 24 24 26 25 25 27 29 28 24 24 25 20 18 17 21 21 19 13 13 12 9 7 8 10 12 11 18 6 2 7 19 17 15 9 7 4 5 9 2 6 10 10 14 14
23 22 23 25 25 26 26 27 27 27 27 25 22 25 22 16 17 20 20 21 13 13 12 10 8 9 9 10 7 9 13 8 7 16 20 14 12 7 7 5 5 6 10 12 15 15 14
22 22 25 26 26 27 26 27 28 29 27 26 27 23 21 24 18 17 22 25 17 13 13 9 8 7 7 6 13 10 13 11 9 10 13 15 11 9 2 3 2 4 5 5 4 3 6
25 25 26 26 28 26 27 27 27 30 29 29 25 22 21 18 20 14 22 28 20 15 14 11 10 7 4 5 9 12 16 13 14 13 12 12 11 6 5 5 5 8 8 9 10 8 7
25 27 27 27 28 28 29 28 26 29 29 28 26 22 20 19 21 20 18 24 21 19 15 15 8 4 7 4 7 14 19 18 13 14 11 7 4 6 7 8 8 6 10 10 11 2 8
27 27 28 29 29 32 31 29 27 28 28 24 24 23 22 21 22 24 13 18 19 10 19 7 9 3 5 8 10 13 19 15 13 13 8 6 5 11 15 14 13 5 8 11 10 9 17
28 29 30 33 31 31 31 28 28 29 28 26 26 27 27 25 25 21 22 17 30 14 10 17 8 7 6 9 5 11 20 12 14 13 9 5 12 13 8 12 13 13 15 17 16 14 13
30 31 31 32 33 32 30 30 27 28 29 28 28 29 26 34 22 23 27 21 31 24 6 9 17 9 8 9 6 16 20 10 12 12 16 9 2 5 13 14 13 16 17 15 17 17 19
30 33 32 32 34 32 31 29 27 28 30 26 30 31 39 21 20 19 21 23 30 10 3 9 12 13 13 7 5 12 20 9 5 12 11 9 12 6 9 12 13 15 12 14 13 11 6
31 31 33 34 33 33 31 29 27 29 29 27 31 34 30 11 8 12 16 18 28 13 7 12 8 10 14 14 12 8 16 5 9 9 7 5 7 12 15 12 12 7 5 7 9 12 13
32 34 33 34 34 31 30 28 27 30 28 30 34 38 22 11 16 13 11 28 24 5 6 7 8 13 15 17 7 8 11 4 5 7 9 10 2 5 8 10 13 3 6 10 10 8 9
32 31 32 35 32 31 29 27 26 30 27 30 39 42 14 12 12 17 17 28 5 4 7 8 9 11 15 10 9 10 12 10 7 5 8 7 16 7 7 6 6 12 4 3 4 6 8
30 32 34 33 31 30 29 28 30 27 29 33 35 32 8 10 14 14 15 3 4 7 7 6 12 17 8 18 8 9 12 10 12 4 2 5 4 13 11 14 4 15 13 6 6 6 7
35 34 33 31 31 30 28 29 27 27 32 42 38 6 3 8 12 20 22 3 1 6 12 13 12 8 5 11 5 8 10 6 9 12 6 5 4 3 10 8 12 6 10 14 15 22 14
34 32 32 31 30 29 28 29 29 26 31 37 28 4 3 6 10 21 6 4 0 5 18 16 6 7 8 13 8 10 12 7 9 14 13 2 4 5 4 7 13 13 1 5 6 6 12
31 30 31 30 30 30 29 31 29 27 33 33 20 3 3 11 16 15 3 2 5 14 12 3 6 9 8 12 9 11 8 2 10 10 17 7 4 3 3 13 13 9 7 7 8 10 8
30 31 30 30 30 31 29 31 29 27 34 38 11 2 10 33 5 2 3 2 7 8 5 3 6 9 13 13 11 9 9 5 9 12 10 13 4 9 15 10 12 17 13 20 9 11 8
30 31 30 29 30 31 30 31 28 30 36 31 8 3 8 4 3 3 2 3 6 4 2 2 4 3 4 8 6 7 5 2 12 12 11 12 6 4 4 3 7 9 16 23 19 12 19
31 30 29 29 28 28 29 31 27 30 33 9 2 2 5 2 3 9 11 6 5 4 4 6 6 6 6 5 2 6 6 3 11 13 8 15 5 7 9 13 4 9 17 17 18 11 21
28 30 29 29 27 27 28 33 26 29 29 9 5 3 2 2 6 8 6 3 9 4 3 3 3 3 4 4 5 4 7 3 5 11 9 9 5 11 20 23 22 23 28 25 19 25 15
28 27 28 26 26 26 26 30 25 25 34 17 8 5 8 2 9 9 4 5 5 4 3 3 2 6 5 3 4 5 4 6 6 10 11 7 5 5 16 21 20 22 21 20 19 18 23
24 26 24 24 25 24 25 28 25 23 33 12 19 10 2 5 4 7 5 6 7 4 1 3 2 3 5 5 8 9 11 10 4 5 11 5 3 3 7 12 24 8 5 9 9 7 11
24 26 24 22 23 24 23 25 25 20 23 23 18 10 4 3 5 7 7 6 7 7 3 4 3 2 3 0 4 10 14 16 15 15 14 6 4 3 8 14 4 4 9 9 10 14 11
23 23 23 21 21 21 22 23 23 19 18 21 14 2 4 1 8 9 5 8 7 6 2 2 2 3 3 4 2 3 3 3 8 14 16 16 11 3 4 4 11 5 8 4 3 6 10
20 21 21 21 20 20 19 20 21 18 19 17 7 9 6 3 7 6 9 12 7 6 4 4 6 9 7 2 1 2 2 1 1 3 3 7 10 5 2 4 4 3 5 4 2 6 15
19 20 21 20 20 20 19 19 21 17 17 17 11 8 5 5 4 14 12 11 6 5 2 1 2 3 8 3 3 3 3 1 2 3 4 3 3 8 5 4 8 5 6 3 4 7 15
18 19 19 19 18 17 17 18 19 16 15 16 11 9 11 6 4 8 10 5 6 7 4 4 1 3 3 3 2 2 2 2 3 2 4 7 6 4 4 4 5 0 4 3 3 9 7
18 17 19 20 20 19 18 19 17 16 15 14 12 11 10 8 3 3 8 10 13 14 10 12 2 2 3 2 3 2 3 2 2 3 3 4 4 1 5 4 2 4 9 8 8 8 4

GFSGBSN_850_spd_027.txt.gz
Wind_Speed
21 20 20 22 23 22 24 24 24 25 27 26 25 24 22 23 22 16 18 17 20 15 12 13 11 8 13 11 14 5 5 9 16 18 18 16 17 17 12 10 10 13 17 15 16 17 16
21 22 22 24 26 24 24 24 24 25 25 28 24 25 24 23 21 18 16 17 22 17 13 12 11 10 12 14 10 11 7 4 10 19 19 16 9 12 8 8 10 2 13 15 16 18 18
20 23 24 25 26 24 26 25 26 26 26 27 26 24 26 23 21 18 15 19 20 21 13 13 11 9 11 15 4 9 18 6 8 18 18 16 8 7 6 7 10 9 14 14 19 21 15
24 24 25 27 26 26 29 27 28 26 26 28 27 30 25 23 20 19 16 18 16 21 15 13 11 8 8 10 14 8 7 9 5 11 16 12 12 5 4 3 5 6 11 11 3 9 14
24 26 25 28 29 31 30 28 32 27 26 25 27 26 23 22 18 18 24 15 21 25 18 15 11 9 6 9 10 13 10 12 9 9 11 15 10 4 2 6 7 11 10 14 10 10 8
26 27 28 29 30 31 31 30 29 27 27 25 25 23 21 21 19 19 21 22 24 25 20 17 7 6 11 8 9 11 13 13 12 16 14 9 4 3 8 9 8 9 15 12 12 4 7
27 29 31 32 31 33 33 31 31 28 26 25 25 23 21 25 22 21 20 21 13 14 29 10 17 3 9 9 9 13 16 16 15 15 7 10 7 11 16 16 15 9 8 11 10 9 16
30 29 31 33 34 33 32 30 30 28 25 24 24 24 24 26 30 22 19 14 14 3 7 14 13 10 9 12 9 17 19 12 12 13 10 5 12 15 10 11 12 13 14 15 14 14 13
29 29 32 33 32 33 32 30 29 27 23 24 26 24 26 30 26 34 23 26 18 12 5 16 17 17 11 10 9 22 23 16 13 15 15 9 3 8 14 12 12 13 13 12 14 17 18
28 31 31 31 33 32 30 30 28 25 23 27 23 27 27 30 22 14 19 18 25 9 4 11 11 9 11 9 6 17 21 11 7 14 12 10 7 5 10 13 12 13 10 13 14 9 6
30 28 32 34 34 32 30 29 27 25 28 24 24 25 31 26 20 10 2 19 23 14 6 17 12 10 19 12 19 13 19 7 10 10 7 4 7 12 11 12 9 7 2 6 8 10 13
29 32 35 34 33 31 29 28 26 28 25 25 26 34 30 22 12 9 8 14 10 4 4 7 8 14 16 15 8 15 19 5 4 7 11 10 4 5 8 9 12 3 5 7 9 6 8
30 33 33 32 32 30 29 27 28 27 24 26 34 38 29 12 6 14 18 23 4 5 11 9 9 14 17 13 11 13 14 11 8 5 8 10 15 7 10 8 6 9 2 2 3 5 7
29 32 31 32 30 29 29 27 29 28 23 30 37 26 2 7 10 15 14 4 9 7 7 8 14 17 10 17 10 14 14 12 15 11 2 8 6 17 12 13 6 14 10 5 5 7 10
27 31 31 31 29 30 30 29 30 27 26 33 35 8 4 9 12 16 13 3 1 13 10 12 17 11 5 17 6 11 13 11 13 14 7 6 4 3 10 8 12 6 9 11 13 18 11
27 31 31 30 29 30 30 30 29 27 28 34 25 7 2 7 13 16 2 2 1 9 15 18 6 6 8 17 10 13 12 13 10 16 12 0 3 5 7 4 10 10 4 1 4 5 10
27 31 30 30 29 29 30 32 28 30 34 24 7 3 5 11 18 5 1 3 10 23 9 2 10 9 9 15 10 15 16 5 17 14 14 7 4 6 3 11 13 10 6 6 6 5 6
27 30 28 28 29 29 29 33 29 33 36 19 7 2 9 14 3 2 2 2 13 7 4 4 8 6 16 17 11 12 9 2 10 10 11 10 3 6 11 8 7 12 13 17 7 9 7
26 28 28 27 29 29 29 33 30 34 28 11 4 4 7 5 2 1 3 3 6 3 3 3 5 3 6 13 6 6 8 4 11 12 10 11 5 3 2 0 11 10 15 18 18 16 20
25 27 27 26 27 28 28 31 30 34 23 10 3 2 5 5 1 11 6 4 5 6 9 10 9 10 9 13 3 8 6 4 10 12 6 11 5 7 6 8 5 6 14 16 14 9 18
23 24 26 23 25 25 25 30 28 30 24 7 9 4 3 2 2 7 6 4 2 3 4 4 4 3 3 4 4 4 5 7 6 8 6 5 3 7 16 22 20 19 22 23 20 21 16
22 23 25 22 23 25 24 27 26 27 20 22 5 4 8 2 8 8 5 7 7 4 1 3 5 5 3 4 2 5 6 6 5 9 10 4 3 4 15 20 17 15 21 19 18 20 18
20 21 21 22 22 23 23 25 24 23 24 12 13 8 2 0 7 5 4 6 5 5 4 7 5 4 3 4 3 1 3 6 5 7 11 4 2 2 6 10 19 9 3 8 11 14 9
20 20 20 20 19 21 22 21 23 17 19 13 9 4 4 3 5 5 4 3 8 2 5 5 3 1 6 4 3 3 8 10 11 11 10 5 6 3 6 11 3 3 6 8 10 15 15
18 19 20 19 21 22 20 20 21 17 17 13 12 5 3 3 6 6 4 4 6 4 2 2 4 4 3 3 2 3 3 3 9 16 14 11 7 3 3 7 16 7 7 3 2 6 15
17 18 19 18 17 18 18 18 20 17 14 10 9 6 2 3 3 3 8 6 4 4 4 3 3 2 1 2 2 2 2 2 4 6 1 6 9 4 3 4 4 5 5 2 3 3 12
17 17 18 19 20 19 17 18 19 17 14 10 5 7 1 3 4 4 7 5 5 5 1 2 1 1 3 3 3 3 3 2 3 3 5 4 2 6 7 4 9 7 7 1 3 6 11
16 16 18 19 19 20 20 19 18 16 16 13 6 6 9 3 8 2 5 4 6 7 3 4 2 1 2 3 3 2 2 2 3 3 3 7 6 4 4 5 5 5 7 5 5 11 7
15 16 17 18 18 18 19 19 19 16 16 14 7 7 9 5 5 4 7 9 9 5 4 6 1 1 3 0 2 2 2 3 4 2 2 4 6 2 5 3 10 11 10 10 6 10 10

GFSGBSN_850_spd_030.txt.gz
Wind_Speed
20 21 24 24 24 24 22 24 25 26 26 26 26 26 25 23 22 22 20 17 18 17 18 12 10 8 12 10 11 6 3 14 18 19 17 15 18 14 12 11 16 11 16 17 16 19 11
22 25 25 26 26 25 26 27 27 27 29 28 27 28 27 24 23 21 19 18 16 17 21 15 11 11 16 14 10 4 5 5 10 16 19 18 14 18 14 17 8 7 10 14 22 10 13
24 25 26 28 27 28 29 32 31 29 29 29 28 27 27 27 25 22 18 20 14 19 23 16 13 14 13 17 8 9 11 8 7 15 21 19 12 6 1 3 9 5 7 10 14 13 10
26 27 26 30 31 30 31 33 30 31 29 28 27 28 28 25 22 20 16 18 18 12 15 17 14 13 9 12 18 11 7 9 6 13 20 17 11 7 5 3 0 4 9 10 10 18 17
24 28 29 30 32 33 32 32 31 30 29 27 26 25 24 23 20 20 18 20 24 22 18 18 16 13 8 11 18 18 9 14 6 9 14 11 10 4 4 3 3 8 7 11 10 5 4
26 27 30 31 31 32 35 34 31 30 29 27 25 23 24 21 21 21 20 22 22 17 20 18 10 10 12 11 13 15 16 13 11 11 12 7 4 4 3 5 6 7 11 9 9 5 4
28 28 29 30 31 31 32 31 30 29 27 26 22 21 23 24 20 23 24 19 6 7 26 8 12 2 19 17 15 17 17 16 13 13 5 11 4 8 12 11 10 12 10 8 10 9 9
27 30 29 30 33 34 33 32 30 29 27 23 22 23 21 22 21 25 15 8 11 2 8 23 18 6 16 18 13 18 20 11 10 9 6 3 6 8 12 12 8 6 7 10 9 8 7
28 29 31 34 35 33 32 31 29 27 25 22 25 22 20 24 27 25 22 22 15 14 7 21 21 15 17 12 11 22 23 11 9 8 8 7 2 8 10 5 6 7 7 7 9 11 11
29 29 33 34 33 32 31 30 28 26 26 26 22 21 23 28 23 20 10 11 22 23 3 13 15 12 13 9 7 21 22 10 5 11 10 5 6 3 5 9 7 5 3 6 8 7 3
30 30 33 32 33 31 30 29 28 28 26 24 22 23 28 26 27 18 7 8 10 6 4 14 8 18 16 10 21 16 21 8 8 10 6 3 4 6 4 5 5 3 7 4 5 6 8
30 29 32 32 32 30 30 30 29 28 28 22 23 30 34 30 15 9 8 13 20 4 1 5 8 11 13 17 5 18 13 5 2 3 7 5 4 1 5 4 4 5 1 2 4 2 5
29 28 32 32 32 30 31 31 30 29 24 23 29 36 25 13 4 10 22 20 5 6 5 7 10 13 15 13 10 15 10 6 5 5 3 3 7 4 4 5 5 7 2 2 2 2 6
27 29 32 31 31 31 31 31 33 28 26 28 35 26 6 2 7 15 21 3 2 5 2 6 15 14 10 14 9 12 12 8 10 7 5 5 4 15 8 7 4 8 4 3 5 3 3
27 30 33 29 29 30 30 31 34 28 31 30 25 8 8 9 15 20 6 3 2 8 9 11 19 13 6 11 7 10 10 7 10 10 4 5 3 5 11 5 6 4 5 1 5 5 2
28 29 32 30 29 30 29 31 33 32 36 26 10 7 10 8 12 14 2 1 3 7 14 17 5 6 7 14 8 8 12 11 10 13 8 4 3 3 6 5 7 8 1 2 0 3 6
28 28 28 27 30 31 30 31 31 35 35 13 10 4 7 8 11 3 1 3 5 17 15 1 10 7 9 16 6 9 11 4 14 14 12 4 1 4 5 8 9 7 4 4 3 3 4
26 27 28 29 30 31 29 32 31 34 26 12 9 3 8 10 3 2 3 4 9 8 6 6 6 7 9 15 7 9 9 4 19 10 10 4 2 3 9 8 12 12 7 10 3 5 5
26 26 28 26 28 31 29 32 30 31 19 8 4 5 3 3 2 1 5 6 4 3 4 3 4 5 14 11 6 6 9 5 2 6 10 8 3 2 1 4 8 5 7 11 13 9 17
25 25 25 26 26 29 29 33 28 28 13 8 3 2 4 4 1 4 4 5 3 11 11 8 8 7 13 7 3 7 7 2 5 3 7 14 4 4 3 2 4 4 4 9 7 7 13
23 24 24 24 25 27 27 30 28 28 17 4 6 3 3 1 2 5 3 2 2 4 4 3 2 6 9 5 6 6 10 7 5 4 3 1 3 3 7 13 10 12 16 17 17 19 14
22 22 23 23 22 24 25 27 27 27 15 19 3 2 5 3 2 7 6 4 3 6 7 5 9 6 3 6 6 7 7 8 5 7 6 3 2 2 6 14 14 16 16 16 16 18 17
20 20 22 22 23 24 24 24 26 22 22 9 9 7 3 4 4 2 2 3 4 3 8 9 6 6 9 8 6 5 5 5 3 5 7 5 3 1 4 7 9 6 6 6 7 11 9
18 19 20 20 21 21 21 22 23 20 18 13 10 4 3 1 3 3 4 2 5 6 7 5 6 4 2 2 1 2 2 4 5 5 3 5 5 2 4 7 2 4 6 8 8 11 11
18 19 18 19 21 20 18 19 20 20 14 10 13 5 3 3 3 2 2 4 9 5 7 8 6 5 3 2 1 3 3 3 7 6 9 7 4 2 2 2 8 4 2 2 3 5 5
17 17 17 18 20 20 19 18 16 17 14 7 7 9 3 4 2 10 2 1 2 3 3 6 4 1 1 1 1 1 1 3 4 3 3 7 11 2 2 3 3 2 2 3 7 3 4
19 17 17 17 18 18 18 18 17 15 15 12 5 12 4 4 4 5 2 2 4 2 3 4 2 1 1 1 1 2 1 2 2 4 5 3 3 7 7 3 6 6 3 6 1 4 8
19 19 17 17 17 17 16 16 17 16 14 13 6 10 8 5 11 4 3 4 4 3 1 5 3 1 1 1 2 0 1 3 2 1 5 6 6 4 3 4 5 2 5 1 3 8 10
19 19 19 17 17 17 16 14 16 15 12 11 7 9 11 7 7 10 8 5 3 2 6 5 2 2 5 3 1 2 2 3 4 2 3 2 4 4 7 5 6 6 3 3 6 9 9

GFSGBSN_850_spd_033.txt.gz
Wind_Speed
24 25 24 25 27 27 27 28 29 30 29 27 26 25 23 25 25 23 21 21 18 17 17 18 16 12 13 13 12 3 2 14 21 20 19 21 16 11 6 7 14 6 7 20 21 21 12
24 25 28 27 30 30 30 30 31 32 31 30 25 25 25 24 23 24 23 21 16 18 15 17 19 15 17 8 6 7 6 12 19 20 20 21 10 18 6 9 6 5 7 4 8 14 11
24 26 28 28 29 31 32 31 33 34 31 28 28 25 25 24 23 23 19 19 16 20 18 12 26 21 17 21 9 12 11 7 6 14 21 23 10 14 7 4 2 4 2 6 7 11 6
24 25 29 29 29 29 30 31 34 32 31 29 26 25 23 22 22 21 18 17 17 20 18 19 23 19 9 21 18 14 14 13 12 11 15 20 12 11 3 2 2 3 3 1 7 11 13
27 27 28 30 29 31 32 32 33 31 29 27 25 22 21 21 21 20 17 20 18 19 27 10 25 16 7 13 25 18 15 17 9 14 13 15 12 5 3 5 2 2 3 5 6 10 7
28 29 30 30 33 34 34 32 31 30 28 27 24 22 19 21 21 20 18 20 17 20 19 28 17 10 10 14 23 24 16 18 10 17 14 7 4 3 1 3 6 6 5 4 6 5 2
26 29 28 32 32 33 32 32 30 28 26 24 22 20 21 21 19 21 18 20 5 4 17 7 20 5 6 13 16 21 25 16 14 14 5 6 3 7 10 7 3 4 4 4 4 5 2
29 30 31 33 32 31 31 30 29 27 26 25 24 23 20 17 20 22 26 12 11 1 6 24 29 2 26 25 13 23 22 12 10 4 7 4 1 3 6 9 9 4 5 5 5 5 5
28 30 29 32 32 30 29 29 30 28 26 26 23 21 18 22 26 17 22 13 10 3 3 10 24 13 24 12 9 25 23 12 6 5 5 6 4 13 8 1 6 1 3 4 5 6 5
27 29 29 32 32 30 29 30 30 29 29 26 22 18 20 26 19 14 20 3 16 9 2 9 7 11 18 16 6 23 19 14 4 8 5 2 3 4 2 2 2 0 4 4 4 5 4
27 26 29 33 31 30 31 31 32 31 30 25 21 20 24 26 26 16 11 1 11 8 3 12 10 21 21 3 23 16 17 4 7 9 6 4 4 5 3 2 3 3 6 4 3 3 5
27 27 31 33 30 30 32 30 33 33 27 23 26 29 30 24 10 4 11 10 12 3 2 4 9 11 7 20 4 19 6 4 5 5 4 4 7 4 5 2 4 4 3 3 3 2 3
28 28 31 33 30 31 32 31 33 32 30 29 29 29 14 4 3 9 14 17 6 0 6 5 10 13 14 6 6 9 6 4 5 5 2 3 3 3 4 4 3 4 5 3 3 1 6
27 29 31 31 31 31 33 31 32 33 34 36 22 10 4 5 7 15 26 1 4 6 3 11 15 15 7 9 8 7 7 4 2 3 4 4 3 8 4 5 6 5 6 4 5 3 4
25 28 29 31 31 31 32 33 34 35 38 25 12 14 12 9 13 15 4 3 2 3 1 9 13 7 4 4 7 5 4 5 5 3 5 4 2 4 5 4 6 4 3 2 1 2 3
24 28 29 30 31 32 31 33 34 33 26 19 15 14 16 8 9 6 2 2 3 3 12 10 5 3 5 6 6 5 8 6 4 8 2 1 4 3 3 4 3 4 4 3 2 3 5
23 26 28 28 29 32 31 32 34 33 19 13 9 6 8 8 3 2 2 4 2 19 14 1 5 6 9 6 6 6 10 7 8 9 5 2 3 2 1 5 7 3 4 4 2 4 3
23 25 27 27 27 31 31 32 33 32 18 14 13 3 7 5 2 2 1 2 2 6 10 2 5 8 8 6 5 3 8 2 16 16 6 3 4 3 9 6 8 5 5 5 4 5 4
22 23 25 26 26 29 29 31 31 30 12 9 4 3 4 5 3 4 5 8 5 7 5 2 4 3 13 5 5 4 4 5 14 9 11 5 2 1 1 3 2 5 7 6 3 2 10
21 22 24 24 25 27 27 29 29 26 9 8 3 3 5 3 3 2 5 5 5 14 6 6 9 16 7 3 3 7 3 3 5 5 9 8 4 5 5 2 3 1 3 7 9 4 8
18 21 23 25 27 27 27 27 28 24 12 4 3 2 3 2 2 2 1 5 5 4 7 6 6 8 6 4 8 5 6 3 5 4 4 3 3 1 5 7 5 6 10 11 12 16 10
17 20 20 22 23 23 24 25 26 25 11 17 5 4 7 5 2 4 2 3 5 5 6 6 6 10 10 5 1 8 7 4 4 2 3 2 1 1 5 10 10 9 13 13 16 18 19
15 18 19 20 22 22 22 23 23 21 18 9 8 6 5 7 3 1 2 2 4 2 9 9 4 5 9 4 6 7 10 7 9 7 6 5 4 2 5 4 5 3 6 6 5 6 9
13 16 19 19 21 21 22 22 19 18 14 11 10 5 3 3 1 2 1 4 5 4 4 6 11 3 2 2 3 5 6 6 7 5 9 6 5 2 3 4 1 2 6 7 10 7 8
11 16 16 18 20 19 20 20 20 15 11 6 10 5 3 3 5 4 3 5 5 8 7 6 6 5 2 2 2 3 1 2 4 5 6 4 3 1 1 2 5 3 3 2 5 5 7
9 15 17 17 17 19 17 18 18 17 11 6 3 5 1 4 3 7 4 5 3 3 3 3 2 2 2 1 1 3 3 3 3 3 3 4 4 1 0 1 3 1 0 2 4 4 5
8 14 19 16 17 17 15 16 15 18 14 9 2 5 1 4 6 6 1 2 5 3 3 3 1 2 1 1 1 1 2 3 4 6 4 4 2 6 6 4 6 7 4 7 2 3 4
7 12 19 15 16 17 15 14 14 17 14 10 4 6 4 4 14 6 4 3 3 2 2 4 3 0 1 1 1 2 1 2 1 4 5 5 6 3 3 4 6 7 4 3 4 5 7
8 12 19 19 15 16 15 14 13 15 15 12 7 7 9 8 8 9 10 7 3 5 4 6 2 1 4 1 2 1 1 3 2 2 2 3 6 4 7 6 6 1 5 6 8 9 7

GFSGBSN_850_spd_036.txt.gz
Wind_Speed
22 21 24 23 26 28 29 29 27 31 31 31 29 27 23 25 24 22 21 20 19 17 16 18 15 16 14 11 16 7 5 26 23 23 25 23 17 10 6 8 9 3 3 10 14 17 10
21 22 23 27 27 25 25 28 28 30 30 29 29 27 25 22 24 22 21 21 17 16 16 18 16 19 20 8 12 10 5 24 27 24 25 23 15 18 5 4 9 2 14 12 13 9 6
21 23 24 27 26 28 30 32 32 30 28 28 27 24 22 21 22 20 20 18 16 14 16 19 22 10 21 25 8 14 11 17 25 22 23 25 11 12 7 1 13 7 5 3 6 5 4
21 25 25 27 27 31 31 32 31 31 29 26 25 23 21 19 19 19 18 17 14 13 14 19 22 11 9 22 12 18 16 16 13 16 21 22 15 6 4 3 3 5 3 2 4 4 7
23 24 26 25 30 31 29 29 30 28 27 25 24 22 20 18 18 19 16 16 18 14 14 14 21 12 4 14 26 24 19 18 15 13 16 18 17 4 5 5 2 1 2 4 7 8 6
24 25 27 27 29 30 29 28 29 28 27 25 24 23 20 19 20 17 19 20 17 14 13 12 17 9 9 16 31 23 19 18 15 17 14 10 5 3 2 4 6 6 4 3 5 3 1
23 26 27 26 29 31 29 29 28 28 28 26 24 23 21 18 15 17 20 27 5 2 12 8 7 5 10 17 25 27 20 19 14 16 5 6 4 6 12 7 4 2 2 2 4 3 5
24 25 25 28 30 30 28 29 28 29 28 26 25 23 17 17 19 21 21 12 8 2 3 19 5 22 8 23 16 26 24 11 9 4 7 4 3 7 5 1 8 2 2 5 6 2 3
25 26 24 29 30 29 29 30 29 31 29 29 21 20 17 19 24 12 9 18 4 1 2 4 18 14 21 18 9 22 25 11 6 6 4 6 4 8 9 9 7 4 4 2 4 6 1
25 26 25 29 28 29 29 31 27 29 30 24 20 19 19 24 17 10 19 7 10 2 2 4 13 11 17 15 6 20 18 11 3 7 10 5 3 10 7 3 3 4 3 4 4 4 4
25 26 27 29 28 29 29 30 29 30 29 29 26 26 26 21 21 14 10 1 11 7 5 7 8 24 12 1 23 12 8 5 6 6 5 3 6 8 6 4 4 3 5 4 2 3 4
24 26 28 26 29 29 30 29 31 31 32 35 27 23 19 12 2 3 8 13 10 4 1 3 7 10 7 12 4 14 2 7 14 7 6 3 5 3 4 4 5 7 5 6 4 3 2
22 25 26 28 29 29 32 31 32 32 33 29 19 15 10 7 4 3 15 10 4 1 2 4 10 12 15 5 6 3 4 8 4 5 3 1 2 2 6 7 4 6 6 3 4 1 6
22 25 26 28 26 30 31 31 33 29 30 21 19 15 15 14 7 10 12 1 5 3 3 3 12 14 7 8 6 9 5 4 3 4 4 4 2 5 2 4 5 3 5 4 4 3 4
21 24 26 27 25 29 30 31 32 27 21 15 13 19 21 15 15 7 3 3 1 3 3 9 16 10 6 4 6 4 1 4 2 2 5 4 0 1 4 4 6 3 2 3 2 2 3
21 24 25 25 26 28 30 31 31 26 14 7 10 16 15 10 4 9 2 3 3 4 14 6 5 2 4 4 6 3 5 2 3 5 2 5 4 3 2 4 3 4 5 3 3 1 4
20 22 25 25 25 27 29 31 30 20 12 5 3 5 6 7 4 2 2 3 3 8 4 5 3 5 6 5 7 3 8 2 6 4 2 2 4 3 3 3 6 3 3 2 3 4 3
19 21 24 25 26 27 28 30 29 20 11 6 6 3 4 10 3 2 2 2 2 7 9 2 5 7 4 4 4 3 8 4 12 6 5 1 4 3 6 2 4 4 5 5 4 3 2
17 19 23 25 26 26 27 28 26 19 11 9 3 4 5 6 3 4 3 2 6 3 3 2 3 3 5 5 5 3 4 3 16 7 7 3 2 2 2 4 3 3 5 4 3 2 6
16 17 20 24 26 26 25 26 25 17 7 6 3 3 6 5 3 3 5 5 5 10 7 6 4 10 4 3 2 4 2 5 6 7 11 6 3 5 5 4 3 2 4 8 8 3 3
14 18 17 21 25 25 24 24 24 18 11 3 4 2 3 3 4 3 3 4 5 7 8 6 4 5 4 3 5 4 3 3 6 6 4 4 3 2 4 6 3 5 6 8 12 17 6
12 16 18 17 22 24 23 22 22 20 8 10 4 3 6 4 8 2 4 5 6 5 6 4 4 1 2 4 2 5 6 3 3 1 3 2 1 3 4 4 8 6 11 13 14 13 17
13 14 16 17 18 21 21 21 19 18 14 8 5 3 3 7 4 2 2 1 2 2 6 8 3 3 9 3 7 5 5 13 8 7 3 5 4 2 4 3 4 5 9 11 6 6 7
15 11 17 15 16 17 19 18 19 15 12 9 8 3 3 3 2 2 1 2 3 2 4 4 10 4 2 3 7 9 12 10 8 3 6 5 4 3 3 3 1 4 1 4 9 7 11
21 9 16 16 14 16 16 16 16 13 10 5 6 3 3 3 4 3 3 4 6 7 3 4 5 5 2 3 3 3 2 2 2 2 4 4 3 1 2 2 5 5 4 4 4 8 7
21 12 14 17 13 14 14 15 12 15 8 5 1 5 3 4 4 5 3 5 4 2 2 3 2 2 1 2 2 3 3 3 4 3 2 3 2 3 2 2 3 5 0 2 4 4 4
17 13 12 17 15 13 13 11 13 13 15 6 3 5 4 5 7 3 3 3 2 4 3 3 2 2 2 2 2 2 3 3 5 6 4 4 3 5 5 3 6 7 3 5 1 4 3
15 17 11 18 18 13 13 11 9 11 12 11 6 4 7 6 18 8 6 4 4 5 4 6 4 0 2 2 2 2 2 2 2 4 5 6 5 3 3 4 7 4 5 3 4 7 8
15 14 10 16 18 14 11 13 10 11 11 11 11 5 7 9 11 11 16 16 10 4 6 9 3 4 4 1 1 1 1 1 1 2 2 4 5 4 7 5 4 4 6 8 9 12 10

GFSGBSN_850_spd_039.txt.gz
Wind_Speed
20 22 21 24 25 24 26 28 28 29 28 28 28 27 25 24 21 22 20 21 19 21 19 19 18 13 17 14 18 4 5 17 26 32 30 21 18 11 7 10 4 4 2 11 17 17 10
19 22 24 24 26 25 28 29 28 29 28 27 29 26 24 22 21 20 19 19 19 18 17 16 13 18 13 9 14 13 6 16 29 31 32 25 15 14 9 5 9 4 10 12 10 10 8
21 24 25 25 25 28 29 27 27 27 27 26 26 24 22 20 20 18 17 18 17 14 15 11 18 10 13 22 7 16 9 21 30 31 33 26 12 14 6 3 6 12 2 2 7 5 5
24 25 26 29 26 28 29 29 27 26 26 26 26 24 22 20 18 16 18 16 15 13 13 12 12 13 7 19 7 16 11 23 24 23 26 23 14 17 4 3 4 6 3 3 3 6 6
23 25 26 27 27 29 30 28 28 26 27 27 24 23 22 20 17 17 14 14 15 11 14 11 11 7 2 13 22 18 16 17 21 18 19 17 19 5 4 5 3 1 4 3 5 7 3
23 26 27 25 29 30 29 28 28 27 28 28 24 22 22 19 18 15 15 17 22 12 11 9 6 5 8 10 23 23 20 16 13 15 13 13 8 4 3 3 7 6 5 3 4 1 3
24 27 27 26 30 32 29 28 28 29 30 27 28 23 19 15 15 15 20 22 4 2 10 8 5 6 5 15 23 23 21 17 12 13 4 6 3 8 11 7 2 5 3 3 3 2 3
25 27 28 28 30 29 28 29 31 28 30 28 24 18 17 15 17 20 17 4 12 2 4 16 8 20 6 16 18 22 19 10 8 5 6 4 9 5 7 5 3 2 2 2 4 1 2
24 26 28 29 28 28 29 29 29 27 29 27 26 23 19 15 20 13 10 21 4 6 1 1 7 6 5 18 12 20 21 8 6 5 6 4 4 9 6 4 4 2 3 3 4 4 2
24 25 29 28 28 28 28 30 30 33 31 32 33 28 21 19 13 6 14 8 10 6 3 4 3 5 8 19 4 22 21 5 3 8 6 3 3 11 11 8 4 3 1 2 3 3 3
22 25 27 29 28 28 31 29 32 32 34 29 22 17 12 8 10 8 6 4 10 5 6 9 7 16 11 3 22 13 15 3 4 10 4 2 3 10 8 6 6 3 3 4 3 3 3
23 25 27 28 26 27 30 30 32 27 27 23 19 18 13 12 9 5 7 13 6 2 5 1 6 7 7 10 4 14 4 8 9 6 10 4 5 3 3 3 2 7 5 6 4 2 2
21 24 26 27 27 26 29 28 33 27 23 19 17 18 13 10 10 10 12 4 3 3 2 4 7 10 11 11 7 3 0 5 3 5 3 5 3 2 6 7 5 5 5 2 4 3 5
20 23 25 26 26 26 28 29 32 23 15 13 18 14 17 19 13 11 3 1 6 1 3 4 16 14 7 8 6 4 4 4 3 4 3 4 1 4 1 4 5 2 5 4 5 2 4
19 22 25 26 26 26 27 29 29 24 9 8 12 15 16 13 12 8 6 3 2 2 4 11 15 8 4 7 4 3 3 3 3 2 5 4 2 1 2 3 5 4 1 2 5 3 3
18 22 25 26 28 26 27 28 27 24 11 8 8 9 13 9 9 10 2 6 5 2 6 6 5 2 4 4 3 4 3 5 4 2 2 4 5 2 2 4 5 3 7 3 3 1 3
17 21 24 26 26 27 25 27 25 19 13 7 5 2 10 12 9 6 3 5 5 8 11 5 2 5 5 5 5 3 5 3 1 3 5 4 4 1 3 3 6 2 1 4 4 3 3
19 19 23 26 26 29 27 24 24 15 12 10 6 3 12 12 2 1 2 2 3 4 3 5 5 6 4 4 2 3 4 3 5 7 4 2 4 3 5 1 1 3 5 4 4 3 1
17 19 22 25 25 28 28 23 21 16 13 12 5 6 7 9 3 3 2 2 2 2 3 3 3 1 2 4 4 3 3 1 9 5 6 4 1 3 2 4 3 2 4 4 4 3 5
16 18 20 22 24 25 27 23 21 16 9 7 3 3 6 6 4 2 4 4 3 5 4 5 4 4 4 3 4 4 2 4 10 8 7 6 3 4 5 3 3 2 4 6 6 3 3
18 19 20 20 23 22 25 24 20 17 9 3 4 2 3 4 5 4 3 2 4 6 5 7 4 5 6 3 2 3 2 2 5 7 4 4 2 2 4 5 3 4 4 7 7 8 6
19 18 20 23 20 22 22 23 19 19 9 7 3 2 4 5 10 5 4 5 4 5 5 5 5 5 3 3 2 6 5 2 2 2 3 3 2 2 4 4 5 5 8 9 9 9 11
18 17 18 27 20 20 21 20 19 17 13 7 4 3 3 6 4 2 2 1 1 2 5 6 1 4 6 4 3 4 4 9 6 6 3 4 5 2 4 4 5 5 8 10 5 6 10
17 13 15 27 23 18 19 19 16 13 11 8 7 4 2 3 2 2 5 2 1 0 4 3 4 3 3 6 7 10 14 10 7 3 6 5 4 2 2 4 2 6 1 6 9 7 14
15 13 15 22 21 18 17 17 15 13 7 4 5 4 3 3 2 4 5 3 2 3 2 3 4 6 6 4 3 3 2 2 2 3 3 3 3 2 0 2 6 2 3 5 6 7 7
15 13 13 20 18 18 16 15 14 13 11 4 1 3 2 4 4 4 3 1 1 0 3 2 6 5 3 2 2 3 3 3 3 1 3 4 4 2 2 2 3 4 2 3 4 4 2
16 12 11 18 19 18 14 14 12 11 13 9 2 4 3 4 8 3 4 3 1 1 2 1 4 2 3 2 2 2 3 2 5 5 5 3 2 6 6 3 5 9 4 5 1 3 2
16 13 11 16 17 20 18 11 12 9 12 12 6 3 5 5 20 16 8 4 3 2 3 4 3 1 2 2 3 3 2 3 2 3 5 8 6 3 4 4 6 5 3 3 3 6 8
20 14 15 12 14 19 19 16 11 9 11 12 12 9 10 10 12 13 17 19 18 8 1 5 2 4 6 3 1 2 2 0 3 2 0 3 6 4 7 5 4 2 8 8 8 9 8

GFSGBSN_850_spd_042.txt.gz
Wind_Speed
21 22 24 26 28 28 27 29 29 28 28 26 26 25 25 24 23 22 21 21 19 19 18 19 17 9 12 11 17 5 4 10 30 32 28 25 23 16 7 8 6 4 2 13 10 8 6
21 24 26 27 28 27 28 30 31 29 28 25 27 25 24 23 22 20 18 18 17 16 16 15 15 11 17 9 22 23 4 7 34 35 32 26 17 13 13 7 6 7 10 7 5 7 6
25 24 25 27 28 27 31 30 30 28 26 26 25 24 22 23 21 18 16 16 16 14 13 12 9 16 11 13 10 17 16 13 31 35 34 28 15 12 8 4 13 6 3 3 7 6 5
24 25 28 28 26 29 31 30 30 27 27 28 26 24 23 21 21 17 16 17 13 11 10 9 9 9 7 20 11 9 8 15 30 28 31 27 14 15 3 5 4 6 2 1 3 8 6
24 24 27 29 27 30 32 30 28 30 28 28 27 24 24 20 17 17 14 15 12 11 8 8 7 4 4 11 16 11 11 22 30 23 26 23 18 9 4 5 4 2 4 4 5 8 3
24 25 27 29 31 28 29 29 28 30 25 30 26 25 17 15 14 13 13 18 16 13 9 6 4 2 8 5 17 13 11 21 23 21 19 19 12 4 3 4 6 6 2 2 4 1 2
23 25 26 28 29 28 28 28 30 27 29 29 24 23 21 14 11 12 18 13 6 4 8 5 8 4 7 7 17 15 15 20 15 17 9 19 5 14 13 5 3 6 4 3 3 1 2
23 25 26 28 29 28 28 30 29 32 32 30 30 29 23 15 10 13 11 8 10 4 2 9 11 16 3 9 8 14 16 6 6 4 5 7 8 8 11 8 6 5 5 2 3 1 2
24 24 28 29 29 26 29 31 31 32 32 35 28 26 20 15 11 12 4 9 3 9 1 3 3 4 9 15 8 11 14 6 3 3 4 7 4 9 12 8 7 3 3 2 3 3 1
24 23 26 28 29 28 29 30 31 29 33 30 28 25 17 5 5 1 4 4 9 9 3 2 2 4 6 15 5 14 13 4 2 4 4 4 3 8 10 2 2 5 1 3 3 2 3
24 23 25 26 29 27 29 30 32 26 28 27 24 20 16 4 3 2 1 8 8 2 6 3 2 6 10 3 19 9 14 1 5 7 3 2 5 12 11 6 3 3 3 5 3 3 3
24 24 26 28 28 26 27 30 32 25 24 24 23 17 10 14 11 8 8 8 5 3 5 2 3 1 6 6 4 9 4 5 9 6 9 3 3 2 3 5 2 7 5 5 4 2 2
25 25 24 26 28 28 28 30 30 26 18 18 21 18 9 10 13 12 7 1 3 5 2 4 3 7 8 9 5 4 1 4 4 4 3 4 4 3 5 7 4 3 5 2 4 3 4
24 22 24 26 28 27 27 28 28 25 15 12 15 11 13 12 11 4 9 3 8 2 1 2 7 11 6 5 6 3 2 4 5 4 3 4 2 3 1 3 6 2 4 4 4 1 3
24 23 23 27 27 31 27 29 27 22 17 12 10 10 11 8 7 9 2 5 2 2 1 5 10 6 5 6 5 3 3 2 2 2 4 4 2 3 2 2 3 4 2 2 6 2 3
23 24 22 26 28 31 29 27 25 23 19 16 10 9 16 16 15 8 1 6 3 3 6 5 5 1 3 3 3 3 1 1 4 2 2 4 5 2 2 5 7 3 6 3 3 1 2
22 23 25 25 28 30 30 25 25 20 20 18 12 3 18 16 10 6 3 3 3 5 3 4 3 4 4 4 3 3 4 1 1 2 4 4 3 1 3 1 5 2 2 5 4 2 3
19 22 24 27 27 29 29 26 23 21 17 15 9 3 14 12 6 2 3 3 4 5 4 4 5 4 4 4 3 3 5 2 6 6 3 1 4 3 2 0 1 2 4 4 4 3 2
18 20 23 27 28 28 29 28 23 19 17 17 8 4 9 11 3 4 5 2 2 5 4 2 2 2 2 3 4 2 3 2 9 3 5 4 2 3 3 4 3 2 3 4 4 3 5
18 20 20 24 28 29 29 27 24 21 12 10 6 3 4 7 5 2 4 4 4 6 3 4 3 4 4 4 5 4 2 4 7 3 8 5 3 4 5 3 3 2 4 5 6 3 3
17 19 18 20 25 31 28 28 25 22 11 6 6 2 2 3 3 4 3 0 3 4 4 6 4 2 4 3 2 2 3 2 5 10 4 3 3 2 3 3 3 4 4 8 7 6 6
17 17 17 19 21 27 29 26 24 22 12 5 3 3 3 4 7 4 3 4 3 1 1 2 5 3 5 3 4 6 5 2 3 3 3 2 3 2 3 2 4 5 8 8 10 6 9
16 16 14 17 21 24 26 25 22 19 15 7 4 3 3 4 4 2 3 3 4 3 5 6 4 4 5 1 3 4 1 6 7 7 3 4 5 2 3 4 5 5 8 12 6 5 10
15 15 12 14 19 22 24 21 20 18 13 8 8 4 3 3 2 1 4 3 4 3 1 4 4 3 5 10 10 13 14 12 9 4 5 5 5 2 2 4 1 5 3 9 11 5 13
14 14 14 12 17 21 25 16 17 16 14 7 5 4 3 3 4 6 4 3 1 3 2 3 4 4 10 4 3 3 2 2 2 2 3 3 3 2 1 2 6 4 5 6 5 5 8
16 16 16 11 15 19 23 17 14 12 15 11 3 4 2 3 3 3 4 4 2 1 2 2 4 5 3 2 2 4 4 5 4 3 3 4 5 4 3 2 4 2 3 3 3 2 2
16 16 17 12 10 17 19 22 10 10 12 15 4 6 3 5 7 4 4 3 3 1 2 1 3 2 3 2 1 2 3 4 6 7 5 4 2 4 6 3 6 5 5 3 1 3 3
15 17 19 15 13 13 17 18 18 8 9 11 11 8 5 6 16 15 9 7 5 2 2 5 4 1 2 2 3 3 3 4 3 4 6 6 7 4 5 3 6 6 6 3 3 7 8
18 18 15 15 14 11 16 15 17 13 9 12 13 11 10 10 14 21 21 22 28 16 5 4 2 4 6 3 1 2 2 1 3 3 0 4 6 5 7 5 3 6 2 12 12 10 10

GFSGBSN_850_spd_045.txt.gz
Wind_Speed
21 24 23 23 27 28 25 29 30 29 29 26 25 24 23 22 21 20 19 17 16 15 15 16 14 13 8 13 17 8 7 10 30 30 27 27 24 17 12 8 8 3 3 8 6 5 4
20 23 23 25 27 27 28 29 29 29 28 27 29 25 24 22 20 19 17 16 14 13 13 12 12 11 15 11 14 21 3 8 33 36 31 27 21 17 13 9 6 10 7 5 8 9 3
21 24 24 25 28 28 29 29 28 29 29 31 28 28 25 21 21 17 15 14 13 14 12 11 9 10 15 13 9 27 23 5 24 37 35 25 18 18 13 5 9 8 4 3 8 5 3
22 22 24 26 28 28 26 28 30 29 29 27 26 27 23 22 17 14 14 13 10 9 9 7 5 7 7 6 15 8 19 12 21 35 33 26 27 12 5 11 5 5 3 4 2 9 8
23 23 26 27 28 28 28 28 28 28 30 30 30 27 20 18 13 11 9 9 10 11 6 5 3 4 4 8 20 11 22 11 26 28 29 27 25 7 6 6 4 2 3 5 3 9 3
24 24 26 28 30 30 25 28 30 28 30 31 32 30 23 19 14 9 10 16 7 8 7 7 5 4 4 6 17 14 12 14 30 26 21 19 9 3 3 4 8 9 4 3 6 2 2
23 24 25 28 30 28 26 28 29 29 30 33 32 29 23 18 12 8 11 6 3 3 6 2 3 5 12 6 14 17 7 17 25 23 7 15 4 14 11 5 4 7 5 4 3 1 1
25 24 24 27 27 28 26 29 28 31 30 34 33 31 26 16 7 5 6 5 3 2 4 3 4 8 6 4 7 14 14 9 13 13 6 6 11 8 10 7 6 6 5 4 1 3 1
28 25 25 28 29 28 27 28 30 29 28 32 34 30 24 8 4 3 2 3 3 8 4 6 4 4 5 7 6 9 11 8 7 10 8 3 7 16 12 6 8 3 5 3 2 1 2
26 24 25 27 28 27 27 29 30 27 27 30 33 25 22 12 6 4 3 4 4 7 4 5 2 1 2 8 1 4 1 8 4 17 15 3 4 13 13 12 6 4 3 5 4 3 1
25 24 26 27 28 29 28 29 29 26 25 26 28 19 19 15 7 7 5 6 5 4 5 2 2 5 11 2 10 2 5 7 4 7 4 3 9 8 12 6 4 2 3 5 3 4 1
25 25 27 27 28 30 27 28 27 26 21 21 21 21 13 15 14 10 7 5 1 5 6 2 2 1 5 6 3 5 4 8 6 9 14 4 5 4 3 8 6 5 4 6 4 2 0
24 24 26 28 29 31 30 28 27 23 17 14 19 18 13 12 11 8 6 8 4 6 2 3 3 3 6 4 6 4 1 3 4 4 3 5 5 2 5 8 7 2 3 2 2 2 3
23 22 26 28 31 31 33 29 27 23 17 13 14 13 12 10 9 10 10 3 10 3 3 2 2 9 5 4 6 4 2 3 5 5 3 3 4 2 1 3 6 2 1 3 3 3 1
21 23 25 29 30 32 33 33 29 22 19 16 12 9 13 12 12 10 3 6 1 3 2 5 7 6 4 6 5 1 2 1 2 1 4 4 3 2 5 2 2 4 1 2 6 2 1
19 22 24 28 29 31 32 35 30 23 19 18 12 7 16 17 12 6 1 6 2 3 1 4 4 0 3 2 4 1 2 2 3 1 2 2 6 3 2 2 9 2 5 3 2 3 3
17 20 22 26 28 29 32 33 33 26 18 17 11 4 17 16 10 11 3 4 3 3 1 2 4 4 4 5 4 2 1 1 1 2 5 3 4 1 3 0 5 2 1 4 3 1 3
15 19 20 22 28 29 32 32 33 28 19 13 5 3 13 9 6 3 2 4 4 3 3 2 4 4 4 4 3 2 3 3 4 5 4 1 4 3 1 1 1 2 4 4 3 4 1
14 18 20 20 24 29 32 32 31 29 19 14 5 4 8 8 3 3 4 2 2 6 4 3 2 1 1 4 4 3 2 3 5 3 6 5 2 3 1 1 2 3 4 3 4 3 5
14 18 18 20 23 27 30 32 29 28 16 11 3 2 5 8 5 2 3 4 3 4 2 3 2 3 3 3 5 3 2 3 4 3 6 6 3 4 5 3 3 3 4 5 5 3 3
12 17 17 17 22 26 28 30 28 26 16 7 5 2 2 2 3 4 1 1 2 4 5 4 3 2 3 3 2 3 2 3 3 8 3 3 3 2 2 1 3 3 5 9 7 4 6
12 17 16 15 19 23 26 30 27 24 18 9 4 2 2 2 4 2 3 2 1 0 1 2 5 1 3 4 5 7 6 3 4 1 3 2 3 2 2 1 5 4 7 9 11 5 9
12 15 16 15 17 20 23 27 26 22 17 8 6 3 2 3 3 1 2 3 2 2 1 4 3 4 4 2 2 2 2 7 8 7 3 4 5 3 3 2 3 6 9 13 6 5 9
11 13 15 15 16 19 20 23 22 19 15 8 9 4 3 2 2 0 3 2 2 3 0 2 4 3 6 13 14 13 14 12 8 4 5 5 5 2 3 1 1 4 3 6 13 3 12
10 14 16 15 12 18 18 19 20 15 15 10 6 5 4 3 3 5 4 4 3 2 2 1 2 5 12 3 3 4 1 2 3 3 2 2 4 2 2 2 6 1 3 6 6 5 10
10 14 15 16 11 12 16 16 19 13 13 13 6 3 2 4 2 3 3 4 2 1 2 1 4 8 6 2 2 3 4 4 3 2 4 4 4 3 2 3 4 4 2 6 3 1 0
11 14 15 17 17 12 14 15 15 14 10 12 9 9 2 4 5 3 3 4 4 2 2 2 5 3 3 2 2 3 3 3 5 7 4 3 1 5 4 3 6 6 4 2 2 2 6
11 13 16 18 16 15 12 15 12 14 8 10 10 11 7 5 14 13 10 8 6 4 2 2 4 1 2 3 3 3 3 5 3 4 6 7 7 4 3 3 7 7 5 5 2 4 7
15 18 18 17 17 16 13 15 11 11 11 12 14 11 12 10 12 26 30 29 24 24 9 4 2 4 7 3 1 2 2 1 3 3 2 4 6 5 7 5 5 12 7 4 11 14 10

GFSGBSN_850_spd_048.txt.gz
Wind_Speed
21 24 22 24 25 26 27 25 25 26 26 26 26 25 26 22 21 20 19 16 15 13 10 12 14 11 7 10 20 7 13 20 26 24 27 26 29 21 18 17 15 14 6 10 7 7 6
21 23 23 24 25 26 26 23 25 28 27 27 23 22 26 23 20 18 16 13 12 11 10 10 9 11 10 13 13 20 9 11 27 30 30 26 29 19 18 13 14 15 6 13 12 7 5
21 22 22 24 26 26 28 24 27 28 27 26 28 26 24 20 18 13 12 13 10 9 8 8 9 10 12 17 7 18 13 5 23 31 29 25 20 18 11 7 11 5 14 11 9 11 10
20 24 25 24 27 26 26 23 27 29 27 28 29 29 27 16 15 10 9 8 6 4 4 4 6 7 7 10 14 7 25 10 21 27 23 19 20 16 8 7 11 13 6 9 9 17 6
21 23 25 26 27 28 27 26 28 27 28 29 32 29 24 18 14 10 6 7 12 11 7 5 5 5 4 11 15 8 19 13 21 27 22 21 23 19 7 13 9 14 10 18 4 10 12
21 23 25 26 27 27 26 26 28 27 28 30 32 28 24 17 10 7 4 10 4 6 7 7 1 4 7 9 16 10 18 12 22 27 17 19 14 12 13 14 14 18 15 12 13 6 9
23 25 25 26 27 28 26 27 27 27 26 30 32 30 27 13 4 4 3 2 2 4 3 1 1 9 3 4 15 13 17 16 19 22 12 23 6 17 21 17 2 10 15 9 7 4 5
23 26 25 27 28 27 27 27 27 25 25 28 31 31 24 13 12 5 4 3 2 2 3 4 4 5 5 3 8 18 13 12 19 19 14 8 13 15 14 13 8 13 13 10 5 3 4
26 27 25 26 27 28 25 26 26 25 22 24 28 28 22 15 10 6 6 4 2 7 1 6 6 3 4 2 11 13 6 19 17 16 16 11 12 14 16 14 12 9 11 9 3 5 1
25 26 26 26 27 28 28 25 23 22 21 20 23 23 22 7 8 9 9 7 5 3 2 5 8 4 4 7 6 8 6 8 4 9 6 4 2 19 18 16 13 10 3 7 6 4 3
24 26 27 28 28 29 30 26 23 21 19 16 17 16 22 15 7 8 8 8 3 4 3 2 3 1 5 4 13 6 6 5 10 11 3 3 3 17 19 19 13 5 7 7 4 2 3
22 24 27 27 28 30 32 28 23 18 20 12 14 13 11 13 11 8 6 3 4 3 9 4 5 0 5 2 3 7 4 11 19 15 13 4 5 4 2 7 4 13 10 8 4 1 3
21 23 26 27 28 29 32 31 25 20 17 12 9 10 9 12 7 7 10 7 1 7 1 5 3 4 6 5 6 5 4 6 3 6 3 3 4 2 8 9 4 6 8 3 3 4 3
19 22 25 26 28 28 30 32 29 22 19 14 8 8 9 6 8 6 7 2 10 4 4 4 3 12 5 3 6 5 2 4 5 8 5 2 4 2 0 2 5 4 3 2 4 4 3
17 19 22 24 27 29 30 32 32 24 19 17 7 6 10 11 9 3 1 7 2 1 2 5 6 6 4 6 5 3 4 2 3 4 4 4 3 0 2 5 5 6 4 1 4 2 2
15 17 21 21 24 28 31 32 33 30 19 16 8 2 12 12 8 4 2 5 2 3 2 2 2 1 4 3 3 3 1 2 3 3 2 4 5 2 4 3 9 2 8 3 0 4 4
13 16 20 22 24 27 29 33 32 33 19 15 6 1 12 10 8 7 4 3 2 1 2 2 3 3 5 4 2 2 2 2 2 5 3 5 3 2 2 4 7 4 3 2 2 1 2
12 16 20 22 24 27 30 31 31 32 26 15 4 0 9 5 2 3 2 1 2 2 2 2 3 5 7 3 3 2 3 1 3 5 5 2 4 5 1 1 3 1 2 4 3 4 1
12 16 19 21 23 26 30 30 30 29 28 17 8 3 6 2 2 2 1 1 2 3 3 2 2 1 2 4 3 3 2 1 3 2 5 6 3 5 4 4 1 4 5 3 4 2 5
12 16 18 20 24 25 28 29 29 26 24 14 5 1 5 7 4 2 1 1 2 0 1 1 3 2 3 2 2 4 4 2 1 1 6 3 3 2 2 3 4 4 9 10 4 3 4
12 15 17 19 22 23 27 29 27 24 20 9 6 3 3 2 3 2 1 0 1 1 1 1 2 3 3 3 3 3 3 4 2 5 2 1 3 1 2 3 2 2 6 12 9 9 6
13 14 16 17 19 21 23 27 26 24 18 9 4 4 5 3 4 3 1 2 1 1 2 1 3 4 3 3 2 6 6 4 3 3 2 1 3 1 1 1 5 5 10 11 16 17 16
12 12 14 16 17 20 21 23 25 24 18 7 6 3 2 3 3 3 2 2 2 2 1 1 5 4 3 2 1 0 4 4 4 7 4 3 5 2 1 1 3 8 16 18 11 10 15
12 11 15 15 16 17 18 19 22 20 18 11 9 4 3 2 3 1 2 2 2 1 1 1 1 3 4 14 12 10 9 8 6 4 3 6 5 1 0 2 4 3 2 4 19 9 16
11 11 14 16 18 13 15 17 19 19 15 14 8 4 3 3 4 4 4 4 6 3 3 3 1 4 13 3 3 4 3 3 3 3 2 2 4 2 2 3 8 3 4 6 8 7 16
10 10 12 17 17 15 12 14 16 17 15 11 9 7 2 4 0 3 4 4 2 2 2 1 4 12 7 1 2 4 4 4 4 4 3 3 2 3 2 3 4 3 3 6 5 4 5
9 8 10 15 17 16 14 12 14 11 13 11 8 9 4 4 4 3 3 3 3 2 2 2 4 4 5 2 3 3 3 2 6 7 5 4 3 9 7 5 6 7 3 7 4 4 1
7 9 11 16 17 16 14 13 14 14 9 11 11 11 8 4 14 14 10 6 7 4 3 2 4 3 2 6 3 3 4 5 4 5 6 9 7 4 5 5 8 6 5 4 4 3 3
7 9 12 16 16 14 15 16 16 14 6 10 13 12 12 11 13 25 26 25 26 22 8 4 4 3 8 4 3 3 3 4 5 4 4 6 6 4 8 4 1 4 2 4 4 5 5

GFSGBSN_850_spd_051.txt.gz
Wind_Speed
23 24 23 24 26 27 25 27 23 28 26 28 24 26 26 27 25 21 16 15 14 13 12 11 11 12 11 15 20 9 21 20 26 25 26 22 30 25 17 21 17 17 11 16 6 7 9
25 23 24 24 26 28 27 23 25 26 28 25 28 26 26 26 24 17 15 11 11 11 10 10 10 11 12 14 14 19 13 13 28 29 29 26 27 24 16 9 19 13 17 14 14 11 9
25 24 24 25 27 27 27 24 27 30 25 28 29 29 28 24 18 12 11 8 8 8 8 9 9 10 14 18 8 16 19 7 23 30 30 26 22 21 9 8 13 7 17 8 17 15 7
26 24 23 25 27 27 27 25 27 26 27 28 31 31 24 19 12 8 8 5 3 2 4 4 6 8 9 11 19 9 19 6 15 28 24 22 19 22 8 5 11 8 12 14 14 13 9
26 25 23 25 26 28 27 26 25 27 23 30 31 30 27 19 10 7 4 4 8 8 7 5 4 7 7 6 15 15 14 10 19 28 23 19 17 20 11 12 10 13 12 18 12 18 11
25 26 24 24 25 27 27 26 26 26 25 27 30 30 27 15 6 5 1 4 7 6 7 3 3 5 10 9 14 13 18 13 22 29 16 12 13 12 12 13 15 19 20 18 18 10 15
24 26 25 24 26 27 27 26 25 23 24 24 27 29 23 14 6 6 4 2 1 3 4 2 1 4 3 2 12 8 25 15 25 25 11 14 7 16 24 21 10 11 18 13 10 7 9
23 24 25 24 26 28 29 27 26 23 21 21 24 23 17 16 10 7 6 3 2 2 2 2 5 7 8 4 7 12 23 11 28 21 13 6 8 20 18 18 11 9 14 12 4 9 7
22 23 26 26 26 29 31 27 26 24 20 20 19 18 14 9 8 7 7 3 3 1 2 6 5 5 3 4 8 5 9 7 22 20 17 12 5 14 15 17 13 11 12 13 6 9 8
21 22 25 27 26 29 30 28 26 25 21 17 14 14 17 5 6 6 6 3 5 5 1 5 4 1 5 3 5 8 5 4 4 19 16 7 5 13 18 17 15 12 6 5 7 10 7
20 22 24 27 27 28 29 30 27 26 20 18 12 11 10 10 2 3 2 3 0 3 3 9 4 4 6 2 16 4 6 4 5 8 3 1 10 16 16 17 16 6 10 7 4 5 3
18 20 22 26 28 30 31 30 30 28 21 17 14 8 7 6 3 3 0 5 6 3 7 3 3 2 5 5 4 6 2 10 14 9 10 5 4 0 1 9 4 13 13 7 3 1 4
18 19 21 23 27 29 31 31 29 30 24 17 11 8 6 4 2 3 4 2 2 6 2 7 4 8 4 5 6 4 4 6 4 5 3 3 4 3 2 10 4 7 13 5 4 4 3
17 18 20 23 26 29 31 32 32 30 28 18 9 7 7 5 5 2 1 3 9 5 4 4 2 10 6 4 8 7 5 12 11 7 5 2 3 2 1 3 6 8 10 4 6 6 6
15 16 20 23 26 29 32 32 32 31 30 20 9 5 7 9 4 3 2 5 3 1 2 1 3 5 4 7 5 4 4 4 3 2 3 4 3 5 3 3 5 3 4 5 2 3 2
15 16 19 23 24 29 32 33 31 31 30 20 8 3 4 9 4 1 3 4 2 2 3 3 2 3 4 6 4 4 2 3 4 2 4 4 6 5 8 9 4 6 9 2 2 4 5
13 15 19 23 25 28 32 34 32 31 29 18 4 3 6 6 5 1 4 3 3 2 4 3 2 3 5 6 2 3 2 3 0 4 3 5 3 5 3 6 7 4 4 3 3 2 3
13 14 17 21 25 28 31 33 33 31 30 19 5 2 7 3 2 1 3 5 3 1 1 1 1 3 5 6 4 2 5 3 3 4 5 3 4 4 2 3 5 6 6 9 3 4 1
14 14 16 19 24 25 29 31 31 29 27 22 12 4 5 0 0 2 3 4 1 1 2 2 1 2 0 4 2 4 4 1 4 1 2 4 4 5 3 4 3 5 8 6 1 3 4
14 14 16 19 22 25 27 30 30 27 24 14 7 3 3 1 2 1 5 4 4 1 0 1 2 2 4 3 2 4 4 3 2 3 3 1 2 2 1 3 2 4 10 11 7 3 5
13 14 15 17 20 24 27 28 28 26 20 11 7 3 3 3 3 4 3 1 3 3 2 3 3 4 4 3 4 3 3 5 3 4 2 1 2 2 2 3 2 3 6 12 11 11 6
12 13 14 16 20 22 25 25 25 23 18 8 6 6 7 8 6 5 2 2 2 2 2 4 4 5 5 2 2 4 7 6 5 6 4 2 3 2 2 3 5 7 11 11 16 15 16
11 12 14 15 18 21 21 21 23 22 20 8 8 5 4 6 3 4 2 1 1 1 1 3 4 5 5 3 1 2 3 2 1 5 8 4 4 2 1 1 5 10 17 18 13 10 15
13 14 13 13 17 17 16 17 19 20 18 9 8 6 4 4 5 4 7 7 5 3 3 2 2 4 3 5 8 6 5 4 6 4 6 6 6 2 1 3 5 2 3 2 18 11 15
15 14 10 12 16 15 13 13 16 18 17 11 11 5 4 5 7 8 6 6 11 6 3 2 2 3 11 4 3 5 4 4 5 4 8 7 6 3 3 6 10 9 5 5 8 6 18
13 10 8 11 16 16 15 13 13 14 15 9 9 10 3 6 3 5 7 6 4 5 3 2 2 6 4 3 2 3 5 5 5 6 4 6 6 4 1 3 4 5 5 4 4 2 7
11 9 7 9 14 15 15 13 13 12 13 11 7 10 4 6 4 4 4 4 4 6 4 1 4 5 3 3 3 3 3 1 4 6 6 8 7 9 6 4 6 2 4 5 3 4 8
13 8 6 10 15 15 14 12 14 15 8 9 8 10 6 5 17 13 10 10 9 5 3 6 3 4 5 6 4 4 5 6 4 5 6 9 6 5 7 5 7 6 8 3 7 6 6
7 5 7 11 14 17 12 12 12 13 8 5 6 12 12 8 12 23 23 22 19 14 8 6 6 7 6 5 6 4 5 4 8 4 9 5 6 3 7 4 3 5 3 7 6 6 4

GFSGBSN_850_spd_054.txt.gz
Wind_Speed
22 25 23 24 24 26 25 24 22 25 28 25 27 31 30 30 26 23 21 13 12 12 11 10 10 10 10 11 23 11 7 30 30 26 23 20 29 23 14 18 15 18 12 25 12 5 1
23 24 24 24 25 27 27 26 25 25 22 26 30 32 33 29 22 17 10 9 8 10 10 9 7 8 12 11 12 14 11 21 30 30 28 22 29 23 12 14 13 14 20 10 13 7 1
23 24 24 23 27 27 26 26 26 25 24 26 30 33 32 27 18 12 7 5 6 7 7 7 5 7 11 18 3 5 18 12 27 33 29 24 24 23 6 7 20 6 6 8 6 12 3
23 24 26 25 26 27 27 27 25 25 22 27 29 34 31 26 13 7 4 3 3 2 3 3 4 6 7 7 11 9 14 11 12 28 27 24 19 15 4 3 9 7 3 9 6 11 9
22 24 26 26 26 27 29 27 25 23 23 27 28 33 32 20 8 1 1 2 7 8 5 3 2 5 5 3 15 16 16 14 10 29 29 21 17 9 10 6 5 7 7 13 9 11 6
21 23 25 27 26 26 28 27 26 23 22 25 25 29 27 22 11 6 5 5 6 9 6 2 3 4 6 4 9 13 23 12 18 30 22 18 9 5 9 9 11 15 10 17 13 13 14
21 23 25 29 28 26 27 27 27 24 22 23 22 24 17 18 13 9 8 8 4 1 1 1 3 7 5 12 6 10 12 12 25 25 9 15 5 15 17 16 10 10 13 13 14 8 9
20 22 24 29 28 26 27 27 27 26 23 21 21 20 15 13 11 9 8 3 0 1 4 4 6 3 8 7 4 12 18 9 13 18 16 8 9 11 12 14 13 2 6 17 4 9 6
19 21 23 27 29 28 28 28 28 25 25 19 16 17 16 6 11 8 5 4 4 5 4 4 6 4 5 5 8 2 9 9 10 14 12 8 8 12 12 12 13 5 7 8 6 6 2
18 20 22 26 29 28 30 30 29 29 24 22 16 14 13 6 6 5 3 3 3 3 1 7 5 4 4 7 7 6 4 3 3 15 10 5 6 10 11 17 14 8 6 5 11 6 3
18 19 21 24 28 30 29 31 32 32 25 22 18 11 10 9 3 4 1 3 8 4 2 8 5 3 7 9 16 3 4 9 7 8 4 2 6 11 9 14 10 3 8 5 4 5 4
16 18 20 24 28 30 30 31 31 33 30 20 17 11 10 8 5 6 4 5 6 1 5 3 2 3 2 10 6 4 5 11 15 9 12 5 4 1 1 2 6 8 11 8 4 1 2
16 17 19 23 27 30 33 31 31 31 32 22 15 9 8 6 6 9 4 2 0 5 1 7 4 4 4 7 6 5 3 5 4 5 3 3 3 4 1 9 4 8 7 2 1 1 3
15 16 19 22 25 29 33 33 32 30 32 25 14 6 8 5 9 6 2 2 6 2 3 4 1 9 5 3 4 6 4 4 1 7 4 3 1 3 5 1 5 2 4 3 4 4 4
15 16 18 21 24 29 33 34 34 31 30 23 12 5 9 11 8 2 6 3 2 2 4 3 4 3 3 6 4 2 6 4 2 5 3 4 3 2 2 3 4 3 2 3 3 2 3
13 15 17 21 23 28 31 35 33 31 28 22 8 4 1 13 5 2 2 3 3 3 4 5 1 2 4 4 3 2 2 1 6 5 8 4 5 3 0 3 6 2 2 1 1 2 3
13 15 16 20 22 26 31 34 34 31 27 21 7 3 3 12 5 1 2 2 3 2 3 4 6 2 5 4 2 3 4 2 2 3 4 6 3 3 6 5 6 1 1 3 2 1 2
13 15 16 19 21 25 29 32 33 31 29 21 5 2 6 7 1 2 2 3 2 2 2 1 2 5 3 4 3 3 6 6 4 5 4 3 4 3 2 3 2 5 6 5 2 3 1
12 13 15 18 21 24 27 31 30 28 26 22 9 3 5 3 2 1 1 2 3 2 1 1 2 4 3 1 2 4 6 1 2 4 2 4 3 4 2 1 1 3 4 2 5 3 4
11 13 14 17 21 25 28 30 29 25 21 12 7 3 5 3 1 5 1 4 2 1 1 2 3 2 3 2 2 4 4 2 1 4 3 4 2 2 3 2 3 3 6 6 5 3 3
10 13 15 16 17 22 25 27 26 23 16 8 7 3 3 3 3 7 5 5 4 2 2 2 3 5 4 3 4 4 6 4 4 4 1 3 3 2 3 5 4 3 5 7 6 5 4
11 13 14 16 17 20 22 23 24 23 15 10 6 5 7 7 10 5 2 2 5 2 2 3 3 2 2 2 2 4 5 5 4 5 4 2 3 2 2 6 4 3 7 7 8 10 10
10 11 12 14 16 18 18 19 21 22 19 9 10 5 4 8 4 4 4 8 7 4 2 4 7 2 4 7 9 7 6 6 3 6 5 5 4 2 1 3 4 6 14 15 10 9 12
10 12 12 12 14 16 17 18 18 21 19 11 11 7 5 4 5 4 8 9 9 11 6 3 5 5 1 3 5 3 3 1 1 1 4 5 4 2 2 1 2 5 3 1 17 10 9
9 12 8 9 13 15 16 16 15 15 17 11 11 5 4 4 11 5 10 8 12 13 6 5 5 5 4 1 1 3 1 2 4 3 4 5 4 2 2 4 7 5 4 3 5 9 14
9 8 7 7 12 15 17 18 14 14 14 9 7 8 2 5 3 10 7 5 4 6 3 5 1 5 2 2 2 3 4 5 4 5 4 3 4 3 2 3 3 3 4 2 4 2 0
7 9 6 7 11 15 15 16 15 13 12 9 5 11 3 4 4 8 4 4 4 5 4 5 1 2 2 1 2 2 3 1 4 5 5 3 3 4 6 3 6 1 7 5 3 2 9
8 9 5 8 12 15 17 13 13 14 12 8 7 10 8 4 15 11 10 8 9 2 2 9 3 3 2 2 2 3 2 5 2 4 6 7 5 3 4 3 7 10 5 2 7 12 10
7 8 6 10 10 15 13 11 10 13 9 10 9 10 11 9 14 23 24 25 18 12 5 3 4 6 6 3 3 2 3 1 3 3 6 4 6 4 6 4 4 7 1 11 11 10 9

GFSGBSN_850_spd_057.txt.gz
Wind_Speed
22 23 23 24 24 24 25 25 25 24 23 23 27 29 31 31 28 21 14 10 5 8 8 8 7 7 7 11 20 10 9 19 29 32 31 26 30 18 8 9 17 10 10 17 20 10 19
22 23 24 24 25 25 26 26 22 23 23 24 26 30 34 32 25 14 8 6 3 5 7 5 5 6 11 9 10 16 8 13 28 32 35 27 24 21 14 17 9 15 18 6 9 10 5
22 23 25 24 25 25 26 27 25 23 21 24 26 30 32 26 16 7 4 4 4 6 4 3 4 5 8 18 7 11 7 8 29 34 34 28 18 23 9 5 20 9 10 3 8 9 2
21 23 24 24 24 24 25 28 26 24 22 23 25 28 27 24 14 8 6 5 5 6 4 3 1 5 7 4 10 2 5 11 16 27 26 28 25 26 1 5 8 5 7 5 8 10 5
20 22 24 26 26 24 26 27 25 25 22 22 23 23 21 22 16 11 8 7 8 6 2 2 2 4 6 2 9 10 10 14 14 28 29 26 22 7 6 5 4 4 5 8 6 14 7
19 22 24 26 27 25 26 29 26 25 24 20 22 20 16 13 13 11 8 6 8 10 8 3 4 3 3 7 5 12 11 20 8 29 29 20 10 4 4 5 13 13 9 14 9 6 7
19 21 23 25 27 27 29 30 28 24 24 21 18 18 16 9 8 8 8 6 3 3 1 0 2 5 9 13 2 7 8 16 10 25 8 17 6 16 15 4 4 8 4 11 8 6 7
18 20 22 24 26 28 28 31 29 27 24 21 17 15 14 11 7 6 6 4 6 5 6 3 4 1 4 7 3 7 9 5 9 13 12 6 7 5 11 10 6 6 9 7 1 9 10
17 19 21 23 26 28 29 28 29 28 28 24 17 12 11 7 8 10 9 4 3 1 3 1 4 3 4 6 3 6 9 1 16 8 11 9 8 10 11 11 11 5 7 5 5 3 4
16 18 20 23 25 27 29 30 29 27 28 26 19 12 10 10 2 7 6 3 7 7 1 4 3 6 3 5 7 3 5 5 3 16 11 6 4 10 5 8 5 5 4 2 15 6 4
14 17 19 22 25 28 29 31 31 29 27 28 18 11 7 8 6 2 4 2 6 6 4 10 4 4 5 2 2 0 0 3 8 6 4 2 4 6 4 4 2 5 7 6 4 5 4
13 15 18 21 25 27 29 31 31 30 26 28 15 9 6 5 4 6 10 9 2 3 4 4 3 2 3 5 2 11 3 5 12 10 11 5 4 3 2 4 3 1 8 8 5 3 1
13 15 17 20 24 27 30 31 32 31 27 24 13 5 8 4 3 6 4 3 4 5 3 5 3 5 8 4 3 1 4 4 4 5 4 3 4 4 5 2 4 3 6 2 3 1 5
13 14 16 18 22 26 29 31 33 31 28 20 11 3 8 7 7 1 1 2 9 3 3 4 2 6 3 5 4 3 4 4 2 5 3 3 2 2 3 3 5 4 5 5 6 4 4
12 13 15 17 21 25 29 33 32 31 26 20 5 4 8 11 6 4 1 6 5 4 3 4 3 1 2 4 7 2 2 3 3 3 5 5 2 1 3 2 3 4 2 4 3 2 3
11 13 15 17 20 23 28 32 33 30 27 19 3 3 2 10 1 2 4 4 3 4 3 3 2 1 2 3 3 5 4 6 4 4 7 5 5 1 2 1 1 2 0 3 2 2 4
9 12 15 16 19 22 27 31 32 30 27 18 3 2 2 7 1 4 3 3 3 6 2 2 4 4 2 2 4 2 3 3 4 5 4 7 4 3 3 4 5 3 1 1 2 4 4
9 12 14 16 19 23 27 30 29 30 26 18 3 2 5 5 2 3 3 4 3 3 3 3 2 4 2 2 5 4 4 2 3 4 6 2 5 3 2 6 7 1 5 4 4 4 1
8 10 13 16 20 23 26 29 26 25 24 21 5 3 3 3 2 3 2 2 0 3 1 2 1 2 3 2 3 4 4 3 7 3 5 4 2 3 3 2 4 3 5 4 2 2 3
6 10 13 16 19 22 24 26 25 22 16 13 5 3 4 2 1 1 3 4 3 2 1 2 1 3 2 2 1 3 2 1 3 2 2 2 3 4 5 3 4 5 7 6 6 3 3
6 9 12 16 17 20 21 23 25 22 15 9 8 3 4 4 3 4 2 4 1 4 2 3 2 4 5 3 3 3 2 1 1 2 2 3 4 3 2 4 3 3 5 8 8 5 6
7 9 11 14 16 18 20 23 25 25 16 13 5 6 7 7 14 5 3 4 2 3 2 2 2 6 4 3 2 4 6 5 4 3 3 1 2 2 2 5 5 3 7 8 7 6 7
6 7 8 11 14 18 20 23 22 24 19 10 10 4 1 6 6 3 3 4 6 8 1 1 3 3 4 3 3 6 5 3 8 7 4 3 5 3 3 2 3 7 13 14 6 6 11
4 6 7 8 11 16 19 20 19 18 19 16 15 7 5 3 4 5 9 7 8 7 3 8 5 2 2 1 3 5 5 5 4 4 7 5 4 2 3 2 1 6 3 7 16 7 9
3 6 5 6 9 14 17 17 17 15 15 13 13 7 3 3 6 4 12 5 13 14 4 3 1 2 2 1 2 2 2 0 3 3 1 4 4 2 3 3 6 2 3 5 7 7 12
3 3 5 3 8 11 17 16 16 14 12 9 10 11 2 3 2 7 5 8 3 4 5 1 2 4 1 2 2 3 4 5 3 3 2 2 2 3 2 1 4 3 2 4 2 4 3
2 3 2 3 8 11 15 13 13 15 11 9 8 10 6 4 3 14 3 3 6 5 4 4 7 2 1 2 1 2 3 4 4 5 4 2 1 4 4 2 6 6 4 4 3 3 1
3 1 1 4 7 8 12 11 10 14 11 10 8 9 11 4 19 4 6 8 8 5 2 8 3 2 1 1 3 3 3 4 1 4 6 6 5 3 4 3 7 5 3 4 3 6 12
4 1 1 2 6 7 11 11 10 11 13 8 7 10 13 12 19 26 23 21 22 13 6 5 5 3 5 2 1 2 2 0 4 2 2 3 6 4 7 5 6 12 1 7 12 11 8

GFSGBSN_850_spd_060.txt.gz
Wind_Speed
19 21 21 22 23 23 23 24 22 20 18 20 22 25 28 29 23 15 10 6 3 2 2 5 5 6 7 10 17 14 7 9 21 34 29 25 25 17 6 8 14 2 14 22 14 11 17
19 21 22 22 23 23 23 24 23 21 18 20 22 24 27 25 16 11 9 8 5 3 3 2 4 5 8 7 13 16 11 6 25 36 31 25 20 20 17 9 12 11 5 12 14 15 23
18 20 22 24 24 23 23 23 23 21 19 18 21 21 21 19 15 11 9 8 7 6 5 2 2 4 8 16 8 5 15 7 23 33 30 29 13 16 15 6 12 6 9 4 16 12 9
18 20 22 23 25 26 24 23 23 23 20 16 18 18 15 14 13 10 8 8 7 5 3 2 1 4 7 5 10 10 10 5 21 24 28 30 14 15 4 6 8 5 6 5 5 11 9
17 19 20 23 25 26 24 24 24 22 21 20 15 16 12 10 8 7 6 6 8 7 5 4 3 3 8 4 3 4 1 2 9 21 30 24 21 10 4 6 5 3 6 7 7 15 6
16 18 19 22 24 25 24 24 25 25 23 20 17 14 12 8 7 5 5 3 6 7 5 3 2 3 4 4 5 4 6 8 10 20 20 17 12 5 3 6 14 12 12 11 12 9 6
16 17 18 20 23 24 26 25 24 23 24 22 18 13 10 9 6 7 6 1 1 2 4 4 3 5 6 9 4 4 6 10 9 21 7 21 6 13 11 4 4 9 7 10 4 5 5
15 16 18 19 22 24 26 26 25 24 24 25 17 12 6 6 7 7 5 3 5 3 4 6 6 1 5 5 4 3 3 2 3 9 13 7 10 5 8 4 3 10 5 6 1 5 5
14 15 18 19 21 23 26 28 28 24 23 24 19 11 7 1 3 6 7 5 4 1 0 5 5 4 5 7 5 3 6 2 5 8 13 8 8 10 9 4 4 1 6 4 4 1 1
13 14 16 19 21 23 26 28 28 25 24 25 22 10 6 3 2 2 2 1 4 3 3 6 8 4 5 3 5 5 9 4 1 16 11 7 5 9 5 4 4 1 6 7 6 6 6
12 13 16 19 21 23 25 28 30 26 25 24 18 9 5 3 1 2 2 3 6 4 5 7 5 11 5 4 3 6 5 10 9 7 5 2 4 9 5 5 5 5 5 7 4 6 5
11 12 15 18 20 22 25 27 30 27 25 23 15 7 5 5 3 2 5 4 3 4 5 5 6 7 2 3 3 3 3 8 9 11 10 5 4 4 2 3 3 1 6 8 5 3 1
10 12 14 17 20 22 24 27 29 27 26 22 11 4 5 4 5 1 2 1 4 5 3 5 4 2 7 8 4 2 2 3 4 6 4 5 4 1 2 5 3 4 6 2 1 1 5
9 11 13 16 19 22 24 28 29 28 24 19 5 1 7 7 5 1 1 3 9 2 2 2 3 5 3 2 6 5 3 4 5 7 4 4 3 1 4 3 4 4 2 5 5 4 4
9 11 13 15 18 22 25 28 29 27 23 17 2 3 5 7 3 2 2 5 6 5 4 2 1 2 3 2 2 3 3 2 3 3 5 5 0 1 1 2 0 4 4 3 5 1 3
8 10 13 15 18 21 23 27 29 26 23 16 2 3 4 7 1 3 3 2 2 4 3 3 1 2 3 4 3 2 1 2 3 4 6 6 5 2 4 2 4 3 2 2 2 3 4
7 10 12 14 17 20 23 26 28 29 23 14 2 2 5 7 2 1 3 3 3 4 4 1 2 1 3 5 7 5 6 4 4 5 5 6 4 4 4 5 8 3 3 2 3 4 3
6 8 11 14 17 20 22 23 25 26 23 12 2 2 5 7 2 1 2 4 1 2 1 3 2 2 1 3 3 3 5 2 3 9 6 5 5 4 4 4 4 1 5 4 3 4 1
5 7 11 15 18 19 20 21 21 20 19 14 2 1 3 5 2 2 4 1 1 1 1 2 2 2 1 2 4 3 3 2 3 3 6 5 1 3 2 3 1 4 4 3 4 2 5
5 7 11 14 16 18 20 20 19 17 13 7 2 2 2 2 2 3 4 3 2 1 2 2 2 3 2 2 4 3 2 2 3 3 4 4 2 4 6 4 5 5 9 7 5 3 4
7 8 11 14 15 16 18 21 19 17 11 4 5 2 3 3 2 3 3 5 1 1 2 1 3 2 2 2 2 3 2 2 3 2 2 3 4 2 3 3 3 3 6 12 9 11 8
7 6 9 11 13 15 17 19 20 18 10 13 5 4 5 3 10 4 4 4 2 5 3 3 0 7 4 3 4 5 5 3 4 1 2 2 1 2 2 1 0 2 6 8 14 9 9
6 4 7 8 10 13 16 17 18 19 14 8 6 4 1 5 6 2 3 4 6 7 1 3 4 2 1 1 1 3 5 6 5 7 4 3 4 3 4 3 3 7 12 13 7 8 11
4 3 5 5 8 12 15 14 16 16 17 14 10 5 3 1 3 4 6 7 8 6 3 7 4 1 2 4 0 2 5 5 8 3 7 5 4 2 2 2 1 6 2 6 15 8 10
5 3 2 4 6 9 14 13 14 13 11 11 12 5 3 2 2 4 13 4 9 11 2 5 2 2 4 1 3 3 4 4 2 4 4 4 4 2 3 3 7 4 3 5 6 7 15
6 3 2 2 5 7 12 11 14 12 10 7 10 11 4 4 1 3 5 6 4 4 4 2 2 3 2 2 2 3 4 4 3 1 3 4 3 4 2 1 4 3 3 3 3 5 2
6 4 2 1 3 6 10 9 11 12 11 9 9 11 6 3 2 7 1 3 4 3 4 6 8 3 1 2 2 2 4 4 4 5 4 4 2 4 5 2 6 7 5 2 2 4 5
9 6 6 4 3 5 9 10 8 11 12 8 6 8 10 3 11 7 6 9 9 4 2 7 5 0 2 2 3 3 3 4 2 4 5 6 5 4 4 2 7 5 3 4 4 2 2
11 7 8 6 3 4 8 11 6 9 11 8 8 10 10 8 9 18 13 15 19 22 6 2 2 3 4 2 1 1 2 0 3 3 1 2 6 4 7 5 5 7 4 7 7 5 5

GFSGBSN_850_spd_063.txt.gz
Wind_Speed
18 19 21 23 23 22 21 21 21 19 17 16 17 22 23 21 14 12 11 10 8 6 2 1 3 6 7 7 12 7 5 14 16 20 33 18 20 17 7 9 10 5 14 20 15 13 6
17 18 21 23 23 23 21 21 22 21 18 15 15 20 19 16 11 10 9 10 9 8 5 2 2 4 6 3 8 13 10 9 10 19 35 23 19 21 10 11 9 9 9 17 16 11 7
16 18 20 21 22 23 23 21 22 21 20 18 12 17 12 12 9 9 8 8 8 5 2 1 2 5 7 13 2 4 15 11 6 24 37 26 11 22 9 5 16 8 7 9 13 14 5
16 17 19 20 22 23 23 22 21 23 20 21 15 13 13 8 8 6 6 8 9 6 3 3 1 2 5 5 2 9 12 11 6 22 30 27 12 24 5 7 9 5 4 5 7 17 7
15 16 18 19 21 23 23 22 22 20 21 19 18 14 13 8 6 7 6 5 6 7 4 3 3 2 4 4 4 3 8 4 9 19 29 23 18 11 3 8 5 2 5 5 8 18 10
15 15 17 18 21 23 24 23 23 22 21 21 17 12 11 8 6 7 7 5 1 4 2 2 4 4 5 7 3 4 8 5 5 18 17 18 12 4 2 6 17 14 9 9 9 16 12
16 14 16 17 20 21 23 25 24 21 21 21 20 14 8 6 4 5 4 1 1 2 4 2 4 0 9 11 9 7 3 2 2 5 7 17 9 14 8 3 1 6 5 10 3 8 15
15 14 16 17 19 20 23 25 26 24 22 21 21 14 7 5 3 4 3 3 6 1 1 6 3 1 4 6 3 5 4 4 4 3 5 7 11 6 7 5 4 6 6 6 2 6 11
14 14 16 17 18 19 22 26 27 26 23 22 22 13 7 5 5 1 3 4 4 2 0 5 5 4 3 6 4 3 7 8 2 6 10 6 9 9 8 4 6 2 6 5 5 4 3
13 14 15 16 18 19 22 25 29 26 23 23 20 11 7 4 5 3 2 3 2 2 3 5 6 3 5 3 4 9 5 3 2 14 14 4 9 9 8 4 5 3 3 5 6 6 4
13 13 15 16 17 20 22 25 28 27 24 22 16 9 6 2 3 3 1 3 3 1 5 7 5 7 5 2 5 2 2 5 2 8 4 1 7 9 6 5 5 2 3 5 1 3 2
13 12 15 17 17 19 22 24 28 28 25 22 14 5 5 4 2 2 4 3 2 5 3 4 3 4 3 6 5 1 2 6 10 7 11 5 5 4 2 3 4 5 6 7 5 3 3
11 11 14 16 18 18 22 25 28 27 25 20 11 2 4 3 3 1 2 0 4 6 3 1 3 2 4 3 2 1 2 4 4 5 9 6 3 2 3 5 3 3 5 2 1 1 4
10 11 13 16 17 20 23 25 27 27 25 19 5 1 5 4 3 0 1 3 8 2 3 2 3 5 3 6 3 4 2 3 2 9 5 3 7 1 4 3 4 3 4 5 6 4 3
10 10 12 14 16 19 23 25 27 26 24 18 1 1 5 7 2 2 2 4 6 5 4 4 4 2 2 2 1 2 3 1 3 1 5 5 2 2 2 2 2 3 2 3 5 3 3
10 10 11 12 15 19 22 24 27 26 24 17 1 3 5 7 3 4 3 3 1 3 2 1 0 4 4 4 3 2 1 2 2 1 1 3 6 1 2 4 1 3 2 2 3 2 4
10 9 10 10 14 18 19 22 25 25 21 13 1 2 5 5 4 2 2 4 2 4 3 1 3 1 5 7 6 5 7 3 3 3 7 4 3 2 5 6 8 3 2 3 3 4 4
10 9 8 10 14 17 18 20 22 22 18 11 0 2 4 5 2 2 1 3 2 1 2 2 2 2 2 4 2 2 5 2 6 10 6 3 4 4 3 1 4 7 5 7 4 4 1
12 9 8 11 16 17 18 19 19 18 15 10 1 1 4 6 3 3 5 3 1 2 0 2 2 2 2 2 3 2 2 1 5 6 7 6 1 3 2 2 2 5 5 3 3 3 6
12 8 8 11 15 15 16 18 17 15 10 3 1 1 3 4 3 0 3 3 3 1 1 2 2 2 1 2 4 4 2 1 2 3 4 7 3 5 7 5 4 6 12 10 6 4 6
11 7 7 10 12 13 17 17 16 14 8 1 2 1 1 1 1 2 2 2 3 1 1 2 2 3 2 1 2 3 2 2 3 4 4 4 5 3 5 2 4 5 6 14 10 15 10
10 6 6 8 9 12 16 16 15 14 6 5 0 3 3 3 3 2 2 1 3 5 3 2 1 4 2 3 4 5 5 4 4 1 3 1 1 2 2 1 1 3 6 10 19 17 12
11 6 6 6 7 10 14 15 15 13 12 5 4 1 1 3 3 2 1 3 4 7 2 6 2 2 2 1 1 4 6 4 5 7 4 3 4 3 4 4 4 7 8 12 7 7 10
12 7 6 4 5 8 11 13 14 13 14 12 7 4 3 2 2 2 3 4 3 3 4 6 4 1 2 4 1 2 6 6 7 3 5 5 4 2 2 3 2 6 3 6 12 11 10
13 8 6 3 3 7 9 10 12 11 10 12 12 5 3 1 4 4 8 4 8 9 0 4 3 4 7 1 3 4 4 3 2 4 4 4 4 2 3 3 6 4 1 3 5 6 9
13 9 7 3 2 4 7 9 10 10 8 8 10 10 5 3 2 4 4 4 2 4 5 3 3 6 3 2 3 3 3 3 2 0 4 3 4 3 2 1 4 4 1 3 3 5 3
14 12 7 5 2 4 7 8 7 9 9 7 8 10 5 3 1 3 1 3 4 3 3 3 8 5 3 1 2 2 3 3 3 4 4 3 1 4 3 2 6 7 6 4 2 5 9
16 14 10 8 5 4 6 8 6 7 9 8 8 11 10 4 8 4 2 8 8 4 2 6 6 1 2 2 2 3 3 4 1 3 5 6 5 3 4 3 7 2 1 4 4 6 6
18 14 12 10 7 4 6 6 5 7 8 8 7 8 9 4 6 14 5 5 6 13 10 3 1 5 4 2 1 2 2 0 3 2 1 3 6 4 7 5 5 4 10 6 10 8 6

GFSGBSN_850_spd_066.txt.gz
Wind_Speed
18 18 18 20 21 19 19 19 20 20 19 15 13 19 20 15 13 10 10 11 11 9 7 6 2 3 3 3 9 3 2 7 19 17 23 13 17 11 6 7 9 3 8 19 12 7 7
19 18 18 19 20 19 20 19 20 21 20 19 14 15 18 14 11 10 9 10 11 10 8 4 2 3 3 2 5 7 6 9 10 11 17 26 10 15 11 8 8 9 7 18 15 16 9
20 18 18 19 20 19 18 21 20 19 20 20 19 13 14 11 11 9 9 10 11 8 5 4 3 2 4 7 3 3 8 13 4 12 23 28 6 16 7 3 10 3 7 6 11 9 4
20 19 18 18 20 21 18 20 20 19 18 20 18 16 13 14 10 8 8 9 10 8 5 5 2 3 3 3 4 4 6 14 5 17 17 25 15 21 3 5 12 5 6 5 5 13 5
19 18 19 18 20 20 18 21 21 21 20 19 20 17 12 12 9 9 8 7 6 6 4 3 4 4 2 3 1 1 7 9 8 13 15 20 10 8 4 7 4 5 6 6 5 20 10
19 19 18 17 19 20 21 22 23 21 20 20 20 17 14 11 7 7 7 6 5 5 4 3 5 4 2 4 2 4 4 7 2 16 14 15 5 4 2 7 18 10 6 3 6 14 9
18 19 19 18 18 19 20 23 24 25 22 20 20 19 12 9 5 6 3 0 2 3 4 4 6 4 7 8 8 3 4 3 4 15 6 10 6 14 7 4 1 8 6 6 2 6 5
18 18 17 18 18 19 20 23 25 27 24 22 21 19 10 6 5 3 1 1 4 1 2 5 4 3 4 2 5 4 7 3 4 11 13 3 9 6 6 5 6 8 7 5 2 4 9
18 17 17 17 18 18 20 22 25 28 27 23 22 16 8 5 5 2 1 3 3 2 1 4 3 3 2 2 3 5 5 6 7 7 6 5 9 8 6 5 6 3 8 6 6 5 2
18 17 16 17 18 18 19 23 25 27 26 24 22 15 7 3 2 4 3 3 2 4 3 4 2 2 4 1 3 5 4 4 4 6 7 3 11 8 6 5 5 3 5 6 8 5 4
18 17 16 16 17 18 19 22 24 26 25 24 20 12 5 1 1 2 2 3 2 2 5 5 3 3 2 1 7 4 4 7 6 6 3 4 10 8 5 6 3 2 5 6 3 4 3
18 16 16 16 16 17 19 21 23 24 24 23 16 7 4 3 0 1 1 3 1 4 1 2 1 2 2 1 2 3 4 5 5 5 4 4 3 4 2 3 3 6 6 7 5 3 2
16 15 16 16 17 17 19 21 22 24 23 20 11 2 4 3 1 3 1 3 4 5 2 3 2 2 1 4 4 2 1 5 2 5 3 6 3 2 3 7 4 4 5 3 2 2 4
16 15 15 16 17 17 18 22 22 23 23 18 6 2 3 3 2 3 1 4 6 2 2 1 1 2 4 3 5 2 5 3 4 3 5 3 5 2 5 3 5 2 4 5 5 3 3
16 14 14 14 15 16 18 21 23 22 22 16 3 4 1 3 2 1 1 4 5 5 4 2 2 3 2 1 2 2 3 2 3 0 5 5 2 1 3 2 2 4 2 3 6 2 3
16 14 13 13 13 16 18 20 23 23 20 13 3 4 2 4 2 1 3 2 1 3 2 0 2 4 3 2 2 2 2 3 3 3 2 4 6 1 1 1 5 4 4 3 3 1 3
16 13 12 12 13 16 18 20 22 21 17 11 3 2 3 3 2 2 3 5 3 4 4 3 1 2 4 4 2 2 4 3 3 3 4 4 4 2 3 3 5 2 2 2 2 4 4
15 12 11 11 14 16 17 18 20 20 15 8 2 1 1 2 1 1 1 4 3 3 3 1 2 2 3 5 2 2 4 1 6 8 4 2 5 4 2 1 1 2 4 5 3 4 1
15 12 11 12 14 15 15 17 18 18 14 6 1 1 2 2 1 2 4 2 1 2 2 2 1 2 1 2 3 1 1 4 6 5 7 6 1 4 1 2 1 4 6 4 4 3 6
15 13 11 12 11 12 14 16 17 17 11 4 1 2 1 2 3 1 3 3 2 1 2 2 1 1 2 3 4 3 2 3 2 2 3 5 3 5 6 4 4 5 14 11 10 8 7
15 13 12 10 9 11 13 15 16 15 9 4 4 2 1 3 4 3 2 4 3 2 2 4 3 4 1 2 1 2 2 1 4 5 4 2 3 2 3 2 4 3 5 17 16 15 12
17 14 10 9 7 9 11 13 14 13 7 5 2 3 2 2 3 3 6 4 6 6 4 3 3 3 1 2 2 4 4 3 4 1 2 2 3 3 1 1 2 3 7 10 17 20 16
19 15 10 7 5 7 9 12 12 11 8 5 5 4 2 3 2 1 2 3 4 6 5 8 3 1 2 2 3 4 6 2 2 7 3 3 5 3 3 2 3 5 12 12 5 6 15
20 15 11 6 4 5 8 10 10 9 11 10 7 3 2 1 1 2 2 2 3 5 2 7 6 2 3 6 2 2 7 5 5 3 4 5 4 2 3 2 1 5 2 5 10 9 10
21 16 11 7 4 2 5 8 9 9 10 8 11 5 2 2 1 2 5 3 6 6 2 2 3 5 8 1 3 3 4 3 0 1 2 2 4 2 2 2 6 2 1 4 5 5 4
21 17 12 8 5 3 4 5 6 8 8 7 9 9 3 5 1 2 2 4 3 4 6 3 3 7 3 1 2 3 3 3 2 0 4 3 2 3 2 1 4 5 2 3 4 3 3
22 18 14 10 7 6 4 4 6 7 7 7 9 9 4 4 3 4 4 3 4 3 2 4 9 6 6 1 2 2 2 3 3 5 4 3 1 4 3 2 6 7 5 4 2 4 7
23 19 16 13 10 7 5 5 4 6 7 7 9 9 7 3 3 4 3 6 5 1 1 6 4 3 3 1 3 3 3 4 1 3 5 6 5 4 3 3 6 5 2 4 5 6 8
25 21 17 14 12 8 7 5 4 6 7 7 6 6 5 5 2 1 3 6 4 6 5 3 2 1 3 2 2 1 0 1 2 2 2 3 6 4 7 5 4 5 8 9 8 10 8

GFSGBSN_850_spd_069.txt.gz
Wind_Speed
19 19 19 20 20 19 20 19 19 18 20 21 16 11 16 17 13 11 11 12 13 13 11 9 6 4 2 3 4 2 4 4 15 18 20 17 21 14 10 7 11 6 10 22 11 9 8
19 19 18 20 20 19 20 19 20 18 17 18 18 14 12 15 12 13 10 12 14 14 11 9 7 3 3 2 3 3 2 3 14 20 18 17 16 14 11 8 6 14 5 15 15 13 7
21 20 19 20 20 20 20 18 19 19 18 17 19 17 13 12 13 10 10 9 11 12 8 7 7 5 4 6 2 1 7 7 1 13 9 23 17 15 12 5 9 8 10 4 11 11 5
21 22 21 20 20 20 21 19 21 19 19 18 19 18 16 10 13 9 10 9 9 9 7 4 5 6 3 4 6 3 6 7 5 12 7 19 18 10 5 4 9 5 5 8 6 16 3
20 22 22 20 19 20 21 20 22 21 20 19 18 18 17 12 11 8 9 8 6 6 5 4 4 6 3 3 2 0 4 7 11 8 11 16 14 10 6 7 4 5 6 6 7 17 7
20 21 22 21 19 20 21 20 21 23 21 20 18 18 18 12 8 6 7 6 4 3 6 4 4 2 0 5 1 2 6 8 7 12 16 12 2 3 3 6 17 10 6 5 9 12 8
21 21 22 21 19 19 20 21 21 24 22 21 20 20 14 10 6 5 4 1 1 1 3 3 7 5 6 4 5 2 4 5 13 14 5 6 2 11 7 3 5 7 7 8 4 10 8
23 22 22 21 20 19 20 20 20 22 24 23 21 20 11 8 4 2 1 2 3 1 2 3 3 4 4 1 2 2 6 3 4 7 11 5 1 6 8 2 8 8 7 4 3 12 6
21 22 21 21 19 19 19 20 21 22 24 23 22 18 9 6 3 3 2 3 3 2 1 4 4 4 3 3 1 4 5 7 5 10 7 8 2 9 5 5 9 2 7 4 6 4 2
19 20 20 21 18 19 18 20 22 22 22 24 21 15 6 3 1 3 3 4 0 2 3 1 1 2 1 1 3 2 8 6 4 9 10 3 2 8 7 5 6 4 5 6 10 5 4
16 19 20 20 18 18 18 19 21 21 21 22 20 11 3 0 1 3 2 3 1 1 4 5 0 2 1 0 8 2 2 4 4 8 5 6 18 9 6 7 4 3 6 6 4 4 4
19 21 19 17 16 17 19 18 20 20 20 20 19 5 2 1 1 3 2 2 2 5 0 1 1 2 2 3 1 5 2 3 10 5 4 5 4 3 3 3 4 7 7 7 4 2 2
19 19 18 16 15 16 17 19 19 20 20 19 15 1 2 2 2 4 2 3 4 5 2 1 2 3 2 3 4 2 4 3 3 4 2 6 3 1 2 7 2 4 5 2 2 1 4
22 17 16 16 15 15 16 19 20 20 20 17 10 2 2 3 5 2 2 3 5 2 3 2 3 5 3 1 3 1 5 2 2 1 4 3 6 2 5 3 5 3 4 4 6 5 3
22 17 16 16 13 14 15 19 20 20 19 15 4 4 1 2 3 1 2 3 5 5 4 3 2 4 2 2 3 1 1 4 3 2 4 4 3 2 4 0 2 3 2 3 5 2 1
20 17 15 15 13 14 15 20 19 19 17 12 1 4 2 2 3 0 3 3 2 2 3 1 2 2 3 3 2 2 2 2 4 2 1 3 5 4 2 1 6 2 6 2 2 1 3
20 17 15 15 12 13 16 18 17 17 14 8 3 3 2 3 1 1 2 4 2 4 3 3 2 2 2 3 2 3 1 1 3 3 4 4 3 2 3 2 5 2 2 4 3 2 2
20 17 16 14 12 13 16 15 15 14 11 6 3 1 3 2 1 2 2 3 2 2 3 2 1 1 3 4 3 1 3 3 4 7 4 2 5 3 1 2 1 2 4 4 3 4 1
21 18 16 13 11 12 13 13 13 12 9 3 3 2 2 3 1 2 3 1 2 0 0 1 0 1 2 3 3 1 3 1 6 4 6 5 2 4 2 1 3 4 4 3 4 3 5
23 19 16 12 10 11 10 11 12 11 6 1 3 1 2 2 3 2 2 2 1 2 1 2 2 3 2 3 4 3 2 2 5 1 4 5 3 5 6 3 4 5 6 8 7 5 8
25 20 17 12 9 9 7 9 10 9 4 1 3 2 2 2 1 3 1 0 1 2 4 6 3 3 0 3 1 2 1 1 3 4 3 2 3 3 1 2 3 3 5 11 14 17 9
26 20 18 12 8 7 5 7 8 7 2 2 4 4 4 1 1 2 3 2 2 3 3 3 4 3 1 2 1 5 3 3 3 2 3 2 2 3 2 2 4 3 7 8 14 15 18
26 22 18 13 8 4 3 5 6 6 3 2 5 6 4 2 1 2 1 1 3 2 1 5 1 1 4 3 5 5 4 1 3 6 3 3 4 2 3 2 2 5 6 11 5 5 15
27 23 19 13 8 4 1 4 5 5 4 3 6 7 4 2 2 2 1 2 2 3 2 5 5 2 3 8 2 1 7 7 7 4 4 5 5 1 1 2 1 4 1 3 10 6 9
29 25 20 14 9 6 4 5 5 5 6 5 7 4 4 3 4 3 3 2 2 3 2 2 3 5 7 3 2 2 4 2 3 4 2 2 4 2 3 2 5 2 1 3 4 4 5
29 26 21 15 11 9 6 6 5 5 5 6 8 6 4 10 1 3 3 4 1 3 5 2 2 4 2 2 1 3 4 3 1 1 4 3 4 3 2 2 4 4 2 3 3 3 3
30 28 22 17 14 12 9 8 5 5 6 6 8 6 5 8 4 3 3 2 1 2 1 3 8 4 5 2 2 2 2 3 3 4 3 3 2 3 3 3 6 6 5 8 3 4 6
32 30 24 20 17 14 12 10 6 7 6 7 8 7 7 7 8 7 5 2 1 1 1 4 1 4 3 2 2 3 3 4 2 3 5 5 5 3 3 3 6 5 4 4 5 4 7
35 30 25 22 20 16 14 11 8 8 6 8 8 11 15 8 10 8 10 8 5 1 0 3 2 2 2 2 2 1 0 1 3 2 1 2 5 4 7 5 3 8 7 9 9 13 14

GFSGBSN_850_spd_072.txt.gz
Wind_Speed
18 20 21 21 20 21 21 20 20 18 17 14 18 17 11 13 16 13 12 10 12 15 13 9 8 6 6 4 2 3 5 4 13 17 17 17 24 19 14 17 16 17 17 19 15 16 17
19 19 22 22 20 21 21 20 20 20 19 16 17 18 15 11 13 11 12 9 8 12 10 7 6 5 2 1 2 2 2 4 10 16 16 19 20 15 18 15 15 17 11 23 17 17 13
18 21 20 22 21 20 21 22 21 19 20 17 17 18 15 10 9 12 9 8 7 8 8 5 5 4 3 2 3 1 2 3 6 16 15 15 16 12 13 10 11 9 14 14 22 19 7
22 21 21 22 22 20 20 21 21 20 19 19 17 18 16 14 9 10 7 8 6 6 6 5 5 5 1 4 5 2 5 4 3 7 7 14 15 11 13 6 15 9 16 10 18 23 7
21 21 20 22 22 20 20 21 20 22 21 19 18 18 17 14 9 7 5 6 5 3 5 4 6 6 2 4 3 1 5 5 5 6 8 10 10 7 9 13 12 12 11 20 8 17 8
26 19 20 21 23 21 19 20 19 21 22 20 19 18 17 12 7 5 4 3 2 3 5 3 4 2 2 5 6 1 4 8 9 12 8 11 4 2 13 15 16 18 15 18 14 13 12
22 21 21 22 21 21 19 20 19 20 22 20 19 19 16 11 6 3 2 1 1 2 2 2 5 3 5 5 3 1 4 6 8 11 8 4 4 5 22 17 6 15 12 14 11 10 14
17 22 22 21 21 22 18 19 19 20 21 22 20 19 12 7 5 2 2 2 2 1 1 3 4 3 2 2 2 2 7 6 5 2 10 4 2 7 15 10 10 16 16 13 8 14 13
21 21 23 20 20 21 18 18 18 19 20 22 21 18 9 5 2 3 3 4 1 1 1 3 2 3 1 2 1 1 6 3 6 7 9 9 7 12 17 11 10 15 17 15 11 11 8
20 19 18 19 19 20 18 17 18 18 19 21 21 15 4 2 1 3 3 5 1 1 2 2 2 2 2 3 3 5 5 3 2 5 10 3 5 8 16 13 12 13 10 13 15 13 6
22 21 19 19 19 20 18 17 16 18 18 19 19 10 1 0 1 2 2 4 2 1 0 3 2 0 0 3 6 1 7 4 5 9 5 5 8 12 16 14 8 5 11 10 10 9 4
23 23 20 19 19 18 17 16 15 16 17 18 16 4 2 2 1 2 2 2 2 1 3 0 1 3 1 2 1 3 2 4 12 4 5 9 11 3 6 3 2 14 12 9 4 4 6
23 25 20 19 18 17 16 15 15 15 16 17 12 2 3 3 2 3 3 3 1 2 1 2 1 2 2 3 3 5 4 4 3 5 6 13 11 2 0 12 9 9 17 4 4 5 5
24 23 21 19 17 15 15 14 14 16 15 14 6 5 4 4 4 3 3 2 2 1 4 1 3 6 2 1 1 1 6 3 3 4 10 3 7 5 1 6 7 14 10 4 6 5 4
24 24 23 19 16 14 14 13 15 15 12 10 0 6 5 5 2 3 1 1 2 4 3 5 5 3 3 2 1 3 1 4 5 10 2 5 2 1 2 2 1 6 4 3 4 1 2
27 27 23 21 16 12 13 13 14 12 10 5 5 7 5 5 3 2 1 1 1 2 1 2 1 1 3 4 3 2 2 3 5 1 2 4 5 1 2 2 7 3 10 3 1 4 4
26 28 23 20 14 12 12 12 11 10 6 1 8 6 6 5 4 1 2 2 1 4 4 2 2 2 3 5 2 2 1 1 1 3 2 5 4 3 4 2 8 4 4 1 0 2 1
30 29 23 19 14 12 10 11 9 7 3 5 6 3 9 7 2 1 2 3 2 3 4 3 2 1 3 4 2 1 2 1 2 5 5 1 5 4 5 3 2 2 6 12 5 5 1
34 29 24 18 14 11 9 9 7 4 3 7 6 5 7 8 2 2 2 2 2 2 2 2 3 2 2 5 3 1 2 2 3 0 2 5 4 5 2 2 1 5 9 5 3 2 6
35 30 24 19 14 11 8 8 5 3 5 9 6 3 3 4 2 2 2 2 3 1 2 1 1 1 3 3 2 4 3 2 3 1 4 3 3 3 5 2 5 7 13 13 8 5 12
40 31 25 19 15 11 8 7 3 2 7 9 4 2 4 3 3 3 1 0 3 2 2 2 2 3 1 3 3 3 2 4 3 4 2 0 3 2 1 3 3 3 8 15 13 18 13
40 32 25 20 16 11 9 7 4 5 7 8 5 5 4 3 3 4 0 2 2 3 2 1 3 2 1 2 3 3 4 4 3 3 2 1 3 2 1 1 2 3 8 9 14 16 15
40 35 26 21 18 12 9 8 6 6 8 6 7 9 6 2 4 4 3 2 3 1 4 6 2 1 5 3 3 6 3 3 1 6 4 3 4 2 1 1 2 6 13 12 8 9 13
38 34 27 23 18 13 11 10 8 6 6 6 9 11 5 3 2 2 3 1 2 2 2 3 5 0 2 5 1 1 4 6 5 4 2 7 7 2 3 3 4 2 2 1 11 11 14
38 35 29 25 19 15 14 12 10 7 6 6 11 7 6 4 6 4 4 2 2 2 2 2 4 5 7 1 2 3 2 2 2 3 2 2 5 3 3 5 4 3 3 4 4 2 3
39 36 30 26 20 17 16 14 11 7 6 7 9 10 7 10 3 5 4 2 2 2 2 1 1 3 4 1 1 4 4 2 4 3 2 3 2 4 3 3 4 3 4 3 3 3 1
43 36 32 27 22 20 18 15 11 8 8 9 11 12 9 9 4 4 2 3 3 2 2 1 5 3 4 2 2 3 3 2 4 4 4 4 3 7 6 5 4 3 5 5 4 3 1
42 37 33 27 23 22 19 17 13 10 10 10 13 13 11 8 8 7 4 4 3 2 2 1 2 1 1 2 3 3 3 3 2 0 3 7 6 4 5 5 7 8 7 4 2 2 5
40 38 33 28 25 24 21 18 14 11 12 12 17 18 23 11 13 13 8 7 5 5 5 2 3 2 1 1 0 2 2 2 2 3 2 4 3 2 5 3 2 9 3 2 6 10 12

GFSGBSN_850_spd_075.txt.gz
Wind_Speed
23 21 21 23 21 21 20 21 21 21 21 17 15 18 20 15 12 16 13 13 9 12 15 11 11 8 7 5 3 5 7 9 9 16 17 17 18 22 17 22 20 24 17 24 27 9 14
22 25 21 21 21 21 20 20 21 21 22 20 16 18 19 17 12 12 15 12 10 10 12 10 9 8 6 5 4 5 8 6 6 17 16 16 17 19 14 18 20 19 18 21 17 11 18
29 28 23 22 23 20 21 20 21 21 22 22 17 18 18 19 15 12 14 10 9 9 10 8 7 6 5 4 6 7 5 5 2 13 14 11 14 20 9 15 16 5 20 9 16 14 11
30 29 26 23 21 20 20 20 20 20 22 22 19 18 18 18 16 10 12 7 8 7 8 6 7 5 4 5 5 6 3 2 3 6 3 12 4 12 16 7 16 10 17 13 17 21 9
29 29 27 20 23 20 19 19 20 19 21 23 20 18 18 18 13 10 7 6 6 5 7 6 5 5 3 4 5 6 2 0 2 4 3 9 2 2 7 14 13 11 13 18 17 19 10
28 38 26 24 24 21 19 19 20 19 20 23 21 20 18 16 11 9 4 4 3 3 6 4 5 4 3 5 6 4 2 2 3 6 5 3 2 3 6 11 17 14 15 19 13 16 18
27 25 24 25 24 20 18 19 19 19 19 22 23 20 18 13 8 6 2 2 1 3 1 3 5 4 4 8 1 1 1 4 3 6 4 2 3 11 19 18 16 16 17 19 20 10 14
29 27 23 22 25 23 19 18 18 18 18 21 21 20 16 9 6 2 2 2 2 1 3 0 2 2 5 2 1 2 4 6 4 5 5 4 6 9 8 18 8 17 19 11 3 10 13
32 30 27 24 22 23 20 18 17 18 17 20 20 19 13 6 2 2 3 3 2 1 4 3 2 2 1 3 3 2 4 3 5 5 7 5 7 9 7 14 14 17 18 14 13 9 13
33 30 26 22 21 21 19 18 16 16 16 17 19 17 9 1 2 3 2 5 2 1 2 3 1 2 2 3 1 6 7 3 2 5 10 9 8 7 12 17 12 11 13 14 11 13 7
33 34 30 25 24 22 18 17 15 15 15 16 17 14 4 3 2 1 4 4 2 1 1 2 2 1 0 0 11 5 7 3 9 8 6 6 13 11 14 16 9 10 8 9 9 12 5
34 34 29 24 27 22 18 16 14 13 14 15 15 7 3 3 2 3 3 3 2 2 1 0 1 1 2 2 6 9 3 2 7 4 8 9 13 3 7 8 1 9 11 8 4 7 8
37 34 33 26 28 22 17 16 14 12 13 13 10 2 4 6 2 2 1 3 2 2 1 4 2 2 4 1 1 2 4 3 3 5 4 7 8 4 6 9 9 16 16 5 5 4 6
38 35 34 28 28 22 16 16 13 11 12 11 4 6 5 6 6 4 4 3 3 1 4 3 4 5 3 5 2 2 2 3 2 5 10 4 3 4 7 10 7 14 17 4 5 7 10
39 38 36 29 28 21 16 16 12 11 10 7 4 8 4 8 4 3 2 3 1 3 5 6 7 3 4 2 2 3 3 2 2 10 1 5 2 2 1 3 5 9 4 4 3 5 0
39 40 38 30 29 20 17 15 12 9 8 4 8 7 6 8 3 3 1 3 0 1 2 3 3 2 3 5 6 4 2 2 5 4 4 4 4 3 4 3 1 4 9 4 1 4 5
41 41 38 32 31 20 18 15 11 8 7 6 10 5 6 7 5 3 1 2 1 4 3 3 0 3 4 6 6 5 4 3 4 5 4 6 6 3 8 7 10 4 4 4 3 2 3
44 43 38 37 29 20 18 14 11 8 7 12 7 3 11 9 3 1 2 3 1 4 4 2 2 2 4 6 5 3 4 2 5 6 6 2 4 4 6 3 4 5 12 12 5 5 2
47 43 38 38 27 20 18 15 12 10 11 14 6 5 11 11 3 4 4 3 2 5 4 3 2 1 1 5 2 2 4 2 5 3 5 5 5 4 1 4 5 6 11 8 10 3 4
50 44 35 36 28 21 20 15 13 12 13 17 7 4 5 10 8 6 6 5 5 3 2 2 1 3 5 4 0 5 5 3 4 3 2 2 4 4 3 4 3 8 15 14 9 5 10
43 38 38 39 28 23 20 16 14 14 16 18 6 3 6 4 7 7 3 4 7 5 2 3 4 3 3 4 4 4 4 6 4 4 2 2 3 2 1 3 3 3 12 17 14 17 10
40 37 34 39 29 25 21 17 15 15 20 17 6 5 4 4 6 8 5 6 9 4 2 4 3 2 2 1 4 3 3 3 3 6 5 2 2 2 3 1 3 6 9 11 18 19 18
45 40 35 40 28 24 20 18 17 18 23 9 12 10 5 5 6 7 5 6 7 5 3 3 1 2 6 4 5 4 3 2 3 3 8 4 4 3 2 1 3 8 14 15 11 10 12
40 41 37 38 29 24 20 18 18 19 21 12 12 12 5 4 6 4 5 5 7 4 4 3 2 2 3 4 2 1 1 2 3 2 3 4 3 1 0 3 4 2 3 2 7 11 8
43 39 41 36 29 25 22 20 19 18 19 14 13 9 4 5 7 7 7 6 5 4 4 4 4 3 4 2 3 4 3 2 4 2 4 3 5 2 3 6 9 8 4 2 3 5 5
47 44 45 35 30 26 22 20 20 17 15 14 17 12 6 10 3 9 9 5 4 6 5 4 2 0 3 1 3 6 5 4 5 4 2 4 5 4 2 4 4 6 6 2 1 5 4
48 44 42 34 30 27 22 22 21 18 16 15 16 14 8 8 4 6 4 5 2 2 2 4 2 2 2 2 2 4 4 1 4 4 4 5 5 9 7 4 7 5 7 4 4 4 3
50 41 39 33 32 28 25 24 21 18 16 15 16 15 11 8 8 6 5 4 3 2 3 5 4 3 2 4 3 3 3 4 2 2 2 6 5 4 5 4 7 10 7 5 8 5 6
53 45 40 34 32 29 27 25 22 18 16 13 20 16 22 10 10 10 8 5 6 4 3 2 3 3 2 2 2 3 3 1 3 2 2 4 3 2 4 1 4 6 3 3 8 10 10

GFSGBSN_850_spd_078.txt.gz
Wind_Speed
28 28 31 28 23 21 22 20 22 23 22 22 21 17 19 19 16 11 12 15 13 10 14 15 12 12 11 9 6 8 9 4 6 11 16 15 19 15 14 17 21 14 11 21 16 5 6
28 26 29 34 25 22 22 22 19 21 23 23 23 19 18 17 19 14 10 14 9 11 11 13 9 8 9 5 6 9 8 13 9 14 15 12 10 18 15 17 20 24 22 15 17 14 2
29 29 28 36 30 23 22 22 21 20 21 23 23 22 18 18 19 15 10 12 7 10 9 9 7 7 9 4 7 10 8 11 8 11 15 10 15 9 7 10 24 14 15 4 10 13 4
30 30 30 33 34 25 22 23 21 19 20 22 23 23 19 18 19 14 9 8 6 7 7 7 7 5 4 7 7 8 6 5 6 5 7 8 9 9 4 15 11 8 3 8 9 7 4
32 30 32 33 36 29 24 23 21 19 19 22 22 23 20 20 16 11 9 4 5 4 6 5 5 6 3 4 8 5 4 6 4 4 4 2 4 7 2 5 5 11 8 16 16 19 4
32 31 30 30 28 28 26 22 21 19 19 21 22 23 21 20 13 9 3 3 2 2 7 4 6 4 4 7 8 4 3 4 3 4 7 1 5 3 2 4 10 10 8 9 11 12 9
34 31 31 30 29 26 27 21 21 19 19 21 21 21 21 19 11 7 2 3 3 0 3 2 5 6 4 9 3 2 1 2 3 3 3 4 2 7 10 8 7 10 11 13 10 10 14
33 32 32 32 29 30 24 21 21 18 19 19 20 20 20 14 8 3 1 1 1 1 2 1 1 1 7 2 1 1 4 2 3 4 4 4 3 5 7 15 6 2 11 4 3 8 2
28 32 32 33 32 34 22 20 20 17 18 18 18 19 18 9 4 2 4 4 3 0 4 3 1 1 1 3 2 1 2 3 2 2 4 2 5 8 4 2 2 8 11 13 6 6 10
30 30 33 33 32 31 26 21 20 16 16 17 16 17 15 2 3 0 2 7 3 3 1 4 2 2 2 1 0 3 2 2 2 5 2 4 5 7 5 7 8 8 17 13 16 7 4
37 28 33 34 34 33 33 23 19 16 14 15 15 15 10 6 3 1 6 3 3 3 1 2 4 1 2 2 6 3 1 2 5 5 5 3 10 6 5 8 13 5 13 4 7 8 1
43 34 30 33 36 34 34 24 17 15 14 14 13 12 4 4 3 6 3 4 5 1 2 1 4 4 4 7 4 4 1 2 1 2 2 3 11 4 2 10 5 5 7 9 2 3 2
40 39 31 35 37 35 34 29 17 14 13 13 11 7 7 6 3 2 5 4 1 2 4 3 3 4 4 4 5 6 6 4 3 5 6 12 5 1 3 1 6 7 7 3 2 1 3
42 40 33 34 36 35 35 27 16 13 13 11 7 6 7 4 6 3 8 2 2 1 4 1 5 6 3 4 2 9 6 4 8 4 4 4 1 3 6 4 2 6 5 4 4 3 4
38 36 35 32 37 36 32 26 15 13 12 8 6 9 5 8 7 5 3 2 1 4 5 6 6 4 3 4 0 3 3 3 1 1 1 4 3 3 4 3 4 2 3 1 4 4 4
36 33 37 31 38 35 32 26 16 14 11 7 11 9 6 8 6 5 2 4 2 3 3 5 3 5 3 4 4 4 1 2 4 4 6 4 5 3 2 3 2 4 2 2 3 1 1
37 35 34 32 38 36 33 25 18 16 11 13 14 6 6 9 7 3 2 4 1 5 2 1 5 3 3 4 5 4 5 1 1 3 4 1 4 2 2 4 5 2 2 2 1 3 0
31 34 36 30 36 36 35 25 21 17 15 19 12 3 8 11 4 2 3 5 1 7 5 2 3 1 3 6 4 2 3 1 3 3 1 6 1 3 3 5 3 6 2 7 3 3 1
36 28 34 25 36 33 34 25 23 19 18 24 10 6 12 14 4 4 6 4 3 5 5 4 3 1 4 3 2 5 6 1 6 4 3 3 2 3 2 3 4 5 5 6 1 3 3
32 24 29 30 43 28 34 25 24 20 21 22 9 4 4 11 12 5 6 7 6 1 1 1 2 2 3 4 1 4 5 2 2 2 1 4 4 0 3 1 2 4 8 8 5 2 3
30 24 25 36 41 31 32 26 24 22 24 23 9 5 10 5 8 10 2 7 7 5 2 5 4 5 3 2 4 4 8 5 4 1 1 2 3 3 2 2 2 0 4 8 7 11 5
29 25 31 41 35 34 30 27 24 24 26 25 8 5 9 1 4 10 5 5 9 4 1 6 3 3 4 5 7 2 5 6 5 5 5 1 2 3 2 3 2 3 7 8 12 11 10
29 27 30 43 39 39 31 29 28 28 29 13 15 11 7 6 5 6 7 6 6 10 2 5 4 2 4 5 5 4 5 4 3 5 6 6 4 2 1 2 2 5 12 13 7 7 10
31 27 28 44 41 41 32 29 28 27 30 15 18 15 5 3 4 4 3 5 8 3 3 4 4 3 3 2 2 2 3 1 0 3 4 1 3 2 1 1 1 4 5 5 8 6 7
25 20 38 35 41 36 30 27 26 25 30 24 15 11 4 3 7 6 7 6 10 6 4 5 5 3 3 1 1 3 2 3 5 2 3 4 4 2 2 2 6 2 3 1 2 3 6
20 20 51 33 39 34 31 25 24 24 29 28 15 13 6 9 1 9 8 12 4 4 4 4 3 3 3 1 1 3 4 5 5 4 1 2 3 2 1 1 3 3 4 4 1 1 7
23 27 48 38 35 29 28 24 22 23 25 25 18 15 8 9 3 5 4 3 3 4 3 5 3 2 3 2 2 1 1 5 3 4 4 3 3 4 4 1 6 7 8 3 2 2 7
26 39 32 37 36 32 27 23 22 23 24 22 20 17 13 9 9 5 7 6 4 2 3 5 4 2 2 2 2 3 1 1 1 2 5 5 3 3 3 3 6 10 4 1 1 7 8
20 39 31 43 38 32 28 27 23 23 25 18 23 18 15 12 10 11 11 9 9 8 7 4 3 5 2 2 1 2 2 1 1 1 3 2 1 2 3 2 2 9 7 7 3 4 6

GFSGBSN_850_spd_081.txt.gz
Wind_Speed
27 27 27 25 31 32 28 20 21 21 23 22 21 22 19 19 16 17 14 10 15 11 12 13 11 11 8 7 6 13 11 15 8 12 14 16 8 11 9 10 9 11 7 10 5 7 13
28 28 27 28 27 31 34 22 21 21 23 23 21 22 21 19 18 18 15 10 13 9 11 10 8 9 7 7 5 12 9 16 11 10 19 15 8 13 14 5 13 13 10 10 10 4 6
29 30 30 28 28 29 30 24 24 22 23 23 21 22 21 20 18 18 14 8 11 8 8 8 6 7 8 10 11 10 9 14 11 17 18 14 11 9 0 4 11 14 9 5 8 12 4
29 30 31 30 29 30 28 24 27 21 21 22 21 21 22 22 21 18 13 11 6 6 4 6 2 3 5 4 7 10 6 9 10 10 14 8 5 8 3 10 5 8 3 6 9 8 4
31 30 30 31 30 30 28 24 27 21 20 21 21 21 22 23 22 15 10 5 5 3 4 2 3 5 5 6 11 9 5 9 6 8 9 3 6 6 1 1 4 8 5 9 6 8 5
38 29 29 29 30 31 28 28 23 20 19 21 21 20 22 22 21 12 4 3 2 0 2 3 6 7 3 4 12 5 4 7 4 5 9 7 7 2 2 1 7 8 6 10 9 10 8
45 38 29 27 29 32 28 27 24 21 19 19 19 19 21 21 16 8 1 2 2 1 2 2 5 7 5 12 3 5 4 3 5 3 3 5 2 6 5 3 4 5 5 7 9 14 8
50 50 39 28 26 31 30 29 28 21 17 19 18 18 20 18 10 4 2 0 2 0 1 3 1 3 5 5 1 4 3 2 4 3 4 3 2 3 5 6 6 4 3 2 5 17 7
36 46 49 39 25 26 32 30 31 22 16 18 17 16 18 14 4 2 4 3 4 2 2 2 2 1 2 1 3 4 5 3 5 3 4 3 3 3 4 4 1 3 3 4 8 9 2
39 37 43 48 35 24 34 30 32 24 15 16 16 14 15 6 2 2 2 3 4 2 3 2 1 2 2 2 1 1 2 4 5 2 4 1 5 5 10 5 4 3 7 4 8 4 4
43 40 39 43 46 27 30 32 30 27 16 15 15 12 12 6 4 3 5 5 3 2 1 5 3 0 1 1 6 1 1 1 3 1 2 3 2 4 5 6 8 5 9 8 9 6 5
44 43 39 43 38 38 28 32 33 25 18 14 13 10 8 8 5 4 4 5 4 3 4 2 4 3 3 5 3 4 1 1 4 2 4 1 5 1 1 5 8 8 2 9 6 2 1
44 45 44 43 41 38 28 34 31 26 17 14 11 8 7 8 3 3 6 6 2 2 3 3 4 4 6 4 4 1 3 3 3 5 2 7 3 3 1 3 2 1 6 3 2 2 4
43 41 43 41 47 38 32 39 30 30 16 15 9 6 10 7 6 6 12 2 2 2 5 3 3 4 3 4 3 3 0 0 2 1 3 2 2 3 1 2 5 7 4 4 4 3 3
44 43 43 43 43 35 31 41 28 27 17 14 10 14 12 10 10 12 5 2 3 5 5 5 4 4 3 3 2 6 6 4 4 11 2 4 2 3 4 3 2 5 3 2 4 2 4
43 44 44 43 45 37 29 41 26 25 20 17 17 13 10 12 10 9 2 5 2 5 4 6 3 4 5 6 3 5 4 3 2 2 1 2 4 3 2 3 2 3 3 3 3 1 3
44 51 42 41 30 34 29 41 30 25 22 22 19 11 12 14 12 6 3 5 3 4 1 1 6 4 3 5 3 4 6 2 2 2 2 3 4 1 3 0 2 3 2 2 3 4 3
44 52 47 26 28 19 31 45 27 29 28 28 18 3 15 17 4 3 4 5 3 6 2 1 0 2 2 5 5 2 4 4 6 4 2 2 5 3 3 3 3 2 2 1 4 3 1
43 46 41 24 24 24 46 41 23 35 37 33 20 7 15 19 4 4 5 3 3 5 4 4 3 0 2 2 3 5 4 4 2 2 2 2 2 3 2 3 3 2 3 3 2 3 2
42 41 41 21 22 27 54 38 33 33 37 25 12 4 6 13 9 1 4 5 4 3 3 1 2 2 0 3 4 4 2 1 3 4 3 4 3 5 5 4 4 4 6 5 4 3 2
38 42 36 29 17 21 47 30 36 35 38 24 9 5 10 6 8 11 3 7 6 4 2 5 1 2 2 3 3 4 3 2 3 3 3 3 3 3 2 3 2 2 4 7 7 6 6
38 39 31 24 9 33 41 35 36 36 40 24 12 6 11 7 7 13 6 5 7 4 4 4 2 4 3 4 1 3 4 3 4 1 2 2 1 2 2 2 1 3 5 6 6 4 7
37 35 31 27 24 37 39 37 38 41 40 19 12 10 7 4 5 6 5 5 6 9 3 5 3 5 5 3 3 3 3 4 3 6 5 4 4 2 3 2 2 5 8 10 5 4 7
36 29 30 22 21 32 39 38 39 40 38 16 24 15 5 2 3 5 5 4 8 3 6 4 10 5 3 3 3 2 1 3 6 4 4 5 3 2 2 3 1 6 1 2 11 3 6
33 31 33 13 24 34 38 37 36 34 38 24 20 13 5 3 5 4 9 7 12 13 5 5 4 7 6 4 3 3 3 2 1 4 4 4 4 2 3 3 4 2 3 2 4 0 4
28 30 27 17 27 28 41 36 32 31 34 29 14 11 5 9 0 1 6 13 5 4 3 3 5 7 4 2 1 4 4 4 3 1 3 4 4 3 2 2 3 3 2 2 3 2 4
24 22 21 25 27 41 39 33 31 30 31 29 16 12 7 9 6 7 4 6 6 5 4 5 4 3 3 2 2 2 2 3 4 7 4 1 1 5 3 2 5 4 2 2 2 3 8
20 18 14 22 30 35 35 30 27 26 26 28 18 14 9 9 11 7 7 6 6 7 4 6 5 2 3 2 1 3 2 3 2 6 6 5 5 3 4 2 5 2 3 1 3 8 9
14 15 14 28 31 31 28 26 23 21 22 25 20 15 10 11 13 15 14 11 10 9 12 4 3 3 4 3 1 1 0 2 3 3 1 1 5 4 5 4 2 7 12 9 8 7 7

GFSGBSN_850_spd_084.txt.gz
Wind_Speed
26 26 26 26 27 27 27 31 34 21 20 21 21 21 19 20 18 16 17 13 8 13 10 12 11 11 11 7 8 12 16 12 15 10 15 14 16 15 7 11 5 10 8 21 8 7 8
28 31 29 27 27 28 29 29 32 27 22 19 20 20 20 19 19 17 17 13 7 11 8 9 9 9 8 4 8 13 15 19 20 14 18 16 8 12 6 6 12 19 10 18 22 5 8
34 31 31 31 28 27 28 30 31 32 24 19 18 19 19 19 21 19 17 8 7 7 6 6 6 8 8 7 8 11 13 20 13 20 18 16 14 6 5 3 5 7 9 6 13 17 3
42 36 34 31 31 29 27 30 30 34 27 19 18 18 18 19 21 20 12 6 4 3 3 4 3 7 7 6 10 18 11 15 9 11 15 17 14 14 3 4 3 9 6 7 6 16 4
35 37 37 35 34 29 28 28 30 33 29 19 18 17 17 18 20 19 9 2 2 1 1 2 0 6 8 9 12 9 4 10 8 8 11 3 7 3 1 2 4 3 3 9 4 6 5
31 30 35 40 39 38 27 26 29 32 31 20 17 16 17 16 18 13 5 0 0 2 3 3 3 6 5 9 13 5 2 6 4 4 7 6 6 3 3 1 8 6 6 3 6 4 5
35 35 30 32 40 41 40 26 26 30 33 24 18 15 14 15 17 9 1 2 2 1 4 3 2 5 8 10 3 7 2 5 4 5 2 7 2 3 3 2 4 3 10 8 6 10 5
36 37 37 33 33 38 37 35 25 29 31 28 17 15 12 13 13 4 3 3 2 1 3 6 3 4 6 5 4 7 5 4 4 3 3 4 1 2 10 2 6 3 10 7 5 12 9
39 38 37 37 37 37 39 33 35 29 29 30 17 13 10 11 5 1 5 2 2 3 1 3 1 1 3 3 2 4 9 5 4 4 4 5 2 6 6 4 8 5 9 6 7 12 10
39 36 40 45 41 36 41 39 37 27 30 32 19 10 7 8 2 4 3 3 3 2 3 3 2 0 2 2 2 2 4 3 5 2 3 4 4 3 7 2 0 5 5 2 13 12 3
41 42 42 44 48 42 38 45 35 30 37 31 21 10 6 6 6 6 4 1 5 3 3 4 3 2 0 2 1 1 3 2 3 2 1 3 9 6 3 3 5 3 4 5 6 3 3
40 40 42 44 42 47 38 41 39 30 37 30 21 10 6 7 10 7 5 6 7 3 4 2 5 3 4 7 0 1 2 4 1 2 1 2 3 1 2 3 4 3 3 8 7 3 0
40 41 40 42 46 45 41 39 38 29 37 35 20 11 6 10 8 9 9 10 2 2 1 4 4 4 4 3 3 2 3 1 2 4 2 3 2 3 1 5 5 2 4 2 2 1 3
41 42 40 38 41 40 40 37 36 38 37 38 19 13 11 13 9 11 15 3 4 5 5 3 4 3 4 6 4 2 4 3 2 2 2 2 2 3 2 3 6 3 4 4 4 4 3
41 41 41 40 41 37 40 37 35 35 35 34 21 21 16 13 14 16 7 2 6 6 6 7 3 3 3 2 4 4 2 5 5 6 2 2 3 2 3 2 2 3 1 2 5 2 3
40 42 41 40 39 45 43 39 35 35 41 33 30 24 17 18 16 17 2 5 4 4 5 4 5 5 6 5 4 4 2 3 4 6 8 0 4 3 3 0 2 4 3 1 3 3 3
40 40 39 38 43 44 42 39 43 27 45 34 30 14 18 21 17 10 4 6 4 6 5 7 6 4 4 6 4 3 8 2 3 3 2 4 3 3 3 5 1 3 1 3 3 3 3
37 37 36 39 47 46 41 30 32 45 43 41 17 6 25 25 5 5 5 4 6 5 3 2 4 4 4 6 5 4 6 3 5 3 3 1 4 3 1 2 1 1 2 2 4 2 1
37 35 36 40 42 41 24 30 35 59 47 38 11 12 22 27 4 5 4 5 6 4 5 5 4 1 2 4 2 4 3 2 5 3 2 2 2 3 2 4 3 1 3 3 4 3 2
37 34 35 39 43 38 20 7 59 54 47 27 14 5 7 18 7 4 4 5 4 5 4 3 3 3 2 2 3 3 2 3 5 3 3 3 3 5 5 5 3 3 4 3 4 3 2
33 33 34 36 44 34 19 18 53 46 43 27 11 5 10 7 11 7 2 6 5 5 2 6 1 3 3 3 2 3 3 2 4 2 2 3 4 3 0 3 2 2 3 6 7 5 5
31 31 31 33 36 30 25 27 55 47 39 21 12 7 10 6 13 15 6 4 8 4 5 4 4 4 6 4 3 4 5 3 3 1 2 2 2 2 2 1 2 1 3 3 4 4 6
28 31 28 37 29 29 17 38 54 51 41 14 8 14 12 12 5 10 5 6 8 9 5 5 5 6 6 5 5 6 5 4 6 6 2 3 4 2 2 4 5 5 6 6 4 4 5
25 30 29 34 32 24 21 29 42 48 33 12 15 14 6 3 4 7 8 4 11 5 7 3 7 5 6 9 8 6 7 8 8 4 5 4 3 2 1 2 1 4 1 2 7 3 5
24 26 30 30 32 10 26 40 43 48 34 12 18 6 5 3 2 3 8 7 13 14 6 5 4 8 14 7 4 4 4 3 3 5 4 4 4 3 3 3 5 1 1 1 1 2 3
23 25 27 26 19 14 19 38 45 46 34 16 19 8 5 7 2 2 5 10 5 4 4 4 8 10 6 3 3 4 4 4 3 1 5 5 5 3 2 2 4 4 1 3 3 2 5
20 22 18 21 2 12 27 42 39 46 35 17 16 8 6 9 6 4 4 4 8 6 4 4 4 3 2 2 3 2 3 4 4 7 5 3 1 4 3 2 5 4 4 1 3 5 3
21 19 15 12 10 6 32 36 32 41 38 20 11 9 5 8 12 6 6 6 7 8 4 8 5 1 3 3 3 3 2 4 3 4 6 5 5 3 2 2 7 7 1 3 2 5 6
18 19 11 5 20 15 26 33 31 31 32 21 16 9 7 10 12 17 16 13 10 8 12 5 2 3 4 4 0 3 2 1 3 3 1 2 5 4 6 5 3 1 3 7 9 9 4

GFSGBSN_850_spd_087.txt.gz
Wind_Speed
28 28 27 30 31 29 27 26 28 30 30 30 26 20 20 19 19 18 19 19 13 7 13 9 12 13 12 6 11 11 12 15 20 16 10 13 15 15 7 5 11 12 12 11 15 10 12
35 34 32 32 30 28 28 30 29 28 30 34 30 19 19 19 18 18 19 17 11 6 13 8 10 12 10 6 8 9 13 18 19 27 20 14 7 14 8 6 14 3 15 24 12 14 10
26 28 31 35 35 30 26 28 25 29 29 31 33 20 18 19 19 18 18 13 8 9 8 6 7 10 8 14 10 13 18 17 24 8 21 17 15 11 3 3 8 15 14 7 10 7 3
25 26 26 27 28 31 28 27 27 24 28 28 35 22 17 20 19 18 17 9 6 4 4 5 4 7 7 7 11 17 9 13 18 5 14 13 15 11 8 4 4 7 3 9 3 7 3
27 28 28 27 29 29 30 32 28 25 27 32 31 26 17 17 18 17 12 5 3 4 3 3 4 4 9 9 11 9 6 13 10 9 5 4 12 8 6 4 4 3 3 3 3 10 3
29 29 30 32 31 29 30 31 28 27 26 25 28 30 18 14 15 17 6 3 3 3 4 4 7 5 5 12 10 8 4 9 1 7 1 6 6 1 2 2 6 5 5 6 4 8 10
30 30 30 32 33 34 36 33 33 24 27 31 33 32 19 12 13 13 5 5 3 1 7 5 3 7 8 8 6 7 8 7 1 3 5 3 3 1 6 2 2 7 9 5 6 11 10
32 34 34 33 32 33 35 36 37 36 30 24 30 33 21 10 11 8 8 6 6 3 4 8 6 9 7 4 4 7 9 6 4 2 4 5 4 4 3 2 4 7 8 3 6 12 4
36 38 36 36 36 34 32 35 36 37 30 22 24 36 20 8 7 8 10 7 5 3 1 3 5 4 3 1 2 4 8 4 4 5 2 5 2 6 2 3 4 2 7 5 6 8 3
37 37 39 40 38 39 38 32 36 32 32 24 24 36 19 7 8 10 11 9 6 4 4 3 2 2 1 1 2 1 5 3 4 1 4 4 5 1 7 0 3 4 2 5 16 6 2
37 38 39 36 37 39 39 36 35 33 34 29 25 28 17 12 5 14 9 10 9 5 3 3 3 2 2 3 2 0 4 2 1 2 1 1 3 4 4 1 3 4 4 3 8 7 2
38 39 39 39 37 38 35 38 38 32 32 26 25 28 16 16 16 12 12 13 12 4 6 3 4 3 3 4 2 1 1 2 1 2 2 3 1 1 1 3 5 5 8 11 6 2 1
40 41 40 39 37 40 35 35 37 31 29 25 26 27 21 15 19 18 16 16 5 2 1 4 4 3 2 3 2 3 3 1 1 3 2 4 2 5 2 5 7 2 2 3 2 2 1
43 43 41 45 36 37 36 36 34 29 26 28 26 27 20 18 16 20 22 4 3 4 5 2 4 3 3 4 1 3 4 1 3 1 2 3 2 2 2 2 3 3 1 3 3 2 3
46 43 41 39 33 33 32 34 31 32 30 27 20 22 21 21 21 24 11 4 6 7 6 6 3 3 3 3 2 1 2 3 4 7 2 4 1 3 1 0 1 4 3 0 5 3 3
44 43 40 35 34 32 32 31 36 30 24 21 21 21 28 23 21 24 1 4 3 4 4 3 5 5 5 5 2 4 2 4 3 7 2 2 3 2 2 2 3 1 1 4 3 3 2
44 37 36 34 33 32 34 36 35 32 27 24 27 14 24 25 22 13 3 5 3 7 8 5 6 4 4 6 5 4 4 3 2 5 6 3 2 2 2 4 2 4 3 5 3 3 3
41 35 34 33 32 32 35 39 42 40 30 27 27 4 31 30 7 5 3 6 3 5 6 4 4 4 6 6 4 4 5 4 4 3 5 4 4 3 2 1 0 0 2 3 4 2 2
40 34 33 33 31 34 40 36 35 12 33 39 19 6 32 31 5 4 2 2 4 4 5 4 4 4 2 5 4 2 2 3 2 2 2 2 2 3 6 4 2 2 3 3 4 2 1
39 32 30 30 30 34 35 39 36 25 37 42 13 4 7 18 4 5 5 4 6 7 4 3 3 3 3 4 4 4 2 2 3 3 5 4 3 4 5 4 4 3 4 4 4 3 3
32 28 30 28 30 34 36 28 23 31 63 35 7 4 9 7 10 4 6 2 11 5 2 7 1 3 5 4 4 3 2 2 4 4 3 3 3 3 3 3 2 1 1 5 4 4 5
27 24 29 27 30 33 28 16 10 42 46 19 12 6 7 3 19 8 5 4 11 3 4 4 5 3 3 5 5 6 6 3 3 3 3 3 0 1 4 5 6 2 2 1 3 3 5
23 25 24 25 29 36 24 2 23 54 27 7 8 13 9 9 8 12 6 4 7 7 4 5 6 5 4 4 8 10 4 8 6 6 3 3 4 2 2 3 4 5 4 4 3 3 4
23 25 21 24 29 24 26 7 21 52 29 13 10 10 6 3 6 11 8 6 8 4 6 3 6 5 5 14 14 12 14 14 9 6 3 4 3 2 1 3 2 5 1 2 4 3 4
24 22 22 25 22 32 4 9 38 47 26 21 14 0 4 4 3 6 10 5 13 13 5 5 3 7 16 5 5 5 4 4 5 6 5 2 4 3 3 1 5 2 2 3 4 1 1
21 20 23 21 22 21 8 13 53 35 26 19 6 4 5 6 2 2 5 11 5 4 3 4 7 12 4 3 3 3 3 3 1 2 4 5 5 3 2 1 4 4 2 1 2 3 2
19 23 24 16 15 6 10 12 47 35 30 8 5 7 6 10 5 3 3 5 8 6 4 3 3 2 3 2 3 2 3 4 3 5 4 3 3 3 2 3 6 5 3 1 3 4 5
22 25 24 13 4 11 28 19 44 35 21 11 8 6 5 9 12 6 7 6 8 7 5 7 5 1 3 3 3 3 2 5 3 4 5 5 5 3 2 1 6 0 3 3 3 4 6
24 24 24 2 10 9 23 30 43 36 20 16 9 9 14 11 14 19 18 13 10 8 11 9 2 3 4 4 1 3 2 1 4 3 1 2 5 4 7 5 2 0 1 2 3 2 2

GFSGBSN_850_spd_090.txt.gz
Wind_Speed
23 23 25 31 31 30 31 27 26 24 24 25 27 29 30 24 18 20 19 18 20 15 6 11 10 12 12 8 12 8 11 11 17 23 20 16 11 9 9 4 15 15 8 14 20 19 21
24 24 24 24 25 26 28 28 28 25 23 24 24 28 28 26 17 19 20 18 18 15 8 10 7 11 10 5 5 10 15 20 19 21 23 20 6 13 8 11 13 7 16 16 10 18 13
27 27 26 25 26 27 28 28 26 27 24 22 22 31 26 27 17 16 20 19 16 11 13 7 5 11 10 14 8 13 17 19 18 24 16 17 15 7 8 7 24 19 3 10 6 13 9
26 26 26 26 28 29 28 29 29 29 28 27 23 23 29 25 17 14 19 20 15 12 9 6 5 7 7 6 10 13 11 8 15 7 6 8 7 11 7 13 3 6 4 8 2 12 16
28 27 27 28 28 27 30 29 30 29 26 25 24 21 27 23 18 11 18 16 10 9 7 6 6 4 9 8 12 7 6 9 9 6 5 4 6 2 7 7 2 4 3 5 4 7 15
28 27 26 27 28 27 27 29 29 30 30 27 26 24 29 24 19 10 15 10 7 7 8 6 6 4 3 9 10 6 4 7 4 3 5 4 3 1 6 3 4 6 5 5 5 1 6
30 29 29 28 28 29 29 30 29 31 34 27 25 19 22 25 16 7 10 5 4 5 14 8 6 3 6 11 7 4 7 5 5 1 3 2 1 3 4 4 2 7 7 7 4 2 4
31 31 31 30 29 30 31 30 29 29 32 32 22 20 17 22 15 8 9 10 9 3 7 12 5 4 6 6 4 3 5 3 4 3 2 1 2 4 7 3 4 7 12 6 9 6 5
33 33 34 33 32 31 30 30 31 29 30 32 22 22 15 19 12 9 10 16 10 6 3 2 5 2 1 2 3 5 6 2 3 5 4 2 2 4 6 3 4 2 6 6 7 7 5
34 36 36 36 36 36 32 31 29 29 27 30 21 23 15 17 11 9 8 9 9 4 3 2 1 2 2 0 3 3 4 3 3 1 3 1 2 2 5 2 4 3 4 5 15 6 2
35 35 36 37 37 37 37 35 30 29 27 23 17 18 14 21 6 8 1 8 8 3 3 2 3 4 2 2 1 1 4 2 1 2 2 3 3 5 3 2 5 3 3 4 5 6 5
37 39 40 41 40 36 36 39 31 30 25 23 18 14 13 16 14 8 5 9 6 4 5 4 4 3 2 3 1 2 2 3 1 3 2 3 2 2 2 2 3 0 6 8 7 3 2
39 41 40 40 39 36 36 31 25 27 30 22 20 17 15 28 17 13 13 10 3 3 1 4 4 4 1 2 2 1 1 3 2 2 2 4 2 4 2 4 0 4 3 3 3 2 2
41 42 43 40 39 34 34 26 25 24 23 23 25 22 18 31 16 19 17 2 2 3 5 3 4 3 3 4 1 2 2 1 2 2 2 3 4 3 4 2 3 1 4 1 4 3 2
43 43 43 38 46 30 27 27 25 24 22 23 18 17 17 25 20 24 16 3 5 6 6 8 4 3 2 3 3 2 3 2 3 6 1 2 3 2 4 3 2 1 3 2 5 3 3
45 46 45 46 25 27 23 23 22 22 19 13 12 12 16 21 23 24 5 5 4 3 4 5 4 4 4 4 3 2 3 2 2 5 2 1 3 3 1 4 3 2 1 4 4 2 4
46 45 49 42 22 23 22 21 21 21 17 16 14 6 8 23 27 13 5 5 5 7 5 5 4 4 4 5 5 4 4 2 2 2 2 2 3 3 1 2 1 3 2 4 4 3 3
45 42 43 31 23 22 22 22 24 25 24 19 13 3 15 32 5 4 4 4 3 4 6 3 4 3 6 6 4 4 5 3 2 5 3 1 4 3 2 1 1 2 2 2 4 2 2
45 43 35 27 21 22 22 23 27 28 24 19 8 6 29 34 4 5 1 3 2 3 4 3 4 3 3 5 4 3 4 1 3 2 4 3 3 3 6 5 5 3 3 4 4 3 1
45 35 24 20 22 23 22 29 32 29 29 22 13 4 8 16 3 4 4 4 4 6 3 5 3 3 3 3 4 4 2 2 2 2 4 5 3 3 5 3 2 2 3 2 4 3 2
32 28 20 20 22 22 25 30 38 39 21 40 9 5 8 7 8 4 6 4 5 4 2 4 2 2 4 3 2 3 2 2 3 2 3 3 4 3 5 3 2 1 2 3 3 3 4
31 25 21 24 19 22 26 25 22 33 41 23 10 6 10 5 14 6 6 4 7 2 4 3 4 3 2 5 5 6 5 2 2 4 3 3 2 2 3 5 4 1 2 3 3 3 4
26 22 21 20 20 22 26 17 17 19 39 13 9 13 13 9 11 10 5 4 11 6 5 7 6 4 4 3 5 8 3 7 5 4 2 3 3 3 3 3 4 3 3 4 3 2 4
24 22 22 22 24 24 25 5 11 36 32 19 15 15 6 2 6 10 7 4 6 2 6 3 7 4 6 18 21 18 19 16 14 8 5 4 3 2 1 4 3 4 1 1 4 3 4
22 22 23 25 23 25 10 7 35 40 24 24 20 5 4 3 5 6 6 4 10 12 5 5 5 7 18 4 4 4 4 3 5 6 5 3 4 3 2 1 4 1 1 3 3 2 1
21 22 26 26 21 15 9 11 46 36 29 22 15 2 3 7 3 3 5 7 4 4 3 4 8 14 4 3 3 3 3 3 0 2 4 4 5 4 2 1 1 3 2 1 2 4 4
24 27 25 21 2 9 9 27 42 33 23 22 3 1 3 8 3 2 3 5 7 6 4 3 4 2 3 2 3 2 1 2 4 5 5 2 3 3 2 1 6 4 3 1 3 3 3
26 27 26 8 13 11 11 29 36 26 22 18 1 2 3 8 10 5 5 4 6 6 5 7 5 2 3 3 2 2 2 4 3 3 4 5 5 3 2 2 5 1 2 3 3 3 5
25 23 13 7 6 8 13 35 24 28 18 11 3 8 15 9 12 17 16 11 8 7 11 9 3 3 4 4 1 3 2 1 4 3 1 2 5 4 7 4 1 1 2 4 6 9 5

GFSGBSN_850_spd_093.txt.gz
Wind_Speed
20 20 20 20 21 22 22 24 25 27 28 25 27 25 23 28 19 23 16 14 15 19 14 6 12 16 13 8 9 3 4 9 11 15 20 17 14 9 7 5 12 15 16 18 28 27 16
21 20 21 22 23 23 24 24 25 26 26 22 25 23 22 27 19 20 16 13 14 17 10 8 11 14 13 6 4 4 9 14 13 18 20 20 13 10 7 10 9 3 13 22 18 21 17
24 24 22 22 23 24 21 24 27 26 25 21 21 26 23 22 27 21 16 12 14 16 9 11 9 10 14 18 4 7 10 10 12 17 22 23 17 13 3 5 7 13 10 17 18 13 6
27 25 25 25 23 24 25 23 23 27 25 25 21 19 19 20 26 18 15 12 13 11 7 7 7 10 10 7 7 8 7 6 11 11 4 2 13 7 4 8 11 6 11 6 10 8 4
26 25 26 26 26 26 26 25 25 24 26 26 22 20 15 12 22 16 15 10 10 7 7 6 8 8 10 5 6 3 2 4 8 7 4 5 6 3 3 3 5 7 2 7 4 13 7
27 26 25 26 27 27 27 27 26 24 24 27 24 21 17 11 21 18 10 6 6 8 7 8 9 6 10 5 6 3 1 3 5 4 1 2 3 2 3 4 4 7 5 3 5 7 9
28 27 27 25 27 26 26 26 26 27 26 25 25 21 19 11 20 16 8 2 0 2 11 9 6 6 6 8 4 0 6 2 3 2 1 0 3 5 5 13 11 4 10 9 7 7 7
31 29 28 29 28 27 28 26 26 25 26 26 25 21 20 15 17 15 6 5 4 4 5 13 14 13 9 5 2 2 4 1 2 2 2 2 3 5 10 11 9 5 9 8 10 5 8
33 32 32 31 31 30 30 29 26 26 24 25 21 19 19 12 15 11 5 4 7 4 3 3 14 9 6 4 2 1 7 3 1 2 2 1 5 7 6 2 6 3 6 6 7 6 7
35 36 35 34 36 33 33 31 27 28 24 26 19 14 13 11 7 8 4 6 7 1 2 3 4 5 5 4 1 1 4 2 2 1 1 2 5 1 4 3 3 4 1 7 14 7 3
36 36 37 37 35 35 34 32 31 27 29 23 17 12 5 8 7 7 8 11 7 4 1 3 3 5 4 2 2 2 3 1 1 1 2 1 2 2 5 2 6 2 1 9 9 3 6
37 38 38 38 37 37 38 33 30 28 20 20 18 11 9 4 12 8 11 13 9 1 4 3 4 4 4 1 3 1 2 1 2 2 3 2 3 2 1 4 5 1 5 7 3 3 3
38 40 41 39 36 38 41 34 32 19 17 18 17 11 10 12 11 14 15 16 2 3 1 5 4 4 2 3 2 3 1 2 1 3 1 2 2 4 2 3 4 7 3 3 2 3 2
41 42 42 40 41 40 44 22 14 17 15 15 15 14 13 16 15 20 20 2 3 1 4 3 4 4 4 4 2 2 2 1 2 1 1 2 4 4 4 2 2 3 2 2 4 3 4
42 43 42 39 38 33 27 17 15 14 11 9 12 9 12 15 23 28 19 2 3 5 5 7 3 3 3 2 3 3 2 2 4 6 1 2 3 1 2 3 1 3 3 1 5 3 4
43 45 44 42 36 32 10 11 12 10 9 9 8 8 9 20 30 29 3 3 3 3 3 3 4 3 5 4 3 3 1 3 1 4 2 1 2 2 2 4 2 1 2 2 3 3 4
45 46 44 42 37 29 11 10 10 9 8 9 5 4 5 28 30 12 2 3 4 7 4 4 3 4 3 4 2 3 3 3 2 2 2 1 3 2 2 4 3 3 2 4 4 3 3
46 47 33 33 28 10 9 10 8 8 8 11 3 2 5 28 4 3 3 5 4 4 5 2 2 3 4 4 3 2 2 3 2 4 2 1 3 4 2 4 2 0 2 3 3 2 4
45 37 31 27 17 12 14 11 11 10 12 5 3 6 5 26 4 3 3 1 3 2 3 2 1 1 3 4 4 2 2 2 0 2 2 2 3 2 6 4 3 5 4 4 4 3 2
42 34 26 21 18 17 14 14 14 17 19 12 5 3 4 13 1 4 4 2 3 5 2 2 2 3 4 3 5 3 2 4 3 3 6 4 3 3 4 1 1 2 3 4 4 3 3
38 28 21 21 21 19 19 21 23 26 19 18 11 4 4 4 4 5 6 2 4 3 1 2 3 3 5 4 3 3 2 2 4 3 4 4 4 4 4 3 2 0 1 3 3 2 4
30 27 24 23 23 23 25 25 33 6 27 25 10 5 6 7 15 7 5 3 5 2 2 1 5 4 2 5 5 6 5 2 2 4 3 2 1 1 5 5 6 3 4 3 3 3 2
27 26 23 23 26 25 21 22 18 30 36 13 11 14 13 7 5 4 4 4 6 6 3 2 7 5 4 2 5 10 8 9 5 5 2 3 4 3 2 4 4 3 1 2 2 1 4
26 25 25 25 26 27 17 5 24 24 16 24 22 16 6 2 5 7 6 4 3 1 5 2 6 5 5 24 23 19 20 18 15 8 4 4 4 2 2 3 3 4 1 0 3 1 1
24 25 25 24 27 23 3 9 24 24 13 17 18 8 5 3 4 6 3 3 7 7 4 4 5 8 19 4 5 5 4 5 6 6 7 4 4 3 2 0 3 1 1 4 3 2 2
24 27 27 28 19 10 5 11 22 24 17 15 11 6 6 8 1 4 3 5 3 2 4 4 10 16 2 3 3 3 3 2 0 4 4 4 5 4 2 3 3 5 2 4 3 2 1
24 25 29 18 6 12 14 18 31 23 20 15 11 7 5 8 3 5 2 3 3 4 4 3 4 2 3 2 3 2 2 1 4 6 3 2 2 3 3 2 5 5 4 2 2 5 8
24 21 19 12 4 7 16 28 30 22 16 14 5 4 3 7 7 4 3 3 4 3 4 8 5 1 3 3 2 2 2 4 2 2 4 6 5 3 2 2 5 3 3 5 3 7 9
21 13 9 8 1 10 18 28 26 21 14 12 6 8 13 7 11 14 12 8 6 5 9 9 3 3 4 4 1 3 2 2 3 3 1 2 5 4 6 4 2 4 3 4 8 9 8

GFSGBSN_850_spd_096.txt.gz
Wind_Speed
21 23 24 23 23 23 23 21 22 23 23 23 22 20 20 17 20 26 23 17 12 14 12 4 5 9 7 3 10 10 3 7 9 10 11 12 12 11 9 7 15 20 20 23 29 29 26
23 25 24 23 24 24 24 23 22 22 24 22 22 21 19 19 16 20 23 18 13 12 8 4 8 9 5 6 4 7 7 10 10 11 13 14 9 9 11 12 16 10 19 25 25 25 24
27 26 25 23 24 25 24 24 24 24 22 24 23 21 18 16 15 21 22 15 9 8 9 8 6 7 9 12 6 8 10 10 8 9 14 13 17 11 3 8 4 12 17 15 20 26 19
27 26 28 23 25 25 25 26 23 25 24 23 24 22 20 14 13 19 22 14 9 8 6 6 7 9 7 5 8 11 10 8 8 8 7 5 8 12 10 6 5 3 9 11 12 20 24
30 27 26 26 25 26 25 24 25 24 24 24 24 21 19 14 9 21 19 12 5 2 4 6 6 6 7 4 7 6 5 6 7 4 1 6 9 7 5 6 6 6 8 12 11 20 10
28 29 28 25 27 26 27 25 25 24 22 22 25 22 20 11 7 17 14 7 4 4 5 7 6 3 6 3 5 6 6 6 7 3 4 5 4 5 5 6 6 7 11 4 6 13 15
31 30 30 28 28 27 26 26 25 23 22 22 24 22 19 14 10 18 13 8 6 2 10 8 8 3 2 4 7 5 4 5 6 5 4 3 5 9 12 13 13 12 13 1 4 10 13
32 32 31 31 30 29 29 29 28 25 24 23 22 22 19 17 8 16 14 7 7 5 5 11 10 9 9 5 1 4 2 6 6 5 3 4 8 6 7 9 11 15 12 6 3 5 5
33 32 31 31 31 31 31 28 28 26 26 22 20 20 16 7 8 11 7 10 9 6 2 2 8 8 6 6 2 4 3 5 4 3 4 6 7 4 4 9 12 12 12 8 4 6 3
34 33 33 33 34 32 32 31 30 28 26 22 18 15 9 5 7 6 6 9 10 8 1 5 5 4 6 5 2 6 4 4 4 3 4 5 4 4 4 4 5 8 7 12 9 5 3
40 37 36 36 36 34 36 32 30 36 30 19 19 9 8 5 5 6 7 11 13 5 3 5 3 4 5 5 4 6 5 3 2 2 4 0 3 2 3 3 2 1 7 10 8 5 4
41 40 38 38 37 36 33 31 31 34 28 26 15 8 9 6 9 7 9 16 11 3 2 4 4 5 5 4 4 4 4 1 1 3 1 4 3 3 2 3 5 8 10 9 5 2 2
52 40 40 40 39 37 36 30 31 12 5 6 9 7 9 11 4 12 15 15 3 2 2 6 4 6 4 5 5 4 3 4 2 3 1 1 3 5 2 2 4 2 11 4 3 3 3
50 41 42 41 40 39 38 35 12 9 6 5 7 6 8 10 12 17 22 2 4 2 4 2 4 6 2 6 2 3 3 3 3 0 1 2 2 3 2 0 1 1 3 3 4 4 4
43 43 44 40 37 33 30 11 5 5 3 4 3 2 6 8 16 20 12 3 2 3 4 7 8 5 4 3 3 5 1 0 1 3 2 2 2 4 4 3 4 2 2 3 7 6 6
41 44 42 35 34 32 17 3 3 3 3 1 1 0 7 8 23 26 3 2 1 2 3 9 4 6 5 7 6 4 1 2 2 3 3 1 1 4 5 4 3 3 4 2 1 4 5
42 43 38 29 26 20 13 8 4 3 3 2 2 1 6 12 26 14 2 3 2 8 7 6 2 4 4 5 3 2 3 3 2 1 3 3 4 2 2 5 6 2 2 2 3 3 4
39 38 30 24 19 17 15 10 6 2 2 6 3 1 4 32 5 2 3 5 1 4 5 3 2 3 4 3 3 3 3 2 5 3 3 3 3 3 2 1 5 3 5 4 2 4 4
34 31 28 24 19 17 13 9 5 3 6 3 3 1 10 16 2 3 3 2 2 2 4 1 0 0 2 4 3 4 2 1 4 2 3 1 2 3 2 2 3 4 6 6 4 3 4
30 27 25 24 21 16 12 8 8 3 6 4 2 2 6 10 3 6 4 2 3 2 2 2 1 2 4 4 3 5 5 1 2 3 6 2 4 4 4 5 3 3 7 8 4 5 9
28 25 24 23 22 21 17 17 13 12 9 5 2 1 2 4 2 7 4 1 3 2 1 3 1 2 5 3 3 4 3 3 3 4 3 2 3 3 6 5 3 5 6 9 6 5 6
26 23 24 22 25 27 25 21 17 19 18 15 7 3 4 6 10 7 2 4 3 0 1 4 2 4 2 4 2 5 5 2 1 2 2 2 4 2 3 7 6 6 7 5 5 4 8
26 23 25 25 24 22 11 17 19 30 34 10 9 9 3 5 3 4 5 2 5 3 3 3 2 4 7 3 3 9 6 7 4 2 2 2 3 2 2 6 5 4 4 3 3 1 2
24 26 26 24 18 12 6 13 20 23 22 15 15 12 5 3 5 7 5 4 1 1 2 3 3 2 4 20 16 15 16 14 12 9 3 4 3 2 1 2 1 2 2 3 2 3 2
23 26 27 21 13 4 9 23 21 15 9 16 18 5 3 4 5 5 4 3 3 7 4 2 5 6 12 2 3 3 2 3 5 6 6 2 2 3 1 1 1 1 3 3 3 2 2
23 22 22 22 15 3 12 20 18 13 15 15 6 7 4 8 3 3 5 2 2 2 2 3 5 14 0 2 2 1 2 1 2 2 3 4 4 1 2 2 4 3 2 1 2 4 5
20 18 18 20 19 6 17 24 21 16 12 8 7 6 4 7 3 6 3 3 4 2 3 3 3 1 4 2 1 0 1 2 2 4 4 3 1 2 3 2 2 4 6 3 4 3 11
17 15 13 13 14 9 16 24 18 14 14 4 7 4 3 7 7 6 5 4 3 2 3 6 4 1 2 1 1 1 1 2 2 0 3 6 4 3 3 3 5 8 6 5 3 6 10
11 9 12 15 9 6 15 18 17 12 8 3 5 9 16 7 8 10 8 6 4 3 5 9 1 2 2 3 1 2 2 2 1 2 1 4 3 1 5 1 2 8 1 4 7 8 9

GFSGBSN_850_spd_099.txt.gz
Wind_Speed
26 26 27 26 25 25 25 25 24 27 27 23 21 23 24 22 19 15 18 29 21 18 15 10 8 7 4 6 8 8 5 4 2 5 8 10 11 13 13 9 15 21 20 26 28 27 28
28 29 28 28 28 25 27 26 25 27 23 26 28 24 24 23 18 20 17 27 25 13 10 8 8 7 6 8 6 6 7 5 4 7 10 12 10 12 13 19 14 16 18 20 27 27 25
28 29 30 27 26 26 28 28 26 28 25 24 27 26 25 22 19 17 16 27 20 12 10 8 9 5 9 10 3 7 8 4 4 6 10 12 13 13 4 10 21 19 18 18 22 23 24
29 31 30 31 29 27 27 29 27 27 26 25 23 25 24 22 18 15 17 24 15 12 9 8 7 7 7 8 5 9 7 6 6 5 5 7 7 14 9 13 14 13 9 13 18 22 25
30 32 31 31 31 31 29 27 28 26 26 25 22 23 23 22 16 10 16 23 13 8 6 7 7 6 5 4 6 5 6 5 6 6 4 1 6 7 8 10 10 13 13 13 17 21 19
30 31 31 33 30 31 32 29 28 27 25 24 23 22 22 22 14 9 15 8 8 11 9 7 6 3 9 4 5 4 4 6 5 4 4 5 7 4 8 7 8 8 9 15 13 8 21
31 31 32 32 34 34 32 30 31 30 27 23 22 19 20 22 18 11 19 10 6 5 11 8 7 4 5 3 4 4 6 5 8 8 5 3 5 9 13 15 17 15 14 14 12 13 19
32 33 32 33 35 34 35 34 31 29 26 25 22 18 17 19 16 15 17 7 6 4 4 16 9 12 3 1 3 7 6 6 10 9 9 3 10 15 10 15 16 13 14 15 4 3 10
35 35 27 38 37 38 38 32 30 31 25 24 19 14 13 11 8 10 14 11 9 4 2 6 12 8 7 6 4 9 7 5 9 10 10 12 13 3 8 7 12 13 14 14 5 4 8
45 26 34 48 34 36 34 35 33 28 27 24 25 13 10 8 7 7 6 7 8 7 2 8 7 5 6 5 4 7 6 6 3 7 10 10 6 6 7 8 7 12 15 5 4 5 2
25 46 51 36 38 37 34 33 32 31 27 19 16 11 9 8 4 3 4 10 10 3 4 7 5 6 6 6 5 7 6 5 7 6 4 4 4 4 7 2 5 6 3 4 12 11 4
42 51 38 39 39 37 35 34 29 29 16 14 11 11 9 6 8 6 5 9 8 3 3 4 5 7 8 8 5 5 4 4 5 5 6 13 2 3 4 2 5 13 9 10 10 11 1
52 41 40 41 37 32 33 28 22 8 7 5 9 10 8 5 1 8 6 13 3 4 5 6 5 6 5 5 7 5 6 8 4 4 4 4 3 3 2 3 4 10 9 3 3 2 3
47 36 40 37 30 32 26 16 12 9 6 5 8 5 9 4 4 11 14 1 5 7 3 2 5 7 2 7 4 6 5 7 7 7 6 2 3 4 6 1 2 2 2 4 2 1 1
37 35 36 31 29 21 24 19 11 9 8 7 7 5 3 4 7 11 4 4 6 4 2 5 9 4 3 4 1 6 6 2 1 1 4 3 2 1 4 3 3 1 4 7 3 6 4
30 30 31 29 23 23 18 13 11 11 9 7 5 4 3 2 10 10 2 5 4 4 3 7 2 2 4 6 5 6 6 1 1 2 4 5 2 4 3 4 8 5 8 4 3 1 5
27 26 25 27 23 22 16 13 9 7 9 6 4 3 3 6 13 4 2 3 3 3 3 3 3 4 5 8 7 1 2 2 3 2 3 4 3 2 4 2 6 1 3 4 3 3 2
26 23 22 21 21 19 15 10 9 7 8 6 3 3 2 15 4 2 2 3 3 6 3 3 3 3 4 5 2 2 4 2 3 5 2 3 4 4 2 2 1 4 7 6 1 4 7
25 22 18 19 15 14 12 8 7 5 6 6 3 4 19 10 2 2 2 3 3 4 2 3 1 2 2 2 1 4 3 0 3 4 8 6 3 1 1 3 1 5 11 9 5 5 5
23 21 18 18 17 17 16 10 4 1 4 6 3 3 4 3 4 5 2 2 3 2 3 4 3 3 4 4 2 4 7 2 2 3 6 5 6 7 7 5 4 5 13 15 6 5 9
21 20 19 19 15 16 17 14 11 4 6 6 2 3 4 2 2 5 4 2 2 3 2 3 2 1 2 3 6 3 2 4 2 1 1 3 4 4 8 7 6 7 10 13 11 6 7
20 20 22 19 17 11 6 7 8 13 11 7 5 5 4 6 7 5 1 3 1 0 3 1 1 3 3 7 7 4 2 2 4 3 4 3 3 1 7 7 6 7 7 9 11 12 12
20 22 22 19 15 8 11 12 9 25 22 5 5 7 5 2 2 3 3 2 4 2 2 5 5 1 6 7 8 7 5 6 5 4 3 4 1 3 3 5 0 4 6 5 5 6 5
19 19 20 19 12 6 7 17 17 26 20 7 8 6 3 3 4 5 2 2 3 3 3 5 8 3 3 5 8 9 9 8 7 7 5 1 2 3 2 4 1 3 2 2 3 3 3
17 17 17 18 11 3 3 15 19 14 10 6 8 1 0 3 6 5 3 4 3 2 3 3 5 3 1 4 2 1 2 1 4 5 5 4 1 1 2 0 0 3 4 2 2 2 3
14 14 18 22 10 5 11 13 12 8 5 6 9 6 1 7 5 3 8 3 2 1 3 3 3 3 4 2 1 1 1 4 0 0 3 3 3 3 1 1 3 5 5 3 1 4 9
12 12 15 19 17 9 15 15 14 12 8 8 9 4 2 5 3 4 8 5 1 1 2 3 4 2 2 2 0 1 1 2 2 2 2 2 2 4 4 2 2 4 6 3 3 3 9
9 9 12 15 12 7 14 14 12 11 4 8 2 4 4 4 7 6 6 3 3 2 3 5 2 2 2 2 2 1 2 1 3 2 2 3 2 3 3 3 4 11 5 4 4 8 9
9 6 7 8 8 4 19 17 10 6 4 6 7 6 12 5 9 9 7 7 5 3 2 4 1 0 2 1 1 1 2 1 3 2 2 3 3 3 4 1 1 14 3 2 3 7 7

GFSGBSN_850_spd_102.txt.gz
Wind_Speed
27 26 27 29 26 24 23 24 27 25 26 25 24 23 23 23 23 22 18 17 18 23 17 12 8 6 4 5 10 11 6 9 5 5 6 5 6 7 7 9 12 15 16 24 24 24 27
26 27 28 28 26 28 27 25 25 27 26 26 24 24 22 23 23 23 18 20 16 26 20 14 8 7 6 9 6 8 10 7 5 5 5 7 6 6 8 9 12 12 21 21 22 27 27
28 28 29 28 28 27 28 28 28 27 26 27 25 24 23 22 23 24 18 16 16 22 15 11 8 6 7 10 5 10 12 7 5 5 5 5 6 9 3 7 10 18 17 19 22 19 20
32 32 30 29 30 30 28 29 31 28 28 26 25 21 24 22 22 23 18 15 24 19 12 9 10 8 6 8 10 11 8 6 5 5 2 4 4 6 7 9 9 7 13 13 9 14 21
34 34 32 32 30 28 34 30 32 31 27 26 24 18 22 22 19 18 13 11 17 15 8 11 11 8 3 7 12 11 9 8 9 5 4 3 7 6 5 3 5 9 7 12 14 14 13
37 39 40 32 28 23 43 33 34 35 30 27 23 20 15 21 17 13 10 4 9 11 13 12 7 6 9 7 10 8 8 10 8 6 5 4 1 1 3 5 5 9 8 13 16 4 12
44 43 44 30 26 36 35 31 33 36 26 21 19 17 16 16 16 12 7 13 10 4 10 5 10 1 14 8 9 6 9 9 7 7 4 7 2 7 10 11 15 18 18 18 18 11 5
42 43 24 33 44 34 32 30 30 30 25 23 17 15 13 11 14 10 17 6 6 1 3 17 9 9 6 4 5 8 11 9 10 7 8 2 9 11 12 14 15 17 18 19 15 9 8
41 33 38 43 33 35 34 31 29 24 22 19 17 13 13 10 8 3 15 12 3 6 2 8 13 7 3 5 3 14 11 7 6 7 8 8 9 9 9 13 13 11 16 15 8 10 7
35 43 39 34 35 35 34 29 29 24 23 21 20 20 8 6 5 4 5 14 8 7 2 6 5 4 7 4 3 7 9 4 5 4 7 8 14 10 12 10 9 11 6 14 5 2 4
48 41 33 35 35 33 35 28 22 22 18 15 6 3 10 7 1 1 2 4 6 2 4 5 7 7 9 6 9 7 6 5 6 5 3 4 6 0 8 6 3 7 11 14 9 8 3
44 31 33 33 30 32 26 24 20 19 13 12 5 13 9 0 2 1 3 6 8 2 2 4 5 6 7 7 5 8 5 4 6 4 7 12 10 4 5 6 8 10 9 10 9 7 3
40 29 30 30 29 32 24 23 20 18 17 18 14 12 10 4 2 2 4 9 2 3 3 5 6 7 4 6 5 7 7 6 2 2 3 4 10 1 2 5 5 6 5 3 3 1 2
33 27 29 27 26 27 23 22 21 19 15 14 11 11 9 7 6 5 4 1 3 6 6 5 6 8 2 8 4 5 3 2 8 5 3 3 3 2 3 2 3 3 3 3 4 3 2
28 25 24 24 24 21 20 18 17 15 14 12 9 11 10 6 5 4 5 1 5 3 3 6 8 5 5 3 1 4 4 2 2 2 2 5 2 4 2 3 3 2 4 5 3 5 1
25 23 21 23 20 20 16 13 12 16 14 12 11 10 14 7 4 6 1 4 3 6 7 2 3 1 4 4 2 2 5 4 2 3 6 2 3 3 5 5 10 6 8 4 1 5 4
22 22 18 21 19 17 14 10 9 10 9 9 9 6 9 5 9 6 3 4 3 6 3 3 6 4 8 4 2 2 3 3 3 4 4 1 1 1 4 2 4 2 4 3 2 3 2
20 22 17 16 16 16 12 8 5 7 9 12 8 3 7 7 4 2 3 5 4 9 2 3 5 9 4 3 3 4 5 4 1 2 2 4 2 1 0 4 3 4 6 5 1 5 6
19 19 17 13 13 12 14 12 5 4 7 9 6 5 6 5 2 2 2 3 4 7 6 6 4 5 5 4 2 4 4 3 3 4 4 4 2 3 3 2 1 4 8 5 2 2 3
19 18 18 14 11 11 12 14 8 1 5 9 5 2 3 6 3 2 2 4 3 3 2 6 3 0 2 3 3 3 4 1 4 4 5 4 5 4 3 2 3 5 9 7 4 5 9
19 20 18 14 13 12 9 7 1 2 8 7 3 3 3 1 1 6 3 2 3 4 2 4 1 2 5 3 5 4 3 4 5 3 2 4 3 5 4 5 4 6 8 11 8 7 8
19 18 18 17 18 14 9 7 7 8 9 6 3 4 2 9 6 5 1 1 6 4 6 5 4 6 11 7 6 5 3 6 5 2 2 0 1 2 4 6 5 7 10 9 9 10 10
17 17 18 18 17 15 10 8 15 12 12 3 7 9 5 2 1 1 2 4 6 6 2 8 9 6 8 5 9 6 6 7 4 5 5 3 1 3 2 4 6 4 5 6 3 7 4
17 15 18 20 20 16 15 2 19 18 11 5 5 1 2 2 3 0 4 3 6 6 4 9 12 6 4 9 7 4 7 7 9 6 6 4 2 1 2 3 3 3 2 4 5 5 5
14 13 14 17 11 14 12 17 21 16 12 8 5 4 3 3 4 4 3 4 4 5 3 4 5 1 7 8 2 2 3 2 4 4 5 5 3 2 2 1 3 3 3 2 1 3 2
12 12 11 15 5 7 5 12 14 5 4 1 2 6 4 3 6 4 5 4 2 2 4 2 3 4 7 2 2 3 3 3 3 1 0 4 2 1 3 1 2 3 4 2 0 1 6
10 9 8 11 7 8 8 8 9 10 9 7 10 9 0 1 3 6 2 1 1 1 3 3 1 2 4 3 1 1 1 1 2 3 2 1 2 2 3 1 4 5 6 3 2 4 8
9 8 6 4 7 7 11 7 6 6 8 12 11 5 3 0 6 6 4 0 1 2 2 4 2 2 2 2 1 0 2 1 2 2 2 2 2 3 1 1 6 10 3 2 3 10 9
9 8 8 3 6 14 12 9 6 4 5 10 13 7 5 3 8 8 4 6 4 2 2 3 1 2 2 1 1 1 2 1 2 2 1 2 2 1 2 4 1 13 6 7 6 10 9

GFSGBSN_850_spd_105.txt.gz
Wind_Speed
30 31 30 29 28 27 26 25 25 25 25 25 24 22 19 18 20 20 20 19 21 16 20 25 15 9 13 6 7 9 14 8 10 11 9 7 6 2 3 3 8 9 7 14 20 22 22
31 32 32 31 30 28 28 26 26 27 27 27 24 24 19 18 19 20 20 19 13 18 19 19 14 16 13 4 4 14 11 11 6 8 9 6 4 3 3 4 4 6 16 20 22 22 23
36 36 38 39 35 32 29 23 27 31 30 29 27 24 18 17 18 19 22 18 14 20 24 21 14 16 12 7 5 9 10 9 10 8 6 6 7 7 3 4 8 13 9 10 12 16 10
39 42 44 41 41 39 31 30 31 37 30 30 27 25 19 19 15 17 19 15 12 21 23 11 17 14 8 14 9 10 16 10 6 8 7 7 8 6 5 7 8 4 2 4 3 3 9
44 44 45 38 32 22 29 33 38 31 30 30 30 23 19 16 11 13 12 5 13 18 17 17 15 7 4 12 17 14 13 10 8 6 4 3 8 4 2 1 3 3 2 4 9 3 7
43 40 30 32 34 38 33 30 29 30 27 27 28 12 8 3 8 10 8 10 16 17 20 16 13 5 4 6 15 15 9 7 13 8 6 4 1 2 3 2 3 1 4 7 11 5 12
31 35 43 41 34 30 29 31 28 27 24 18 16 12 4 3 10 7 4 6 9 6 7 6 12 4 14 15 14 12 11 11 10 8 5 6 1 7 8 9 6 6 7 14 17 16 12
40 45 34 32 32 31 29 28 26 22 21 14 10 7 2 4 5 7 9 7 4 6 2 4 8 10 14 11 6 10 13 8 6 8 6 1 9 11 10 10 10 12 15 18 18 9 4
44 42 31 31 31 30 31 28 22 19 16 12 10 6 5 7 2 5 9 4 1 7 2 7 12 3 5 4 4 14 15 7 6 6 7 6 7 2 10 5 8 13 11 10 12 7 11
43 31 30 30 31 32 27 33 27 19 11 8 6 7 3 7 9 6 3 8 3 2 3 2 6 5 5 6 1 15 14 2 4 5 7 6 9 8 6 10 9 12 8 9 8 2 3
38 28 28 27 31 32 29 27 26 24 17 9 7 15 14 14 9 6 6 10 10 5 4 4 4 7 10 2 13 6 7 3 4 4 1 5 2 1 4 6 2 7 9 11 13 8 2
34 26 27 28 28 28 26 25 25 25 21 19 18 19 16 11 9 9 6 10 6 1 4 4 4 7 5 2 5 6 4 4 6 3 5 7 5 3 4 4 6 7 8 12 6 3 5
31 26 25 28 27 25 23 23 23 21 21 20 20 19 17 11 7 9 9 7 3 2 4 2 6 4 1 3 5 5 4 4 3 2 2 3 4 2 2 4 3 6 2 3 3 4 2
29 26 24 27 25 22 20 20 18 19 19 19 19 15 16 17 9 8 7 3 4 8 5 3 5 8 3 6 5 5 3 3 7 3 2 1 4 1 2 3 3 5 2 2 4 4 2
27 25 21 26 23 21 20 17 15 16 18 17 17 15 16 13 6 6 3 4 5 3 4 4 5 4 2 3 4 5 3 3 1 7 2 3 2 2 3 2 1 2 4 4 3 4 2
26 23 20 20 22 20 19 14 12 12 11 12 11 14 16 14 9 7 4 5 3 4 6 2 2 4 3 2 2 2 1 3 2 5 5 2 4 1 4 4 10 7 5 1 2 3 4
25 21 21 18 16 19 18 13 11 11 6 8 7 6 9 9 9 10 4 4 3 6 4 3 3 4 4 4 2 1 3 3 4 5 8 2 0 3 2 4 2 2 4 4 2 3 1
24 21 21 17 13 15 17 18 12 9 6 9 8 3 6 10 7 4 3 4 6 6 3 3 3 5 3 1 3 4 3 4 2 5 2 4 2 3 3 3 3 3 5 2 3 3 3
23 22 20 17 12 13 12 13 12 7 7 8 5 3 4 10 4 3 3 3 3 5 6 6 6 4 2 2 4 3 3 7 9 4 3 1 3 3 7 5 5 4 6 4 3 3 6
21 19 19 18 15 14 14 10 8 3 5 6 4 2 4 6 2 3 2 4 1 2 4 4 3 4 3 3 3 3 1 3 3 2 4 0 4 2 3 5 4 6 12 9 5 4 5
20 16 17 18 17 15 13 9 7 2 5 4 2 1 1 2 5 3 1 2 3 3 5 9 5 6 4 5 3 3 1 2 4 4 1 3 3 3 4 4 4 5 7 11 13 7 6
18 17 15 17 18 19 14 7 4 2 2 4 2 3 1 3 2 2 2 1 4 4 5 5 5 5 9 5 3 4 4 5 2 6 4 2 0 2 5 5 7 5 12 10 11 11 9
17 15 16 14 13 17 15 9 7 3 2 4 6 8 2 3 4 2 1 1 3 1 4 6 4 3 7 6 15 15 3 3 3 2 5 2 2 2 3 3 5 5 5 5 3 5 6
15 13 15 15 13 17 17 3 10 11 6 5 5 4 2 1 2 2 1 2 2 2 3 3 9 3 1 9 10 4 2 5 6 6 4 2 2 2 2 2 3 5 1 1 4 4 5
13 12 13 12 12 13 13 20 19 10 5 5 6 7 4 1 6 6 4 2 1 2 1 1 3 2 7 6 3 2 3 2 1 1 4 3 2 2 2 1 2 1 4 4 4 4 4
12 11 10 8 11 15 8 10 10 6 4 5 7 10 8 1 5 6 3 4 2 1 3 3 2 2 6 2 3 1 1 2 3 6 3 1 3 3 2 3 3 4 3 3 3 2 8
11 8 8 5 9 14 10 6 5 6 6 7 11 10 6 4 3 4 1 2 4 1 2 1 1 2 4 3 2 1 2 1 2 3 1 2 2 3 1 1 5 3 5 5 3 5 9
11 8 7 5 7 14 13 12 8 4 2 7 11 10 3 5 6 4 2 3 2 3 1 0 2 2 3 2 1 2 2 3 1 4 3 4 3 3 2 1 6 9 6 7 4 7 11
10 9 8 6 6 17 16 12 8 6 4 7 9 7 3 4 4 4 4 4 2 3 3 1 2 1 1 2 0 0 2 1 3 3 1 2 6 3 7 5 5 15 4 8 10 14 14

GFSGBSN_850_spd_108.txt.gz
Wind_Speed
35 35 35 36 37 35 33 24 24 18 18 21 24 25 23 20 19 16 18 17 16 14 17 17 27 20 17 9 6 11 16 16 12 15 13 10 9 5 3 3 4 4 4 13 21 18 19
37 39 38 38 45 44 36 27 26 23 24 33 26 27 24 22 18 15 18 18 14 14 19 19 32 21 17 7 10 15 17 11 10 14 14 9 6 5 3 2 2 4 10 16 18 24 20
39 41 40 40 37 37 39 21 30 32 24 31 27 25 22 19 16 13 17 18 18 14 24 22 19 19 10 7 10 18 12 11 12 12 11 7 8 5 2 3 6 10 8 11 15 11 7
42 34 39 39 35 34 32 29 26 23 23 24 22 23 20 19 16 12 15 16 16 18 25 22 14 14 3 13 15 15 16 14 11 8 7 4 6 5 3 4 6 3 1 4 4 3 8
34 41 39 33 31 30 29 28 27 27 23 22 22 23 19 19 14 10 9 5 4 15 22 23 22 11 3 16 21 13 15 13 12 7 7 3 7 3 0 0 4 2 3 4 7 7 5
43 41 35 33 31 31 29 28 27 22 19 19 17 14 7 5 11 1 5 8 21 23 21 21 15 8 9 10 22 18 13 13 10 10 8 4 3 1 3 2 3 2 4 5 9 5 9
42 37 32 32 32 32 30 33 26 18 16 15 11 9 10 8 5 2 5 11 6 11 9 6 15 6 16 14 16 13 14 9 10 8 3 5 2 7 9 8 6 4 7 12 15 15 11
42 32 32 31 33 34 34 31 33 18 11 10 7 8 8 7 7 1 10 8 4 7 5 13 14 22 20 17 12 13 14 7 5 4 3 1 8 10 6 7 10 9 13 17 16 11 6
37 30 32 31 33 33 32 32 31 26 11 10 5 4 7 3 9 14 12 10 13 6 5 6 10 11 8 8 7 14 16 4 4 4 5 5 6 1 6 7 10 12 12 14 9 10 7
34 28 31 30 31 32 32 32 33 25 18 16 11 11 9 12 11 10 8 9 9 4 3 4 3 5 4 7 3 15 15 1 2 7 4 6 12 7 7 10 10 11 7 15 12 8 5
30 28 30 30 29 29 31 30 31 32 24 24 23 16 18 13 8 10 7 15 9 2 5 2 3 4 11 1 13 8 10 3 2 2 0 5 3 3 4 6 3 7 4 6 8 12 9
27 27 29 28 27 26 27 25 27 27 23 23 21 16 12 12 15 13 12 13 6 4 3 3 2 7 4 1 2 6 2 3 3 3 3 9 4 4 5 3 6 8 8 11 8 5 5
25 25 26 27 25 22 24 21 20 21 17 16 16 16 15 14 13 10 9 2 4 5 2 1 5 3 1 3 3 3 3 2 3 2 2 4 3 2 1 4 3 2 4 3 3 2 3
22 23 21 23 24 20 20 19 17 14 14 13 12 12 17 16 11 7 3 4 7 8 5 3 4 5 2 4 2 5 3 2 6 3 2 2 5 5 2 3 3 4 2 2 4 3 3
21 22 22 19 20 20 16 16 15 12 9 12 13 11 16 12 9 8 3 6 4 2 2 5 3 2 2 2 3 2 4 3 2 9 3 2 3 1 3 3 2 1 3 2 3 3 2
23 21 20 17 18 20 20 17 16 10 5 7 9 9 15 15 12 8 4 7 2 3 2 3 2 3 2 2 3 2 2 2 1 4 3 1 4 3 3 3 8 5 5 2 1 3 2
22 21 18 14 14 15 17 19 17 13 5 7 8 4 14 14 13 13 5 3 3 6 5 3 1 4 4 3 1 1 3 3 3 2 4 2 1 3 2 4 2 1 3 5 3 3 2
21 19 18 14 13 14 13 16 14 13 8 7 7 3 15 13 8 5 3 4 5 5 2 3 4 2 3 5 3 1 2 2 5 3 1 4 1 3 5 4 4 4 4 4 2 3 3
20 16 14 12 12 10 10 12 11 10 12 9 5 7 15 13 4 2 4 2 2 5 5 5 5 3 1 2 4 4 4 5 6 5 3 4 2 3 7 5 4 3 5 4 3 3 4
19 16 16 11 9 13 11 10 8 7 10 11 4 3 8 11 6 2 3 4 4 5 4 7 4 5 3 4 3 2 1 2 1 2 3 1 3 1 4 4 4 7 8 5 4 4 3
18 16 16 14 10 9 11 6 8 3 6 9 6 2 3 3 6 4 3 3 3 4 6 12 7 6 2 4 4 4 5 6 2 7 2 2 2 3 3 3 1 3 7 12 8 6 3
17 14 15 15 6 7 7 5 2 2 5 11 4 4 3 3 7 7 5 4 4 4 3 4 4 6 6 4 2 3 4 4 1 5 3 2 1 1 5 7 7 4 10 9 8 9 8
16 13 15 15 4 7 3 6 5 3 4 8 8 6 4 6 4 3 3 4 5 5 2 2 2 1 4 3 7 11 9 5 0 1 3 2 2 2 3 6 7 5 5 4 2 4 5
14 12 13 14 4 7 3 14 11 7 11 14 9 4 4 3 1 3 6 5 5 7 3 4 4 1 2 9 9 3 2 3 4 3 1 2 2 1 2 4 3 5 2 2 2 2 2
12 10 11 11 4 10 12 19 14 9 9 8 6 5 3 0 4 6 9 4 7 8 5 5 4 3 10 5 3 4 4 4 3 3 3 2 3 2 2 1 4 3 4 4 4 4 4
9 8 7 6 5 13 17 13 9 8 9 6 3 1 4 3 2 5 4 5 1 3 5 4 4 6 8 3 3 1 2 2 4 8 3 3 4 3 1 3 6 5 3 5 3 4 10
8 7 4 2 7 13 14 11 9 7 5 3 1 2 4 5 5 3 3 3 4 2 2 5 6 4 6 3 2 1 3 2 2 2 2 3 2 3 2 2 6 5 7 6 5 6 15
7 8 5 4 7 13 13 14 12 8 3 1 2 3 3 3 5 7 9 3 3 2 1 6 4 4 4 3 0 2 2 3 1 4 3 4 3 4 1 1 7 10 6 7 5 4 18
10 9 9 8 8 14 15 16 12 9 5 4 7 1 1 4 3 7 11 11 7 2 2 3 2 1 2 2 1 1 2 2 1 3 2 3 6 3 7 5 4 20 4 15 6 12 14

GFSGBSN_850_spd_111.txt.gz
Wind_Speed
36 37 37 38 39 37 33 35 32 25 14 20 20 23 20 22 21 21 19 17 15 13 16 16 9 15 13 8 1 7 16 16 13 13 10 8 8 5 4 2 2 2 3 10 14 19 19
33 41 37 35 34 33 32 32 29 25 21 22 19 20 22 19 21 19 19 17 17 12 21 22 11 23 16 6 7 16 19 14 11 12 11 9 6 4 4 2 1 3 10 15 15 20 15
36 38 35 33 33 33 32 30 29 26 22 20 17 18 17 15 15 14 16 18 18 17 17 22 21 28 15 8 19 18 14 9 11 11 12 8 7 4 3 2 4 7 7 7 10 6 5
38 38 32 32 33 35 32 31 30 25 20 16 18 18 20 17 13 11 14 16 17 19 17 18 34 24 7 13 20 15 14 14 14 12 8 6 4 3 1 2 5 4 2 5 3 3 6
39 31 32 33 34 35 36 33 35 26 13 14 16 23 12 8 8 10 7 10 7 5 19 25 20 14 8 19 23 17 15 16 12 9 7 5 4 3 2 1 3 2 2 3 7 2 3
33 29 32 32 34 34 34 34 32 23 15 12 14 16 14 9 7 5 1 6 15 22 25 21 17 10 14 13 22 19 11 14 11 12 9 3 2 2 2 1 2 0 3 4 7 5 1
29 28 31 31 32 34 35 36 28 22 15 12 14 16 15 18 12 7 8 7 13 12 11 3 12 13 17 20 17 13 12 11 6 6 3 2 3 5 7 6 2 1 5 14 14 13 10
28 27 28 29 30 33 35 38 28 22 20 15 13 13 11 13 9 12 10 8 9 10 11 14 19 24 26 21 9 13 14 5 4 2 5 2 6 9 5 5 6 8 11 15 14 8 5
26 27 27 27 29 31 31 34 33 32 24 18 15 16 13 14 16 13 16 14 14 11 6 10 15 15 10 12 6 13 14 4 3 1 3 5 4 2 6 3 4 10 8 14 13 13 12
25 26 26 26 27 28 25 27 27 28 26 25 21 15 11 9 11 11 8 9 8 3 4 7 6 6 7 7 6 12 14 2 2 6 3 5 7 6 2 4 7 10 7 11 11 8 4
23 23 24 24 25 25 23 21 21 21 22 22 17 14 15 12 8 11 4 7 2 3 6 5 4 4 4 6 13 6 12 2 0 2 2 6 3 2 1 4 4 7 4 7 9 11 8
23 19 21 22 23 23 22 19 18 16 18 18 18 12 12 18 14 11 10 5 3 6 6 3 4 4 1 3 3 5 2 3 2 3 4 8 5 3 5 3 5 7 9 12 10 5 5
24 18 17 20 18 18 21 19 16 15 17 18 17 13 13 13 13 8 6 3 5 6 0 3 3 2 0 2 3 2 3 2 3 3 3 5 2 3 3 4 2 4 6 4 4 1 4
25 18 14 16 17 16 18 18 17 14 15 17 13 14 14 14 7 2 2 3 9 5 5 4 3 2 2 3 3 4 2 2 5 1 1 3 6 5 3 4 3 3 2 2 4 2 3
24 18 12 13 16 16 17 17 16 13 13 15 14 14 19 16 9 4 5 7 3 1 3 4 1 2 2 2 4 3 4 2 0 7 3 2 4 1 4 3 3 1 4 2 3 3 2
22 19 11 9 11 14 16 18 16 14 13 14 14 10 26 13 11 8 5 8 2 2 1 2 1 3 2 1 2 1 1 1 0 2 2 1 5 4 2 1 6 5 3 2 2 4 2
20 17 13 7 8 10 13 17 15 14 12 13 11 6 24 9 13 14 6 4 3 4 1 2 1 2 1 1 2 1 1 3 3 2 4 2 3 4 1 5 3 1 2 3 2 2 2
17 16 17 10 7 8 11 16 16 13 13 10 10 3 22 13 8 5 3 3 4 4 1 3 1 0 3 5 2 1 1 3 7 4 3 6 2 4 6 3 3 3 4 2 2 2 2
19 16 15 14 9 6 6 12 15 11 12 10 6 8 19 13 4 4 5 3 2 6 4 4 2 2 1 2 2 3 4 5 8 5 4 4 1 4 7 4 4 2 3 4 0 2 2
19 16 15 15 9 7 3 6 8 8 11 11 4 3 9 15 10 3 6 5 6 7 2 6 4 3 4 5 4 2 3 1 6 6 8 2 1 2 3 4 2 6 8 3 2 2 2
18 17 14 13 11 3 2 4 5 4 8 6 6 2 3 3 6 4 4 5 6 7 10 13 5 6 3 3 4 5 4 5 1 5 2 0 1 2 4 4 3 2 4 5 4 4 2
16 17 14 13 11 7 2 6 6 5 3 11 5 3 3 3 4 6 5 5 7 7 6 6 4 6 6 3 1 2 3 2 1 4 2 3 2 2 3 7 6 3 7 5 5 4 7
15 16 13 13 10 8 4 9 8 5 2 4 12 8 3 4 2 3 2 5 5 7 2 4 4 3 5 3 8 13 10 11 5 2 2 1 3 2 4 5 7 5 2 2 1 1 6
14 14 12 12 8 10 7 11 11 11 7 5 9 8 4 1 1 2 2 1 3 5 2 10 8 4 7 17 13 6 5 7 6 1 2 2 3 2 3 3 2 5 2 2 3 3 4
12 13 10 10 6 7 6 14 13 11 8 2 6 3 3 2 4 3 1 0 4 7 2 4 4 6 15 8 4 5 4 5 2 2 4 2 3 1 1 2 5 2 5 6 5 6 6
12 10 9 7 3 0 10 13 10 8 7 4 1 1 3 5 6 5 3 1 2 2 5 3 6 9 9 3 4 3 2 2 5 9 3 3 4 3 1 2 4 5 3 4 3 5 10
13 10 8 6 5 7 9 11 11 9 7 5 3 5 4 4 6 10 5 5 6 3 2 5 6 4 8 3 3 2 4 2 3 4 4 3 2 1 1 3 7 5 5 7 5 6 8
15 12 9 9 9 13 13 10 10 9 7 4 2 0 5 4 6 12 12 7 8 6 4 4 2 2 3 3 1 2 0 2 4 4 3 2 1 3 1 2 6 3 2 6 4 4 7
18 15 13 12 12 14 17 16 13 10 7 5 4 3 4 6 6 9 16 17 13 9 9 6 4 6 7 3 2 2 2 1 2 4 3 3 5 3 7 5 4 9 8 11 6 6 6

GFSGBSN_850_spd_114.txt.gz
Wind_Speed
35 41 31 31 32 34 32 30 29 25 20 16 14 14 14 19 21 17 14 15 12 10 12 6 12 24 25 10 3 6 20 16 9 12 10 7 7 4 4 4 2 1 3 8 8 18 19
39 30 31 30 32 34 35 32 32 28 18 13 13 11 12 16 17 15 14 14 14 12 11 6 8 23 19 8 11 17 17 12 10 10 9 7 6 8 7 3 2 2 8 13 12 15 11
31 28 29 31 32 34 33 32 33 29 15 11 13 15 15 15 12 10 10 10 13 13 8 9 13 17 10 13 14 17 14 9 10 9 14 13 11 5 5 2 4 6 6 7 3 2 4
26 27 28 29 32 34 35 31 29 22 16 13 14 19 16 10 7 4 4 7 10 11 8 11 11 18 6 21 22 17 11 12 10 10 10 8 7 10 5 3 4 4 3 5 2 1 3
26 27 27 29 32 35 36 29 28 21 19 18 19 25 17 11 3 5 4 5 5 6 11 12 18 13 6 19 19 17 13 16 14 11 9 8 6 6 4 3 4 5 2 2 7 2 3
25 26 27 28 30 34 35 33 29 25 21 20 20 22 22 14 13 6 5 9 14 21 18 13 18 14 13 9 23 19 14 14 13 12 10 4 3 3 1 3 1 3 4 5 6 5 2
24 25 24 26 30 29 32 33 32 25 20 18 18 18 17 9 14 11 15 23 14 10 13 4 11 13 19 21 22 15 17 12 13 3 3 3 5 3 6 4 3 3 8 12 13 10 8
24 24 23 25 28 27 27 28 30 29 26 23 20 17 18 18 15 13 12 13 11 13 12 29 31 31 26 16 12 13 13 4 3 3 3 3 1 4 4 3 4 6 8 9 11 4 3
23 23 22 22 26 25 24 24 24 24 23 22 20 18 16 17 17 18 21 20 17 10 6 13 17 14 9 13 8 10 10 5 3 2 2 3 2 5 4 3 4 5 6 6 10 13 7
21 20 20 21 24 25 23 24 24 25 24 20 18 18 8 6 10 12 16 20 7 5 4 8 6 8 9 9 6 10 6 2 1 3 3 3 4 3 3 4 6 4 7 11 12 7 4
22 20 19 19 20 24 24 22 22 22 24 22 19 18 17 12 11 12 9 4 3 3 6 9 6 4 10 9 12 2 8 3 2 1 4 5 2 1 2 4 6 7 2 6 9 13 10
21 19 15 17 17 19 22 23 21 22 21 21 20 19 13 14 12 10 5 1 4 6 6 4 6 4 3 7 3 4 1 1 1 2 1 6 3 2 5 4 6 5 7 8 4 4 3
23 18 17 14 16 18 19 20 20 20 19 18 18 19 19 12 9 3 2 3 5 6 1 3 2 4 2 3 3 2 1 2 1 4 3 5 2 3 4 3 1 2 4 4 5 1 4
24 20 15 14 13 15 17 19 20 19 17 15 14 23 23 17 12 8 6 4 10 5 4 2 1 0 4 2 2 1 1 2 4 1 1 3 6 5 4 5 2 2 1 1 3 2 5
24 22 18 16 14 13 14 17 18 18 16 13 10 20 28 21 14 9 5 8 3 1 1 3 3 3 3 2 2 1 3 2 3 8 4 2 4 2 4 3 3 2 3 1 3 3 3
22 21 20 17 16 14 14 15 16 16 15 14 11 10 27 22 19 15 7 8 4 4 2 2 3 0 2 0 1 1 1 2 1 4 3 1 5 3 0 1 5 5 1 2 1 3 3
22 20 19 19 16 13 13 14 16 17 15 12 12 5 22 16 23 21 6 5 3 4 1 2 1 1 2 2 2 2 2 4 3 2 2 2 0 5 1 5 4 2 2 4 2 1 2
22 19 19 18 18 12 10 13 13 15 15 13 15 4 17 11 11 4 3 2 5 4 2 1 1 2 2 3 1 1 2 3 4 3 2 4 2 4 7 1 2 4 4 3 2 2 1
22 20 17 17 17 16 8 9 11 14 15 9 5 6 21 6 4 3 3 1 2 5 5 5 4 4 3 2 2 3 3 4 7 4 3 3 1 4 4 3 3 1 2 3 1 1 2
21 19 17 16 16 16 12 6 6 11 11 7 2 3 8 16 7 3 3 4 5 5 1 5 4 2 4 5 3 2 5 2 4 5 5 3 2 3 4 5 2 6 7 2 3 1 3
19 18 16 16 15 13 11 6 6 7 9 5 4 2 3 2 5 4 0 2 4 6 7 14 4 5 2 5 6 5 4 5 2 2 2 2 3 1 5 6 3 4 5 2 3 3 2
17 18 17 17 15 10 8 4 4 3 6 6 2 5 5 4 1 3 5 4 3 4 3 4 4 6 5 4 2 4 4 3 2 6 2 2 2 2 4 1 4 4 3 3 3 2 6
15 17 16 15 16 9 8 3 1 3 4 4 4 5 1 1 4 3 1 1 2 2 1 3 1 1 3 2 9 14 12 12 7 3 3 2 2 4 5 6 7 5 4 2 2 2 6
14 16 15 14 14 10 9 6 5 4 5 3 1 2 0 2 1 4 5 3 2 3 2 4 2 3 2 14 10 5 7 10 8 7 4 1 2 2 4 3 2 5 2 2 4 5 8
17 14 13 13 12 11 4 12 9 7 5 4 1 1 2 1 3 3 6 5 4 4 4 5 4 3 8 4 3 4 4 3 1 2 2 2 2 1 1 2 6 2 5 6 6 6 9
19 15 12 11 9 6 4 12 11 8 6 4 1 4 3 2 5 3 5 5 3 3 3 5 4 5 5 2 2 2 3 2 3 8 2 3 3 3 0 0 5 4 2 4 3 5 5
21 16 14 9 8 4 7 11 10 8 7 5 3 5 4 4 4 10 6 5 6 2 2 3 3 2 1 2 1 2 3 2 2 3 3 2 1 3 2 3 8 5 3 4 4 6 4
22 19 16 12 10 10 11 12 10 8 8 6 5 5 4 4 10 10 13 9 7 6 4 2 2 2 2 2 3 3 3 4 2 5 5 6 5 4 3 2 7 7 5 6 4 4 7
22 21 19 16 13 14 16 16 13 11 10 8 6 6 7 8 8 12 15 18 17 10 5 4 2 2 3 3 1 2 3 2 4 4 1 3 6 4 8 6 7 16 12 11 13 14 11

GFSGBSN_850_spd_117.txt.gz
Wind_Speed
26 28 27 29 33 32 34 30 27 24 16 12 13 11 10 10 7 9 8 4 5 4 1 4 9 22 18 10 7 9 15 17 11 11 10 9 8 6 5 6 4 2 1 3 7 13 16
26 27 27 30 31 33 31 29 26 23 17 15 15 14 12 9 7 4 5 5 5 5 2 2 10 26 19 8 6 13 17 11 12 12 10 7 6 10 10 4 3 1 4 10 9 10 9
26 25 27 28 30 32 30 28 26 24 22 21 21 19 16 9 6 3 1 3 6 5 1 2 5 12 14 12 19 18 13 11 10 8 14 13 10 3 7 4 3 1 4 5 1 3 3
26 25 26 27 28 31 30 27 26 24 24 23 27 24 18 11 5 7 6 4 6 6 3 5 11 10 7 19 18 19 13 17 13 13 13 11 9 12 5 6 4 3 3 3 1 4 3
25 24 24 25 26 28 32 31 25 23 23 22 23 25 21 16 12 9 8 9 6 9 8 11 14 14 7 17 24 20 15 19 15 12 13 10 6 6 4 3 3 6 1 3 8 4 2
25 24 24 24 23 24 26 28 28 26 25 22 22 20 19 19 14 15 16 13 23 25 23 15 14 8 9 9 23 20 15 16 15 16 12 5 5 3 3 3 3 2 2 2 6 4 5
24 25 23 23 22 22 25 28 31 28 25 24 23 22 20 17 16 22 24 24 13 11 9 5 10 11 15 24 19 18 13 14 14 7 3 4 4 2 3 3 4 1 2 6 6 9 5
22 23 22 22 21 23 25 26 27 27 26 25 21 18 20 19 14 15 8 14 16 8 15 31 33 33 22 15 16 13 11 4 3 3 2 4 1 3 2 3 2 1 3 6 9 6 4
19 20 21 21 21 22 25 26 27 27 25 25 25 12 15 22 21 22 34 25 21 9 8 14 20 15 13 12 9 9 4 5 4 3 1 3 3 7 2 1 1 3 4 4 7 6 9
21 19 19 19 20 21 22 23 26 26 26 26 26 21 3 10 22 25 26 14 5 2 4 7 7 8 8 12 6 5 5 2 2 3 3 2 1 3 2 3 6 3 8 11 9 7 4
25 18 18 18 19 20 21 21 22 25 26 26 28 26 16 19 21 12 6 4 5 1 6 10 6 6 11 8 10 2 1 4 3 2 3 3 2 3 2 5 6 6 1 5 6 11 8
29 20 18 17 16 17 18 18 18 19 22 24 26 21 16 9 6 4 4 6 6 6 8 5 3 4 4 6 4 3 2 3 2 2 1 5 2 3 5 3 7 4 5 6 5 3 4
30 25 18 18 19 18 17 16 16 16 16 16 23 21 15 8 7 6 7 4 6 7 2 5 3 4 4 3 3 2 1 2 2 4 3 3 3 3 5 2 1 3 4 3 4 2 5
28 26 23 19 18 19 20 16 15 15 14 12 15 22 18 14 9 5 3 6 10 4 4 2 1 2 3 1 1 1 1 1 3 3 1 3 5 3 4 5 2 2 1 2 3 2 4
26 26 24 21 18 17 18 18 17 15 13 11 7 22 23 18 10 11 11 9 3 2 1 1 2 3 3 1 3 1 1 2 1 5 2 3 4 1 4 2 1 2 2 0 3 4 3
25 25 24 22 21 16 14 15 15 17 14 10 6 9 22 23 22 15 6 8 3 2 3 2 3 2 3 4 3 4 3 0 2 5 5 2 5 3 2 1 3 4 2 2 2 4 4
23 23 23 23 20 17 14 12 13 15 12 10 8 4 16 14 21 16 6 3 0 1 2 2 1 2 3 1 2 1 2 4 2 4 5 1 1 5 2 4 4 2 2 3 3 1 2
21 21 21 22 20 18 13 11 11 14 11 10 9 4 10 10 8 5 3 2 1 1 1 1 2 3 4 6 2 3 2 4 5 5 3 5 2 4 6 2 3 2 4 2 1 1 1
18 21 18 20 20 17 14 9 11 14 13 6 5 5 14 5 3 3 3 2 2 5 3 1 1 2 1 3 2 3 3 3 9 6 4 3 1 4 3 3 1 3 3 4 0 1 3
17 17 19 17 19 16 13 10 9 12 12 6 3 3 8 13 8 5 2 3 3 4 1 2 4 3 3 3 3 2 4 1 3 5 3 4 2 5 4 5 1 4 3 4 5 2 2
17 15 18 16 16 14 11 9 8 8 12 4 3 2 3 2 4 4 2 0 3 4 4 8 3 3 1 4 3 4 2 5 1 3 2 2 3 3 6 8 3 5 6 4 6 5 3
16 15 15 18 15 12 10 9 7 7 10 6 2 4 5 4 2 2 2 1 1 1 1 4 3 4 3 3 5 4 1 3 2 4 1 1 3 1 5 4 5 5 6 5 5 2 2
19 13 14 15 15 11 9 7 6 5 6 4 5 6 2 1 3 1 3 4 4 1 2 1 2 1 2 3 8 13 12 8 5 2 2 1 1 3 4 5 7 5 8 7 4 4 6
20 15 12 13 14 12 11 8 5 2 4 6 4 3 1 1 2 4 3 3 5 3 2 4 4 3 2 11 12 5 6 11 9 8 8 1 2 2 4 6 2 4 2 2 4 5 8
22 17 11 12 11 12 10 5 7 3 1 5 4 2 2 0 3 3 5 4 4 4 4 5 6 5 9 7 2 4 4 3 2 3 5 6 2 1 1 2 7 2 4 5 6 6 11
22 21 14 11 8 9 4 5 7 6 3 1 1 3 2 3 5 4 4 5 3 2 4 6 7 7 3 2 2 2 3 1 3 5 3 3 2 3 1 1 5 5 2 7 4 5 2
21 22 17 12 10 7 7 8 8 7 6 6 5 5 4 4 4 8 5 5 5 3 3 5 2 2 2 2 1 3 3 2 3 3 4 2 1 5 4 4 8 6 3 5 4 5 3
20 21 20 13 13 9 10 11 11 10 8 8 6 5 4 4 9 10 10 10 7 5 3 0 2 1 2 1 3 3 4 4 1 4 4 6 5 4 2 2 7 11 6 8 6 4 1
22 20 21 16 15 13 13 14 15 13 11 10 10 7 7 8 9 15 17 15 18 15 7 7 3 3 5 3 1 0 2 1 2 3 1 3 5 3 8 6 3 15 6 16 6 8 12